<?xml version="1.0" encoding="UTF-8" standalone="no" ?>
<gpx xmlns="http://www.topografix.com/GPX/1/1" xmlns:xsi="http://www.w3.org/2001/XMLSchema-instance" xsi:schemaLocation="http://www.topografix.com/GPX/1/1 http://www.topografix.com/GPX/1/1/gpx.xsd" version="1.1" creator="VisuGPX - https://www.visugpx.com">
  <metadata>
    <name>ESTELLIER DEPUIS BEZAUDUN-LES-ALPES</name>
    <desc><![CDATA[ESTELLIER DEPUIS BEZAUDUN-LES-ALPES]]></desc>
  </metadata>
  <trk>
    <name><![CDATA[track]]></name>
    <trkseg>
      <trkpt lat="43.80657" lon="7.09615">
        <ele>864</ele>
        <time>2013-12-01T07:55:39Z</time>
      </trkpt>
      <trkpt lat="43.80658" lon="7.09614">
        <ele>863</ele>
        <time>2013-12-01T07:55:52Z</time>
      </trkpt>
      <trkpt lat="43.80664" lon="7.09615">
        <ele>864</ele>
        <time>2013-12-01T07:55:57Z</time>
      </trkpt>
      <trkpt lat="43.80675" lon="7.0962">
        <ele>864</ele>
        <time>2013-12-01T07:56:07Z</time>
      </trkpt>
      <trkpt lat="43.80687" lon="7.09624">
        <ele>865</ele>
        <time>2013-12-01T07:56:18Z</time>
      </trkpt>
      <trkpt lat="43.80699" lon="7.09626">
        <ele>866</ele>
        <time>2013-12-01T07:56:28Z</time>
      </trkpt>
      <trkpt lat="43.80715" lon="7.09627">
        <ele>868</ele>
        <time>2013-12-01T07:56:41Z</time>
      </trkpt>
      <trkpt lat="43.80732" lon="7.09627">
        <ele>868</ele>
        <time>2013-12-01T07:56:55Z</time>
      </trkpt>
      <trkpt lat="43.80739" lon="7.09624">
        <ele>868</ele>
        <time>2013-12-01T07:57:04Z</time>
      </trkpt>
      <trkpt lat="43.80745" lon="7.09623">
        <ele>869</ele>
        <time>2013-12-01T07:57:10Z</time>
      </trkpt>
      <trkpt lat="43.80755" lon="7.09622">
        <ele>870</ele>
        <time>2013-12-01T07:57:21Z</time>
      </trkpt>
      <trkpt lat="43.8076" lon="7.09622">
        <ele>870</ele>
        <time>2013-12-01T07:57:29Z</time>
      </trkpt>
      <trkpt lat="43.80776" lon="7.09627">
        <ele>871</ele>
        <time>2013-12-01T07:57:43Z</time>
      </trkpt>
      <trkpt lat="43.80785" lon="7.09633">
        <ele>872</ele>
        <time>2013-12-01T07:58:00Z</time>
      </trkpt>
      <trkpt lat="43.80795" lon="7.09641">
        <ele>871</ele>
        <time>2013-12-01T07:58:10Z</time>
      </trkpt>
      <trkpt lat="43.80803" lon="7.0965">
        <ele>872</ele>
        <time>2013-12-01T07:58:22Z</time>
      </trkpt>
      <trkpt lat="43.80813" lon="7.09656">
        <ele>871</ele>
        <time>2013-12-01T07:58:44Z</time>
      </trkpt>
      <trkpt lat="43.80822" lon="7.09661">
        <ele>872</ele>
        <time>2013-12-01T07:59:11Z</time>
      </trkpt>
      <trkpt lat="43.80832" lon="7.09663">
        <ele>874</ele>
        <time>2013-12-01T07:59:25Z</time>
      </trkpt>
      <trkpt lat="43.80835" lon="7.0966">
        <ele>876</ele>
        <time>2013-12-01T07:59:39Z</time>
      </trkpt>
      <trkpt lat="43.8084" lon="7.09655">
        <ele>879</ele>
        <time>2013-12-01T07:59:48Z</time>
      </trkpt>
      <trkpt lat="43.80837" lon="7.09649">
        <ele>881</ele>
        <time>2013-12-01T08:00:06Z</time>
      </trkpt>
      <trkpt lat="43.80838" lon="7.09642">
        <ele>883</ele>
        <time>2013-12-01T08:00:14Z</time>
      </trkpt>
      <trkpt lat="43.80844" lon="7.09639">
        <ele>884</ele>
        <time>2013-12-01T08:00:24Z</time>
      </trkpt>
      <trkpt lat="43.80846" lon="7.09636">
        <ele>885</ele>
        <time>2013-12-01T08:00:31Z</time>
      </trkpt>
      <trkpt lat="43.80848" lon="7.09628">
        <ele>888</ele>
        <time>2013-12-01T08:00:38Z</time>
      </trkpt>
      <trkpt lat="43.80847" lon="7.09611">
        <ele>884</ele>
        <time>2013-12-01T08:00:48Z</time>
      </trkpt>
      <trkpt lat="43.80846" lon="7.09609">
        <ele>884</ele>
        <time>2013-12-01T08:00:49Z</time>
      </trkpt>
      <trkpt lat="43.80843" lon="7.09592">
        <ele>887</ele>
        <time>2013-12-01T08:01:00Z</time>
      </trkpt>
      <trkpt lat="43.8084" lon="7.09589">
        <ele>886</ele>
        <time>2013-12-01T08:01:29Z</time>
      </trkpt>
      <trkpt lat="43.80835" lon="7.09586">
        <ele>886</ele>
        <time>2013-12-01T08:01:34Z</time>
      </trkpt>
      <trkpt lat="43.80825" lon="7.09574">
        <ele>884</ele>
        <time>2013-12-01T08:01:46Z</time>
      </trkpt>
      <trkpt lat="43.80828" lon="7.09566">
        <ele>884</ele>
        <time>2013-12-01T08:01:56Z</time>
      </trkpt>
      <trkpt lat="43.80836" lon="7.09575">
        <ele>881</ele>
        <time>2013-12-01T08:02:07Z</time>
      </trkpt>
      <trkpt lat="43.80841" lon="7.09581">
        <ele>881</ele>
        <time>2013-12-01T08:02:14Z</time>
      </trkpt>
      <trkpt lat="43.80849" lon="7.0959">
        <ele>879</ele>
        <time>2013-12-01T08:02:24Z</time>
      </trkpt>
      <trkpt lat="43.80854" lon="7.09596">
        <ele>879</ele>
        <time>2013-12-01T08:02:32Z</time>
      </trkpt>
      <trkpt lat="43.80861" lon="7.09605">
        <ele>877</ele>
        <time>2013-12-01T08:02:41Z</time>
      </trkpt>
      <trkpt lat="43.80865" lon="7.09609">
        <ele>876</ele>
        <time>2013-12-01T08:02:49Z</time>
      </trkpt>
      <trkpt lat="43.80871" lon="7.09616">
        <ele>876</ele>
        <time>2013-12-01T08:02:59Z</time>
      </trkpt>
      <trkpt lat="43.80882" lon="7.0963">
        <ele>873</ele>
        <time>2013-12-01T08:03:11Z</time>
      </trkpt>
      <trkpt lat="43.80886" lon="7.09635">
        <ele>874</ele>
        <time>2013-12-01T08:03:37Z</time>
      </trkpt>
      <trkpt lat="43.80888" lon="7.09643">
        <ele>874</ele>
        <time>2013-12-01T08:03:45Z</time>
      </trkpt>
      <trkpt lat="43.8089" lon="7.09654">
        <ele>875</ele>
        <time>2013-12-01T08:03:55Z</time>
      </trkpt>
      <trkpt lat="43.8089" lon="7.09654">
        <ele>875</ele>
        <time>2013-12-01T08:03:56Z</time>
      </trkpt>
      <trkpt lat="43.80891" lon="7.09659">
        <ele>875</ele>
        <time>2013-12-01T08:04:03Z</time>
      </trkpt>
      <trkpt lat="43.80888" lon="7.0967">
        <ele>876</ele>
        <time>2013-12-01T08:04:14Z</time>
      </trkpt>
      <trkpt lat="43.80888" lon="7.09675">
        <ele>876</ele>
        <time>2013-12-01T08:04:18Z</time>
      </trkpt>
      <trkpt lat="43.80892" lon="7.09673">
        <ele>875</ele>
        <time>2013-12-01T08:04:25Z</time>
      </trkpt>
      <trkpt lat="43.80897" lon="7.09667">
        <ele>873</ele>
        <time>2013-12-01T08:04:32Z</time>
      </trkpt>
      <trkpt lat="43.80903" lon="7.09662">
        <ele>873</ele>
        <time>2013-12-01T08:04:38Z</time>
      </trkpt>
      <trkpt lat="43.80906" lon="7.09659">
        <ele>872</ele>
        <time>2013-12-01T08:04:42Z</time>
      </trkpt>
      <trkpt lat="43.80912" lon="7.09655">
        <ele>872</ele>
        <time>2013-12-01T08:04:49Z</time>
      </trkpt>
      <trkpt lat="43.80911" lon="7.0965">
        <ele>869</ele>
        <time>2013-12-01T08:04:54Z</time>
      </trkpt>
      <trkpt lat="43.8091" lon="7.09646">
        <ele>867</ele>
        <time>2013-12-01T08:05:00Z</time>
      </trkpt>
      <trkpt lat="43.80909" lon="7.0964">
        <ele>866</ele>
        <time>2013-12-01T08:05:06Z</time>
      </trkpt>
      <trkpt lat="43.80909" lon="7.09633">
        <ele>866</ele>
        <time>2013-12-01T08:05:23Z</time>
      </trkpt>
      <trkpt lat="43.80905" lon="7.09626">
        <ele>865</ele>
        <time>2013-12-01T08:05:37Z</time>
      </trkpt>
      <trkpt lat="43.80904" lon="7.09621">
        <ele>863</ele>
        <time>2013-12-01T08:05:45Z</time>
      </trkpt>
      <trkpt lat="43.809" lon="7.09613">
        <ele>863</ele>
        <time>2013-12-01T08:05:56Z</time>
      </trkpt>
      <trkpt lat="43.80899" lon="7.09609">
        <ele>862</ele>
        <time>2013-12-01T08:06:04Z</time>
      </trkpt>
      <trkpt lat="43.80895" lon="7.09594">
        <ele>860</ele>
        <time>2013-12-01T08:06:15Z</time>
      </trkpt>
      <trkpt lat="43.80892" lon="7.09583">
        <ele>858</ele>
        <time>2013-12-01T08:06:23Z</time>
      </trkpt>
      <trkpt lat="43.80892" lon="7.0958">
        <ele>857</ele>
        <time>2013-12-01T08:06:30Z</time>
      </trkpt>
      <trkpt lat="43.80889" lon="7.0957">
        <ele>856</ele>
        <time>2013-12-01T08:06:38Z</time>
      </trkpt>
      <trkpt lat="43.80888" lon="7.09563">
        <ele>855</ele>
        <time>2013-12-01T08:06:45Z</time>
      </trkpt>
      <trkpt lat="43.80886" lon="7.09554">
        <ele>854</ele>
        <time>2013-12-01T08:06:54Z</time>
      </trkpt>
      <trkpt lat="43.80885" lon="7.09548">
        <ele>853</ele>
        <time>2013-12-01T08:07:02Z</time>
      </trkpt>
      <trkpt lat="43.80883" lon="7.09543">
        <ele>853</ele>
        <time>2013-12-01T08:07:21Z</time>
      </trkpt>
      <trkpt lat="43.80883" lon="7.0954">
        <ele>853</ele>
        <time>2013-12-01T08:08:13Z</time>
      </trkpt>
      <trkpt lat="43.80882" lon="7.09528">
        <ele>852</ele>
        <time>2013-12-01T08:08:21Z</time>
      </trkpt>
      <trkpt lat="43.80882" lon="7.09512">
        <ele>851</ele>
        <time>2013-12-01T08:08:32Z</time>
      </trkpt>
      <trkpt lat="43.80884" lon="7.09493">
        <ele>849</ele>
        <time>2013-12-01T08:08:46Z</time>
      </trkpt>
      <trkpt lat="43.80891" lon="7.09479">
        <ele>847</ele>
        <time>2013-12-01T08:08:57Z</time>
      </trkpt>
      <trkpt lat="43.809" lon="7.09471">
        <ele>845</ele>
        <time>2013-12-01T08:09:06Z</time>
      </trkpt>
      <trkpt lat="43.80913" lon="7.09463">
        <ele>845</ele>
        <time>2013-12-01T08:09:18Z</time>
      </trkpt>
      <trkpt lat="43.80923" lon="7.09458">
        <ele>844</ele>
        <time>2013-12-01T08:09:28Z</time>
      </trkpt>
      <trkpt lat="43.8093" lon="7.09452">
        <ele>843</ele>
        <time>2013-12-01T08:09:36Z</time>
      </trkpt>
      <trkpt lat="43.8094" lon="7.09441">
        <ele>842</ele>
        <time>2013-12-01T08:09:48Z</time>
      </trkpt>
      <trkpt lat="43.80948" lon="7.09433">
        <ele>843</ele>
        <time>2013-12-01T08:09:58Z</time>
      </trkpt>
      <trkpt lat="43.80955" lon="7.09427">
        <ele>843</ele>
        <time>2013-12-01T08:10:19Z</time>
      </trkpt>
      <trkpt lat="43.80962" lon="7.09425">
        <ele>844</ele>
        <time>2013-12-01T08:10:28Z</time>
      </trkpt>
      <trkpt lat="43.80966" lon="7.09424">
        <ele>843</ele>
        <time>2013-12-01T08:10:36Z</time>
      </trkpt>
      <trkpt lat="43.80969" lon="7.0942">
        <ele>844</ele>
        <time>2013-12-01T08:10:51Z</time>
      </trkpt>
      <trkpt lat="43.80975" lon="7.09403">
        <ele>844</ele>
        <time>2013-12-01T08:11:03Z</time>
      </trkpt>
      <trkpt lat="43.80979" lon="7.0939">
        <ele>845</ele>
        <time>2013-12-01T08:11:15Z</time>
      </trkpt>
      <trkpt lat="43.8098" lon="7.09378">
        <ele>846</ele>
        <time>2013-12-01T08:11:26Z</time>
      </trkpt>
      <trkpt lat="43.80982" lon="7.09364">
        <ele>848</ele>
        <time>2013-12-01T08:11:38Z</time>
      </trkpt>
      <trkpt lat="43.80984" lon="7.09348">
        <ele>848</ele>
        <time>2013-12-01T08:11:50Z</time>
      </trkpt>
      <trkpt lat="43.80988" lon="7.09336">
        <ele>848</ele>
        <time>2013-12-01T08:12:00Z</time>
      </trkpt>
      <trkpt lat="43.80992" lon="7.09322">
        <ele>848</ele>
        <time>2013-12-01T08:12:11Z</time>
      </trkpt>
      <trkpt lat="43.80997" lon="7.09307">
        <ele>847</ele>
        <time>2013-12-01T08:12:23Z</time>
      </trkpt>
      <trkpt lat="43.81" lon="7.09288">
        <ele>846</ele>
        <time>2013-12-01T08:12:36Z</time>
      </trkpt>
      <trkpt lat="43.81003" lon="7.09274">
        <ele>847</ele>
        <time>2013-12-01T08:12:46Z</time>
      </trkpt>
      <trkpt lat="43.81005" lon="7.09266">
        <ele>846</ele>
        <time>2013-12-01T08:12:54Z</time>
      </trkpt>
      <trkpt lat="43.81008" lon="7.0926">
        <ele>846</ele>
        <time>2013-12-01T08:13:01Z</time>
      </trkpt>
      <trkpt lat="43.81013" lon="7.09252">
        <ele>846</ele>
        <time>2013-12-01T08:13:09Z</time>
      </trkpt>
      <trkpt lat="43.81021" lon="7.09244">
        <ele>846</ele>
        <time>2013-12-01T08:13:19Z</time>
      </trkpt>
      <trkpt lat="43.81026" lon="7.09234">
        <ele>846</ele>
        <time>2013-12-01T08:13:29Z</time>
      </trkpt>
      <trkpt lat="43.81022" lon="7.09216">
        <ele>842</ele>
        <time>2013-12-01T08:13:42Z</time>
      </trkpt>
      <trkpt lat="43.81017" lon="7.092">
        <ele>841</ele>
        <time>2013-12-01T08:13:54Z</time>
      </trkpt>
      <trkpt lat="43.81013" lon="7.09187">
        <ele>840</ele>
        <time>2013-12-01T08:14:04Z</time>
      </trkpt>
      <trkpt lat="43.81017" lon="7.09174">
        <ele>840</ele>
        <time>2013-12-01T08:14:14Z</time>
      </trkpt>
      <trkpt lat="43.81024" lon="7.09165">
        <ele>839</ele>
        <time>2013-12-01T08:14:23Z</time>
      </trkpt>
      <trkpt lat="43.81033" lon="7.09155">
        <ele>839</ele>
        <time>2013-12-01T08:14:34Z</time>
      </trkpt>
      <trkpt lat="43.81043" lon="7.09144">
        <ele>840</ele>
        <time>2013-12-01T08:14:47Z</time>
      </trkpt>
      <trkpt lat="43.81054" lon="7.09136">
        <ele>840</ele>
        <time>2013-12-01T08:14:58Z</time>
      </trkpt>
      <trkpt lat="43.81057" lon="7.09126">
        <ele>841</ele>
        <time>2013-12-01T08:18:33Z</time>
      </trkpt>
      <trkpt lat="43.81065" lon="7.0911">
        <ele>842</ele>
        <time>2013-12-01T08:18:51Z</time>
      </trkpt>
      <trkpt lat="43.81067" lon="7.09101">
        <ele>842</ele>
        <time>2013-12-01T08:18:57Z</time>
      </trkpt>
      <trkpt lat="43.81068" lon="7.09082">
        <ele>844</ele>
        <time>2013-12-01T08:19:08Z</time>
      </trkpt>
      <trkpt lat="43.81067" lon="7.09072">
        <ele>844</ele>
        <time>2013-12-01T08:19:17Z</time>
      </trkpt>
      <trkpt lat="43.81067" lon="7.09066">
        <ele>844</ele>
        <time>2013-12-01T08:19:35Z</time>
      </trkpt>
      <trkpt lat="43.81066" lon="7.09059">
        <ele>844</ele>
        <time>2013-12-01T08:19:49Z</time>
      </trkpt>
      <trkpt lat="43.81065" lon="7.09055">
        <ele>844</ele>
        <time>2013-12-01T08:20:09Z</time>
      </trkpt>
      <trkpt lat="43.81063" lon="7.09051">
        <ele>844</ele>
        <time>2013-12-01T08:20:19Z</time>
      </trkpt>
      <trkpt lat="43.81059" lon="7.0904">
        <ele>844</ele>
        <time>2013-12-01T08:20:29Z</time>
      </trkpt>
      <trkpt lat="43.81057" lon="7.09025">
        <ele>843</ele>
        <time>2013-12-01T08:20:48Z</time>
      </trkpt>
      <trkpt lat="43.81051" lon="7.0901">
        <ele>842</ele>
        <time>2013-12-01T08:21:00Z</time>
      </trkpt>
      <trkpt lat="43.81049" lon="7.08996">
        <ele>839</ele>
        <time>2013-12-01T08:21:11Z</time>
      </trkpt>
      <trkpt lat="43.81049" lon="7.08993">
        <ele>838</ele>
        <time>2013-12-01T08:21:18Z</time>
      </trkpt>
      <trkpt lat="43.81047" lon="7.08986">
        <ele>837</ele>
        <time>2013-12-01T08:21:25Z</time>
      </trkpt>
      <trkpt lat="43.81045" lon="7.08974">
        <ele>836</ele>
        <time>2013-12-01T08:21:36Z</time>
      </trkpt>
      <trkpt lat="43.81044" lon="7.08967">
        <ele>835</ele>
        <time>2013-12-01T08:21:42Z</time>
      </trkpt>
      <trkpt lat="43.8104" lon="7.08955">
        <ele>834</ele>
        <time>2013-12-01T08:22:02Z</time>
      </trkpt>
      <trkpt lat="43.81036" lon="7.08942">
        <ele>832</ele>
        <time>2013-12-01T08:22:11Z</time>
      </trkpt>
      <trkpt lat="43.81032" lon="7.08929">
        <ele>831</ele>
        <time>2013-12-01T08:22:21Z</time>
      </trkpt>
      <trkpt lat="43.8103" lon="7.08923">
        <ele>831</ele>
        <time>2013-12-01T08:22:26Z</time>
      </trkpt>
      <trkpt lat="43.81027" lon="7.08911">
        <ele>829</ele>
        <time>2013-12-01T08:22:57Z</time>
      </trkpt>
      <trkpt lat="43.81027" lon="7.08902">
        <ele>828</ele>
        <time>2013-12-01T08:23:12Z</time>
      </trkpt>
      <trkpt lat="43.81025" lon="7.08899">
        <ele>828</ele>
        <time>2013-12-01T08:23:53Z</time>
      </trkpt>
      <trkpt lat="43.81024" lon="7.08892">
        <ele>827</ele>
        <time>2013-12-01T08:23:57Z</time>
      </trkpt>
      <trkpt lat="43.81023" lon="7.08883">
        <ele>826</ele>
        <time>2013-12-01T08:24:54Z</time>
      </trkpt>
      <trkpt lat="43.81024" lon="7.08874">
        <ele>825</ele>
        <time>2013-12-01T08:25:13Z</time>
      </trkpt>
      <trkpt lat="43.81025" lon="7.08865">
        <ele>824</ele>
        <time>2013-12-01T08:25:20Z</time>
      </trkpt>
      <trkpt lat="43.81025" lon="7.08859">
        <ele>824</ele>
        <time>2013-12-01T08:25:27Z</time>
      </trkpt>
      <trkpt lat="43.81026" lon="7.08849">
        <ele>823</ele>
        <time>2013-12-01T08:25:36Z</time>
      </trkpt>
      <trkpt lat="43.81026" lon="7.08839">
        <ele>821</ele>
        <time>2013-12-01T08:25:44Z</time>
      </trkpt>
      <trkpt lat="43.81028" lon="7.08826">
        <ele>819</ele>
        <time>2013-12-01T08:26:03Z</time>
      </trkpt>
      <trkpt lat="43.8103" lon="7.0882">
        <ele>818</ele>
        <time>2013-12-01T08:26:12Z</time>
      </trkpt>
      <trkpt lat="43.81033" lon="7.08814">
        <ele>815</ele>
        <time>2013-12-01T08:26:19Z</time>
      </trkpt>
      <trkpt lat="43.81037" lon="7.08808">
        <ele>814</ele>
        <time>2013-12-01T08:26:26Z</time>
      </trkpt>
      <trkpt lat="43.81041" lon="7.08801">
        <ele>811</ele>
        <time>2013-12-01T08:26:57Z</time>
      </trkpt>
      <trkpt lat="43.81044" lon="7.08797">
        <ele>810</ele>
        <time>2013-12-01T08:27:05Z</time>
      </trkpt>
      <trkpt lat="43.81047" lon="7.08795">
        <ele>809</ele>
        <time>2013-12-01T08:27:13Z</time>
      </trkpt>
      <trkpt lat="43.81051" lon="7.08798">
        <ele>807</ele>
        <time>2013-12-01T08:27:21Z</time>
      </trkpt>
      <trkpt lat="43.81054" lon="7.08799">
        <ele>806</ele>
        <time>2013-12-01T08:27:28Z</time>
      </trkpt>
      <trkpt lat="43.81057" lon="7.08803">
        <ele>804</ele>
        <time>2013-12-01T08:27:37Z</time>
      </trkpt>
      <trkpt lat="43.8106" lon="7.08807">
        <ele>803</ele>
        <time>2013-12-01T08:27:47Z</time>
      </trkpt>
      <trkpt lat="43.81062" lon="7.08804">
        <ele>801</ele>
        <time>2013-12-01T08:27:58Z</time>
      </trkpt>
      <trkpt lat="43.81063" lon="7.08808">
        <ele>801</ele>
        <time>2013-12-01T08:28:05Z</time>
      </trkpt>
      <trkpt lat="43.81065" lon="7.08811">
        <ele>801</ele>
        <time>2013-12-01T08:28:14Z</time>
      </trkpt>
      <trkpt lat="43.81067" lon="7.08811">
        <ele>800</ele>
        <time>2013-12-01T08:28:20Z</time>
      </trkpt>
      <trkpt lat="43.81068" lon="7.08812">
        <ele>800</ele>
        <time>2013-12-01T08:28:22Z</time>
      </trkpt>
      <trkpt lat="43.81071" lon="7.0881">
        <ele>799</ele>
        <time>2013-12-01T08:28:41Z</time>
      </trkpt>
      <trkpt lat="43.81073" lon="7.08804">
        <ele>798</ele>
        <time>2013-12-01T08:28:49Z</time>
      </trkpt>
      <trkpt lat="43.81076" lon="7.08799">
        <ele>797</ele>
        <time>2013-12-01T08:28:57Z</time>
      </trkpt>
      <trkpt lat="43.81077" lon="7.0879">
        <ele>795</ele>
        <time>2013-12-01T08:29:06Z</time>
      </trkpt>
      <trkpt lat="43.8108" lon="7.08799">
        <ele>793</ele>
        <time>2013-12-01T08:29:41Z</time>
      </trkpt>
      <trkpt lat="43.81081" lon="7.08804">
        <ele>792</ele>
        <time>2013-12-01T08:29:49Z</time>
      </trkpt>
      <trkpt lat="43.81085" lon="7.08804">
        <ele>792</ele>
        <time>2013-12-01T08:29:56Z</time>
      </trkpt>
      <trkpt lat="43.81086" lon="7.08797">
        <ele>791</ele>
        <time>2013-12-01T08:30:04Z</time>
      </trkpt>
      <trkpt lat="43.81089" lon="7.08788">
        <ele>790</ele>
        <time>2013-12-01T08:30:12Z</time>
      </trkpt>
      <trkpt lat="43.81088" lon="7.08777">
        <ele>788</ele>
        <time>2013-12-01T08:30:22Z</time>
      </trkpt>
      <trkpt lat="43.81086" lon="7.08773">
        <ele>787</ele>
        <time>2013-12-01T08:30:28Z</time>
      </trkpt>
      <trkpt lat="43.81086" lon="7.08767">
        <ele>787</ele>
        <time>2013-12-01T08:30:38Z</time>
      </trkpt>
      <trkpt lat="43.81084" lon="7.08761">
        <ele>786</ele>
        <time>2013-12-01T08:30:58Z</time>
      </trkpt>
      <trkpt lat="43.81086" lon="7.08757">
        <ele>786</ele>
        <time>2013-12-01T08:31:06Z</time>
      </trkpt>
      <trkpt lat="43.81093" lon="7.08754">
        <ele>787</ele>
        <time>2013-12-01T08:31:15Z</time>
      </trkpt>
      <trkpt lat="43.81098" lon="7.08754">
        <ele>789</ele>
        <time>2013-12-01T08:31:24Z</time>
      </trkpt>
      <trkpt lat="43.81102" lon="7.08751">
        <ele>789</ele>
        <time>2013-12-01T08:31:31Z</time>
      </trkpt>
      <trkpt lat="43.81107" lon="7.08747">
        <ele>789</ele>
        <time>2013-12-01T08:31:40Z</time>
      </trkpt>
      <trkpt lat="43.81114" lon="7.08742">
        <ele>789</ele>
        <time>2013-12-01T08:31:50Z</time>
      </trkpt>
      <trkpt lat="43.8112" lon="7.08736">
        <ele>789</ele>
        <time>2013-12-01T08:31:59Z</time>
      </trkpt>
      <trkpt lat="43.81122" lon="7.08732">
        <ele>789</ele>
        <time>2013-12-01T08:32:06Z</time>
      </trkpt>
      <trkpt lat="43.81123" lon="7.0873">
        <ele>791</ele>
        <time>2013-12-01T08:40:33Z</time>
      </trkpt>
      <trkpt lat="43.81125" lon="7.08726">
        <ele>792</ele>
        <time>2013-12-01T08:40:53Z</time>
      </trkpt>
      <trkpt lat="43.81128" lon="7.08713">
        <ele>792</ele>
        <time>2013-12-01T08:41:11Z</time>
      </trkpt>
      <trkpt lat="43.81131" lon="7.08708">
        <ele>791</ele>
        <time>2013-12-01T08:42:07Z</time>
      </trkpt>
      <trkpt lat="43.81134" lon="7.087">
        <ele>790</ele>
        <time>2013-12-01T08:42:16Z</time>
      </trkpt>
      <trkpt lat="43.81137" lon="7.08695">
        <ele>790</ele>
        <time>2013-12-01T08:42:33Z</time>
      </trkpt>
      <trkpt lat="43.81138" lon="7.0869">
        <ele>789</ele>
        <time>2013-12-01T08:42:59Z</time>
      </trkpt>
      <trkpt lat="43.8114" lon="7.08688">
        <ele>788</ele>
        <time>2013-12-01T08:43:10Z</time>
      </trkpt>
      <trkpt lat="43.81142" lon="7.08681">
        <ele>785</ele>
        <time>2013-12-01T08:43:18Z</time>
      </trkpt>
      <trkpt lat="43.81142" lon="7.08677">
        <ele>785</ele>
        <time>2013-12-01T08:43:25Z</time>
      </trkpt>
      <trkpt lat="43.81144" lon="7.0867">
        <ele>785</ele>
        <time>2013-12-01T08:43:33Z</time>
      </trkpt>
      <trkpt lat="43.81144" lon="7.08666">
        <ele>783</ele>
        <time>2013-12-01T08:43:37Z</time>
      </trkpt>
      <trkpt lat="43.81141" lon="7.08655">
        <ele>783</ele>
        <time>2013-12-01T08:43:47Z</time>
      </trkpt>
      <trkpt lat="43.8114" lon="7.08647">
        <ele>782</ele>
        <time>2013-12-01T08:43:55Z</time>
      </trkpt>
      <trkpt lat="43.81137" lon="7.0864">
        <ele>782</ele>
        <time>2013-12-01T08:44:02Z</time>
      </trkpt>
      <trkpt lat="43.81135" lon="7.08632">
        <ele>782</ele>
        <time>2013-12-01T08:44:11Z</time>
      </trkpt>
      <trkpt lat="43.81135" lon="7.08622">
        <ele>782</ele>
        <time>2013-12-01T08:44:20Z</time>
      </trkpt>
      <trkpt lat="43.81138" lon="7.08608">
        <ele>782</ele>
        <time>2013-12-01T08:44:32Z</time>
      </trkpt>
      <trkpt lat="43.81139" lon="7.08596">
        <ele>782</ele>
        <time>2013-12-01T08:44:42Z</time>
      </trkpt>
      <trkpt lat="43.8114" lon="7.08589">
        <ele>784</ele>
        <time>2013-12-01T08:44:50Z</time>
      </trkpt>
      <trkpt lat="43.81141" lon="7.08582">
        <ele>784</ele>
        <time>2013-12-01T08:44:57Z</time>
      </trkpt>
      <trkpt lat="43.81143" lon="7.08578">
        <ele>785</ele>
        <time>2013-12-01T08:45:02Z</time>
      </trkpt>
      <trkpt lat="43.81148" lon="7.08566">
        <ele>784</ele>
        <time>2013-12-01T08:45:12Z</time>
      </trkpt>
      <trkpt lat="43.8115" lon="7.08556">
        <ele>785</ele>
        <time>2013-12-01T08:45:20Z</time>
      </trkpt>
      <trkpt lat="43.81151" lon="7.08546">
        <ele>785</ele>
        <time>2013-12-01T08:45:30Z</time>
      </trkpt>
      <trkpt lat="43.81151" lon="7.08539">
        <ele>786</ele>
        <time>2013-12-01T08:45:37Z</time>
      </trkpt>
      <trkpt lat="43.81152" lon="7.08533">
        <ele>785</ele>
        <time>2013-12-01T08:45:43Z</time>
      </trkpt>
      <trkpt lat="43.81155" lon="7.08524">
        <ele>785</ele>
        <time>2013-12-01T08:45:51Z</time>
      </trkpt>
      <trkpt lat="43.81157" lon="7.08514">
        <ele>786</ele>
        <time>2013-12-01T08:46:00Z</time>
      </trkpt>
      <trkpt lat="43.8116" lon="7.08509">
        <ele>786</ele>
        <time>2013-12-01T08:46:09Z</time>
      </trkpt>
      <trkpt lat="43.81161" lon="7.08499">
        <ele>786</ele>
        <time>2013-12-01T08:46:18Z</time>
      </trkpt>
      <trkpt lat="43.81162" lon="7.08487">
        <ele>787</ele>
        <time>2013-12-01T08:46:36Z</time>
      </trkpt>
      <trkpt lat="43.81164" lon="7.08474">
        <ele>787</ele>
        <time>2013-12-01T08:46:46Z</time>
      </trkpt>
      <trkpt lat="43.81167" lon="7.08459">
        <ele>788</ele>
        <time>2013-12-01T08:46:58Z</time>
      </trkpt>
      <trkpt lat="43.8117" lon="7.08446">
        <ele>790</ele>
        <time>2013-12-01T08:47:09Z</time>
      </trkpt>
      <trkpt lat="43.81175" lon="7.08435">
        <ele>790</ele>
        <time>2013-12-01T08:47:19Z</time>
      </trkpt>
      <trkpt lat="43.81179" lon="7.08425">
        <ele>791</ele>
        <time>2013-12-01T08:47:29Z</time>
      </trkpt>
      <trkpt lat="43.81181" lon="7.08422">
        <ele>791</ele>
        <time>2013-12-01T08:47:32Z</time>
      </trkpt>
      <trkpt lat="43.81189" lon="7.08413">
        <ele>791</ele>
        <time>2013-12-01T08:47:43Z</time>
      </trkpt>
      <trkpt lat="43.81191" lon="7.08403">
        <ele>791</ele>
        <time>2013-12-01T08:47:52Z</time>
      </trkpt>
      <trkpt lat="43.81192" lon="7.0839">
        <ele>792</ele>
        <time>2013-12-01T08:48:03Z</time>
      </trkpt>
      <trkpt lat="43.81194" lon="7.08379">
        <ele>792</ele>
        <time>2013-12-01T08:48:13Z</time>
      </trkpt>
      <trkpt lat="43.81194" lon="7.08368">
        <ele>793</ele>
        <time>2013-12-01T08:48:23Z</time>
      </trkpt>
      <trkpt lat="43.81195" lon="7.08358">
        <ele>794</ele>
        <time>2013-12-01T08:48:33Z</time>
      </trkpt>
      <trkpt lat="43.81195" lon="7.08346">
        <ele>795</ele>
        <time>2013-12-01T08:48:44Z</time>
      </trkpt>
      <trkpt lat="43.81195" lon="7.08336">
        <ele>796</ele>
        <time>2013-12-01T08:48:54Z</time>
      </trkpt>
      <trkpt lat="43.81196" lon="7.08326">
        <ele>797</ele>
        <time>2013-12-01T08:49:04Z</time>
      </trkpt>
      <trkpt lat="43.81199" lon="7.08324">
        <ele>797</ele>
        <time>2013-12-01T08:49:12Z</time>
      </trkpt>
      <trkpt lat="43.81204" lon="7.08325">
        <ele>796</ele>
        <time>2013-12-01T08:49:36Z</time>
      </trkpt>
      <trkpt lat="43.81208" lon="7.08324">
        <ele>795</ele>
        <time>2013-12-01T08:49:46Z</time>
      </trkpt>
      <trkpt lat="43.81213" lon="7.08322">
        <ele>794</ele>
        <time>2013-12-01T08:49:57Z</time>
      </trkpt>
      <trkpt lat="43.81214" lon="7.08316">
        <ele>795</ele>
        <time>2013-12-01T08:50:13Z</time>
      </trkpt>
      <trkpt lat="43.81216" lon="7.08312">
        <ele>795</ele>
        <time>2013-12-01T08:50:32Z</time>
      </trkpt>
      <trkpt lat="43.8122" lon="7.08311">
        <ele>795</ele>
        <time>2013-12-01T08:50:44Z</time>
      </trkpt>
      <trkpt lat="43.81222" lon="7.0831">
        <ele>796</ele>
        <time>2013-12-01T08:50:52Z</time>
      </trkpt>
      <trkpt lat="43.81224" lon="7.08306">
        <ele>798</ele>
        <time>2013-12-01T08:51:00Z</time>
      </trkpt>
      <trkpt lat="43.81226" lon="7.08301">
        <ele>798</ele>
        <time>2013-12-01T08:51:08Z</time>
      </trkpt>
      <trkpt lat="43.81228" lon="7.08293">
        <ele>799</ele>
        <time>2013-12-01T08:51:17Z</time>
      </trkpt>
      <trkpt lat="43.8123" lon="7.08285">
        <ele>800</ele>
        <time>2013-12-01T08:51:27Z</time>
      </trkpt>
      <trkpt lat="43.81232" lon="7.08279">
        <ele>802</ele>
        <time>2013-12-01T08:51:36Z</time>
      </trkpt>
      <trkpt lat="43.81233" lon="7.08272">
        <ele>803</ele>
        <time>2013-12-01T08:51:45Z</time>
      </trkpt>
      <trkpt lat="43.81234" lon="7.08264">
        <ele>804</ele>
        <time>2013-12-01T08:51:54Z</time>
      </trkpt>
      <trkpt lat="43.81235" lon="7.08257">
        <ele>805</ele>
        <time>2013-12-01T08:52:03Z</time>
      </trkpt>
      <trkpt lat="43.81236" lon="7.08248">
        <ele>807</ele>
        <time>2013-12-01T08:52:13Z</time>
      </trkpt>
      <trkpt lat="43.81238" lon="7.08239">
        <ele>809</ele>
        <time>2013-12-01T08:52:23Z</time>
      </trkpt>
      <trkpt lat="43.81239" lon="7.0823">
        <ele>810</ele>
        <time>2013-12-01T08:52:33Z</time>
      </trkpt>
      <trkpt lat="43.81239" lon="7.08223">
        <ele>811</ele>
        <time>2013-12-01T08:52:41Z</time>
      </trkpt>
      <trkpt lat="43.81239" lon="7.08217">
        <ele>811</ele>
        <time>2013-12-01T08:52:49Z</time>
      </trkpt>
      <trkpt lat="43.81239" lon="7.0821">
        <ele>812</ele>
        <time>2013-12-01T08:56:41Z</time>
      </trkpt>
      <trkpt lat="43.8124" lon="7.08205">
        <ele>813</ele>
        <time>2013-12-01T08:57:00Z</time>
      </trkpt>
      <trkpt lat="43.81241" lon="7.08199">
        <ele>814</ele>
        <time>2013-12-01T08:57:10Z</time>
      </trkpt>
      <trkpt lat="43.81243" lon="7.08197">
        <ele>817</ele>
        <time>2013-12-01T08:57:16Z</time>
      </trkpt>
      <trkpt lat="43.81245" lon="7.08202">
        <ele>817</ele>
        <time>2013-12-01T08:57:23Z</time>
      </trkpt>
      <trkpt lat="43.81247" lon="7.08211">
        <ele>818</ele>
        <time>2013-12-01T08:57:32Z</time>
      </trkpt>
      <trkpt lat="43.8125" lon="7.08221">
        <ele>819</ele>
        <time>2013-12-01T08:57:43Z</time>
      </trkpt>
      <trkpt lat="43.81254" lon="7.08231">
        <ele>819</ele>
        <time>2013-12-01T08:57:53Z</time>
      </trkpt>
      <trkpt lat="43.81256" lon="7.08241">
        <ele>821</ele>
        <time>2013-12-01T08:58:03Z</time>
      </trkpt>
      <trkpt lat="43.81259" lon="7.0825">
        <ele>821</ele>
        <time>2013-12-01T08:58:13Z</time>
      </trkpt>
      <trkpt lat="43.81262" lon="7.08248">
        <ele>823</ele>
        <time>2013-12-01T08:58:21Z</time>
      </trkpt>
      <trkpt lat="43.81265" lon="7.0824">
        <ele>824</ele>
        <time>2013-12-01T08:58:31Z</time>
      </trkpt>
      <trkpt lat="43.81266" lon="7.0823">
        <ele>825</ele>
        <time>2013-12-01T08:58:42Z</time>
      </trkpt>
      <trkpt lat="43.81269" lon="7.08223">
        <ele>826</ele>
        <time>2013-12-01T08:58:51Z</time>
      </trkpt>
      <trkpt lat="43.8127" lon="7.08214">
        <ele>827</ele>
        <time>2013-12-01T08:59:00Z</time>
      </trkpt>
      <trkpt lat="43.81272" lon="7.08206">
        <ele>829</ele>
        <time>2013-12-01T08:59:09Z</time>
      </trkpt>
      <trkpt lat="43.81274" lon="7.08197">
        <ele>831</ele>
        <time>2013-12-01T08:59:19Z</time>
      </trkpt>
      <trkpt lat="43.81276" lon="7.08188">
        <ele>832</ele>
        <time>2013-12-01T08:59:30Z</time>
      </trkpt>
      <trkpt lat="43.81279" lon="7.08182">
        <ele>834</ele>
        <time>2013-12-01T08:59:39Z</time>
      </trkpt>
      <trkpt lat="43.81279" lon="7.08175">
        <ele>834</ele>
        <time>2013-12-01T08:59:46Z</time>
      </trkpt>
      <trkpt lat="43.81281" lon="7.08164">
        <ele>835</ele>
        <time>2013-12-01T08:59:56Z</time>
      </trkpt>
      <trkpt lat="43.81283" lon="7.08156">
        <ele>836</ele>
        <time>2013-12-01T09:00:05Z</time>
      </trkpt>
      <trkpt lat="43.81284" lon="7.08149">
        <ele>837</ele>
        <time>2013-12-01T09:00:13Z</time>
      </trkpt>
      <trkpt lat="43.81288" lon="7.08135">
        <ele>840</ele>
        <time>2013-12-01T09:00:29Z</time>
      </trkpt>
      <trkpt lat="43.81291" lon="7.08126">
        <ele>840</ele>
        <time>2013-12-01T09:00:39Z</time>
      </trkpt>
      <trkpt lat="43.81293" lon="7.08117">
        <ele>841</ele>
        <time>2013-12-01T09:00:49Z</time>
      </trkpt>
      <trkpt lat="43.81294" lon="7.08109">
        <ele>842</ele>
        <time>2013-12-01T09:00:59Z</time>
      </trkpt>
      <trkpt lat="43.81296" lon="7.08098">
        <ele>844</ele>
        <time>2013-12-01T09:01:09Z</time>
      </trkpt>
      <trkpt lat="43.81298" lon="7.08092">
        <ele>845</ele>
        <time>2013-12-01T09:01:18Z</time>
      </trkpt>
      <trkpt lat="43.81299" lon="7.08084">
        <ele>846</ele>
        <time>2013-12-01T09:01:27Z</time>
      </trkpt>
      <trkpt lat="43.81301" lon="7.08077">
        <ele>848</ele>
        <time>2013-12-01T09:01:36Z</time>
      </trkpt>
      <trkpt lat="43.81303" lon="7.08068">
        <ele>848</ele>
        <time>2013-12-01T09:01:45Z</time>
      </trkpt>
      <trkpt lat="43.81305" lon="7.0806">
        <ele>849</ele>
        <time>2013-12-01T09:01:54Z</time>
      </trkpt>
      <trkpt lat="43.81307" lon="7.08052">
        <ele>850</ele>
        <time>2013-12-01T09:02:04Z</time>
      </trkpt>
      <trkpt lat="43.81308" lon="7.08045">
        <ele>851</ele>
        <time>2013-12-01T09:02:13Z</time>
      </trkpt>
      <trkpt lat="43.81311" lon="7.08037">
        <ele>853</ele>
        <time>2013-12-01T09:02:24Z</time>
      </trkpt>
      <trkpt lat="43.81313" lon="7.08031">
        <ele>854</ele>
        <time>2013-12-01T09:02:32Z</time>
      </trkpt>
      <trkpt lat="43.81315" lon="7.08024">
        <ele>855</ele>
        <time>2013-12-01T09:02:41Z</time>
      </trkpt>
      <trkpt lat="43.81316" lon="7.08018">
        <ele>855</ele>
        <time>2013-12-01T09:02:48Z</time>
      </trkpt>
      <trkpt lat="43.81317" lon="7.08012">
        <ele>856</ele>
        <time>2013-12-01T09:02:55Z</time>
      </trkpt>
      <trkpt lat="43.81319" lon="7.08005">
        <ele>857</ele>
        <time>2013-12-01T09:03:04Z</time>
      </trkpt>
      <trkpt lat="43.81321" lon="7.07999">
        <ele>858</ele>
        <time>2013-12-01T09:03:13Z</time>
      </trkpt>
      <trkpt lat="43.81324" lon="7.07992">
        <ele>859</ele>
        <time>2013-12-01T09:03:23Z</time>
      </trkpt>
      <trkpt lat="43.81326" lon="7.07985">
        <ele>861</ele>
        <time>2013-12-01T09:03:33Z</time>
      </trkpt>
      <trkpt lat="43.81328" lon="7.07977">
        <ele>861</ele>
        <time>2013-12-01T09:03:43Z</time>
      </trkpt>
      <trkpt lat="43.81331" lon="7.07971">
        <ele>863</ele>
        <time>2013-12-01T09:03:52Z</time>
      </trkpt>
      <trkpt lat="43.81333" lon="7.07964">
        <ele>864</ele>
        <time>2013-12-01T09:04:01Z</time>
      </trkpt>
      <trkpt lat="43.81336" lon="7.07957">
        <ele>864</ele>
        <time>2013-12-01T09:04:10Z</time>
      </trkpt>
      <trkpt lat="43.8134" lon="7.07958">
        <ele>866</ele>
        <time>2013-12-01T09:04:19Z</time>
      </trkpt>
      <trkpt lat="43.81341" lon="7.07967">
        <ele>867</ele>
        <time>2013-12-01T09:04:29Z</time>
      </trkpt>
      <trkpt lat="43.81342" lon="7.07978">
        <ele>868</ele>
        <time>2013-12-01T09:04:40Z</time>
      </trkpt>
      <trkpt lat="43.81343" lon="7.07989">
        <ele>870</ele>
        <time>2013-12-01T09:04:50Z</time>
      </trkpt>
      <trkpt lat="43.81345" lon="7.07999">
        <ele>870</ele>
        <time>2013-12-01T09:05:00Z</time>
      </trkpt>
      <trkpt lat="43.81346" lon="7.08009">
        <ele>871</ele>
        <time>2013-12-01T09:05:10Z</time>
      </trkpt>
      <trkpt lat="43.81347" lon="7.0802">
        <ele>872</ele>
        <time>2013-12-01T09:05:20Z</time>
      </trkpt>
      <trkpt lat="43.81349" lon="7.08029">
        <ele>873</ele>
        <time>2013-12-01T09:05:30Z</time>
      </trkpt>
      <trkpt lat="43.81352" lon="7.08032">
        <ele>873</ele>
        <time>2013-12-01T09:05:40Z</time>
      </trkpt>
      <trkpt lat="43.81354" lon="7.08024">
        <ele>876</ele>
        <time>2013-12-01T09:05:50Z</time>
      </trkpt>
      <trkpt lat="43.81357" lon="7.08015">
        <ele>877</ele>
        <time>2013-12-01T09:06:00Z</time>
      </trkpt>
      <trkpt lat="43.81359" lon="7.08007">
        <ele>879</ele>
        <time>2013-12-01T09:06:10Z</time>
      </trkpt>
      <trkpt lat="43.81361" lon="7.08">
        <ele>880</ele>
        <time>2013-12-01T09:06:19Z</time>
      </trkpt>
      <trkpt lat="43.81365" lon="7.07992">
        <ele>883</ele>
        <time>2013-12-01T09:06:30Z</time>
      </trkpt>
      <trkpt lat="43.81368" lon="7.07984">
        <ele>884</ele>
        <time>2013-12-01T09:06:41Z</time>
      </trkpt>
      <trkpt lat="43.81373" lon="7.07973">
        <ele>885</ele>
        <time>2013-12-01T09:06:53Z</time>
      </trkpt>
      <trkpt lat="43.81378" lon="7.07965">
        <ele>886</ele>
        <time>2013-12-01T09:07:05Z</time>
      </trkpt>
      <trkpt lat="43.81383" lon="7.07963">
        <ele>888</ele>
        <time>2013-12-01T09:07:14Z</time>
      </trkpt>
      <trkpt lat="43.81382" lon="7.07972">
        <ele>889</ele>
        <time>2013-12-01T09:07:23Z</time>
      </trkpt>
      <trkpt lat="43.81382" lon="7.07981">
        <ele>890</ele>
        <time>2013-12-01T09:07:33Z</time>
      </trkpt>
      <trkpt lat="43.81382" lon="7.07992">
        <ele>891</ele>
        <time>2013-12-01T09:07:43Z</time>
      </trkpt>
      <trkpt lat="43.81384" lon="7.08001">
        <ele>893</ele>
        <time>2013-12-01T09:07:53Z</time>
      </trkpt>
      <trkpt lat="43.81385" lon="7.08012">
        <ele>894</ele>
        <time>2013-12-01T09:08:04Z</time>
      </trkpt>
      <trkpt lat="43.81386" lon="7.08024">
        <ele>895</ele>
        <time>2013-12-01T09:08:15Z</time>
      </trkpt>
      <trkpt lat="43.81388" lon="7.08033">
        <ele>896</ele>
        <time>2013-12-01T09:08:25Z</time>
      </trkpt>
      <trkpt lat="43.8139" lon="7.0804">
        <ele>897</ele>
        <time>2013-12-01T09:08:34Z</time>
      </trkpt>
      <trkpt lat="43.8139" lon="7.0804">
        <ele>896</ele>
        <time>2013-12-01T09:08:47Z</time>
      </trkpt>
      <trkpt lat="43.8139" lon="7.08045">
        <ele>898</ele>
        <time>2013-12-01T09:09:02Z</time>
      </trkpt>
      <trkpt lat="43.81392" lon="7.08059">
        <ele>898</ele>
        <time>2013-12-01T09:09:13Z</time>
      </trkpt>
      <trkpt lat="43.81394" lon="7.08068">
        <ele>901</ele>
        <time>2013-12-01T09:09:23Z</time>
      </trkpt>
      <trkpt lat="43.81394" lon="7.0807">
        <ele>900</ele>
        <time>2013-12-01T09:09:29Z</time>
      </trkpt>
      <trkpt lat="43.81395" lon="7.08074">
        <ele>901</ele>
        <time>2013-12-01T09:09:41Z</time>
      </trkpt>
      <trkpt lat="43.81397" lon="7.08088">
        <ele>902</ele>
        <time>2013-12-01T09:09:52Z</time>
      </trkpt>
      <trkpt lat="43.814" lon="7.08098">
        <ele>903</ele>
        <time>2013-12-01T09:10:02Z</time>
      </trkpt>
      <trkpt lat="43.814" lon="7.08106">
        <ele>904</ele>
        <time>2013-12-01T09:10:11Z</time>
      </trkpt>
      <trkpt lat="43.81405" lon="7.08121">
        <ele>906</ele>
        <time>2013-12-01T09:10:23Z</time>
      </trkpt>
      <trkpt lat="43.81407" lon="7.08131">
        <ele>907</ele>
        <time>2013-12-01T09:10:32Z</time>
      </trkpt>
      <trkpt lat="43.81408" lon="7.08133">
        <ele>908</ele>
        <time>2013-12-01T09:10:40Z</time>
      </trkpt>
      <trkpt lat="43.8141" lon="7.08143">
        <ele>909</ele>
        <time>2013-12-01T09:10:49Z</time>
      </trkpt>
      <trkpt lat="43.81415" lon="7.08146">
        <ele>910</ele>
        <time>2013-12-01T09:10:57Z</time>
      </trkpt>
      <trkpt lat="43.81417" lon="7.08134">
        <ele>912</ele>
        <time>2013-12-01T09:11:07Z</time>
      </trkpt>
      <trkpt lat="43.8142" lon="7.08122">
        <ele>913</ele>
        <time>2013-12-01T09:11:16Z</time>
      </trkpt>
      <trkpt lat="43.81423" lon="7.08109">
        <ele>915</ele>
        <time>2013-12-01T09:11:27Z</time>
      </trkpt>
      <trkpt lat="43.81426" lon="7.08096">
        <ele>917</ele>
        <time>2013-12-01T09:11:39Z</time>
      </trkpt>
      <trkpt lat="43.81429" lon="7.08084">
        <ele>919</ele>
        <time>2013-12-01T09:11:51Z</time>
      </trkpt>
      <trkpt lat="43.81431" lon="7.08074">
        <ele>920</ele>
        <time>2013-12-01T09:12:00Z</time>
      </trkpt>
      <trkpt lat="43.81433" lon="7.08065">
        <ele>922</ele>
        <time>2013-12-01T09:12:10Z</time>
      </trkpt>
      <trkpt lat="43.81436" lon="7.08058">
        <ele>924</ele>
        <time>2013-12-01T09:12:19Z</time>
      </trkpt>
      <trkpt lat="43.81439" lon="7.08047">
        <ele>926</ele>
        <time>2013-12-01T09:12:30Z</time>
      </trkpt>
      <trkpt lat="43.81442" lon="7.08039">
        <ele>927</ele>
        <time>2013-12-01T09:12:40Z</time>
      </trkpt>
      <trkpt lat="43.81445" lon="7.08032">
        <ele>927</ele>
        <time>2013-12-01T09:12:50Z</time>
      </trkpt>
      <trkpt lat="43.81447" lon="7.08026">
        <ele>929</ele>
        <time>2013-12-01T09:13:00Z</time>
      </trkpt>
      <trkpt lat="43.81451" lon="7.0802">
        <ele>930</ele>
        <time>2013-12-01T09:13:09Z</time>
      </trkpt>
      <trkpt lat="43.81454" lon="7.08013">
        <ele>931</ele>
        <time>2013-12-01T09:13:18Z</time>
      </trkpt>
      <trkpt lat="43.81458" lon="7.08007">
        <ele>932</ele>
        <time>2013-12-01T09:13:27Z</time>
      </trkpt>
      <trkpt lat="43.81462" lon="7.08001">
        <ele>933</ele>
        <time>2013-12-01T09:13:37Z</time>
      </trkpt>
      <trkpt lat="43.81465" lon="7.07996">
        <ele>934</ele>
        <time>2013-12-01T09:13:46Z</time>
      </trkpt>
      <trkpt lat="43.81469" lon="7.0799">
        <ele>936</ele>
        <time>2013-12-01T09:13:56Z</time>
      </trkpt>
      <trkpt lat="43.81474" lon="7.07984">
        <ele>936</ele>
        <time>2013-12-01T09:14:05Z</time>
      </trkpt>
      <trkpt lat="43.81479" lon="7.0798">
        <ele>936</ele>
        <time>2013-12-01T09:14:14Z</time>
      </trkpt>
      <trkpt lat="43.81484" lon="7.07975">
        <ele>937</ele>
        <time>2013-12-01T09:14:24Z</time>
      </trkpt>
      <trkpt lat="43.8149" lon="7.07969">
        <ele>937</ele>
        <time>2013-12-01T09:14:35Z</time>
      </trkpt>
      <trkpt lat="43.81495" lon="7.07965">
        <ele>938</ele>
        <time>2013-12-01T09:14:45Z</time>
      </trkpt>
      <trkpt lat="43.815" lon="7.07962">
        <ele>939</ele>
        <time>2013-12-01T09:14:54Z</time>
      </trkpt>
      <trkpt lat="43.81506" lon="7.0796">
        <ele>940</ele>
        <time>2013-12-01T09:15:03Z</time>
      </trkpt>
      <trkpt lat="43.81513" lon="7.07957">
        <ele>941</ele>
        <time>2013-12-01T09:15:14Z</time>
      </trkpt>
      <trkpt lat="43.8152" lon="7.07954">
        <ele>942</ele>
        <time>2013-12-01T09:15:24Z</time>
      </trkpt>
      <trkpt lat="43.81526" lon="7.07952">
        <ele>943</ele>
        <time>2013-12-01T09:15:35Z</time>
      </trkpt>
      <trkpt lat="43.81532" lon="7.07949">
        <ele>945</ele>
        <time>2013-12-01T09:15:45Z</time>
      </trkpt>
      <trkpt lat="43.81537" lon="7.07947">
        <ele>945</ele>
        <time>2013-12-01T09:15:54Z</time>
      </trkpt>
      <trkpt lat="43.81543" lon="7.07944">
        <ele>946</ele>
        <time>2013-12-01T09:16:05Z</time>
      </trkpt>
      <trkpt lat="43.81549" lon="7.07941">
        <ele>947</ele>
        <time>2013-12-01T09:16:15Z</time>
      </trkpt>
      <trkpt lat="43.81553" lon="7.07939">
        <ele>948</ele>
        <time>2013-12-01T09:16:24Z</time>
      </trkpt>
      <trkpt lat="43.8156" lon="7.07933">
        <ele>950</ele>
        <time>2013-12-01T09:26:10Z</time>
      </trkpt>
      <trkpt lat="43.81562" lon="7.07929">
        <ele>950</ele>
        <time>2013-12-01T09:26:16Z</time>
      </trkpt>
      <trkpt lat="43.81566" lon="7.07923">
        <ele>951</ele>
        <time>2013-12-01T09:26:25Z</time>
      </trkpt>
      <trkpt lat="43.8157" lon="7.07915">
        <ele>951</ele>
        <time>2013-12-01T09:26:34Z</time>
      </trkpt>
      <trkpt lat="43.81574" lon="7.07907">
        <ele>952</ele>
        <time>2013-12-01T09:26:43Z</time>
      </trkpt>
      <trkpt lat="43.81578" lon="7.07898">
        <ele>953</ele>
        <time>2013-12-01T09:26:52Z</time>
      </trkpt>
      <trkpt lat="43.81582" lon="7.07887">
        <ele>953</ele>
        <time>2013-12-01T09:27:04Z</time>
      </trkpt>
      <trkpt lat="43.81584" lon="7.07882">
        <ele>954</ele>
        <time>2013-12-01T09:27:13Z</time>
      </trkpt>
      <trkpt lat="43.81586" lon="7.07875">
        <ele>954</ele>
        <time>2013-12-01T09:27:26Z</time>
      </trkpt>
      <trkpt lat="43.81589" lon="7.07862">
        <ele>955</ele>
        <time>2013-12-01T09:27:38Z</time>
      </trkpt>
      <trkpt lat="43.81591" lon="7.07853">
        <ele>956</ele>
        <time>2013-12-01T09:27:47Z</time>
      </trkpt>
      <trkpt lat="43.81593" lon="7.07844">
        <ele>957</ele>
        <time>2013-12-01T09:27:56Z</time>
      </trkpt>
      <trkpt lat="43.81596" lon="7.07834">
        <ele>959</ele>
        <time>2013-12-01T09:28:05Z</time>
      </trkpt>
      <trkpt lat="43.81599" lon="7.07823">
        <ele>960</ele>
        <time>2013-12-01T09:28:15Z</time>
      </trkpt>
      <trkpt lat="43.81601" lon="7.07812">
        <ele>960</ele>
        <time>2013-12-01T09:28:25Z</time>
      </trkpt>
      <trkpt lat="43.81604" lon="7.07802">
        <ele>961</ele>
        <time>2013-12-01T09:28:35Z</time>
      </trkpt>
      <trkpt lat="43.81607" lon="7.07789">
        <ele>962</ele>
        <time>2013-12-01T09:28:47Z</time>
      </trkpt>
      <trkpt lat="43.81611" lon="7.07778">
        <ele>962</ele>
        <time>2013-12-01T09:28:57Z</time>
      </trkpt>
      <trkpt lat="43.81614" lon="7.07769">
        <ele>963</ele>
        <time>2013-12-01T09:29:06Z</time>
      </trkpt>
      <trkpt lat="43.81616" lon="7.07764">
        <ele>964</ele>
        <time>2013-12-01T09:29:10Z</time>
      </trkpt>
      <trkpt lat="43.8162" lon="7.07749">
        <ele>964</ele>
        <time>2013-12-01T09:29:22Z</time>
      </trkpt>
      <trkpt lat="43.81622" lon="7.07733">
        <ele>964</ele>
        <time>2013-12-01T09:29:34Z</time>
      </trkpt>
      <trkpt lat="43.81624" lon="7.07717">
        <ele>964</ele>
        <time>2013-12-01T09:29:46Z</time>
      </trkpt>
      <trkpt lat="43.81625" lon="7.07708">
        <ele>965</ele>
        <time>2013-12-01T09:29:53Z</time>
      </trkpt>
      <trkpt lat="43.81625" lon="7.07693">
        <ele>966</ele>
        <time>2013-12-01T09:30:05Z</time>
      </trkpt>
      <trkpt lat="43.81623" lon="7.07679">
        <ele>968</ele>
        <time>2013-12-01T09:30:17Z</time>
      </trkpt>
      <trkpt lat="43.81619" lon="7.07668">
        <ele>969</ele>
        <time>2013-12-01T09:30:29Z</time>
      </trkpt>
      <trkpt lat="43.81617" lon="7.07657">
        <ele>970</ele>
        <time>2013-12-01T09:30:40Z</time>
      </trkpt>
      <trkpt lat="43.81616" lon="7.07646">
        <ele>971</ele>
        <time>2013-12-01T09:30:51Z</time>
      </trkpt>
      <trkpt lat="43.81616" lon="7.0764">
        <ele>972</ele>
        <time>2013-12-01T09:30:59Z</time>
      </trkpt>
      <trkpt lat="43.81617" lon="7.0763">
        <ele>973</ele>
        <time>2013-12-01T09:31:08Z</time>
      </trkpt>
      <trkpt lat="43.81618" lon="7.07619">
        <ele>973</ele>
        <time>2013-12-01T09:31:18Z</time>
      </trkpt>
      <trkpt lat="43.81617" lon="7.07609">
        <ele>975</ele>
        <time>2013-12-01T09:31:28Z</time>
      </trkpt>
      <trkpt lat="43.81616" lon="7.07598">
        <ele>976</ele>
        <time>2013-12-01T09:31:38Z</time>
      </trkpt>
      <trkpt lat="43.81616" lon="7.07587">
        <ele>978</ele>
        <time>2013-12-01T09:31:48Z</time>
      </trkpt>
      <trkpt lat="43.81617" lon="7.07575">
        <ele>979</ele>
        <time>2013-12-01T09:31:58Z</time>
      </trkpt>
      <trkpt lat="43.8162" lon="7.07561">
        <ele>980</ele>
        <time>2013-12-01T09:32:10Z</time>
      </trkpt>
      <trkpt lat="43.81622" lon="7.07549">
        <ele>981</ele>
        <time>2013-12-01T09:32:20Z</time>
      </trkpt>
      <trkpt lat="43.81624" lon="7.07532">
        <ele>981</ele>
        <time>2013-12-01T09:32:33Z</time>
      </trkpt>
      <trkpt lat="43.81624" lon="7.07516">
        <ele>982</ele>
        <time>2013-12-01T09:32:46Z</time>
      </trkpt>
      <trkpt lat="43.81624" lon="7.07502">
        <ele>982</ele>
        <time>2013-12-01T09:32:58Z</time>
      </trkpt>
      <trkpt lat="43.81624" lon="7.07494">
        <ele>983</ele>
        <time>2013-12-01T09:33:06Z</time>
      </trkpt>
      <trkpt lat="43.81625" lon="7.07477">
        <ele>984</ele>
        <time>2013-12-01T09:33:19Z</time>
      </trkpt>
      <trkpt lat="43.81625" lon="7.07462">
        <ele>984</ele>
        <time>2013-12-01T09:33:31Z</time>
      </trkpt>
      <trkpt lat="43.81626" lon="7.07448">
        <ele>985</ele>
        <time>2013-12-01T09:33:41Z</time>
      </trkpt>
      <trkpt lat="43.81628" lon="7.07428">
        <ele>985</ele>
        <time>2013-12-01T09:33:55Z</time>
      </trkpt>
      <trkpt lat="43.81631" lon="7.07411">
        <ele>985</ele>
        <time>2013-12-01T09:34:07Z</time>
      </trkpt>
      <trkpt lat="43.81634" lon="7.07393">
        <ele>984</ele>
        <time>2013-12-01T09:34:21Z</time>
      </trkpt>
      <trkpt lat="43.81634" lon="7.07379">
        <ele>984</ele>
        <time>2013-12-01T09:34:32Z</time>
      </trkpt>
      <trkpt lat="43.81631" lon="7.07366">
        <ele>985</ele>
        <time>2013-12-01T09:34:42Z</time>
      </trkpt>
      <trkpt lat="43.81629" lon="7.07354">
        <ele>987</ele>
        <time>2013-12-01T09:34:53Z</time>
      </trkpt>
      <trkpt lat="43.81628" lon="7.0734">
        <ele>987</ele>
        <time>2013-12-01T09:35:05Z</time>
      </trkpt>
      <trkpt lat="43.8163" lon="7.07327">
        <ele>988</ele>
        <time>2013-12-01T09:35:17Z</time>
      </trkpt>
      <trkpt lat="43.81633" lon="7.07315">
        <ele>989</ele>
        <time>2013-12-01T09:35:28Z</time>
      </trkpt>
      <trkpt lat="43.81637" lon="7.07305">
        <ele>989</ele>
        <time>2013-12-01T09:35:38Z</time>
      </trkpt>
      <trkpt lat="43.81641" lon="7.07295">
        <ele>990</ele>
        <time>2013-12-01T09:35:48Z</time>
      </trkpt>
      <trkpt lat="43.81645" lon="7.07286">
        <ele>992</ele>
        <time>2013-12-01T09:35:58Z</time>
      </trkpt>
      <trkpt lat="43.8165" lon="7.07275">
        <ele>993</ele>
        <time>2013-12-01T09:36:10Z</time>
      </trkpt>
      <trkpt lat="43.81655" lon="7.07264">
        <ele>994</ele>
        <time>2013-12-01T09:36:22Z</time>
      </trkpt>
      <trkpt lat="43.81659" lon="7.07255">
        <ele>995</ele>
        <time>2013-12-01T09:36:32Z</time>
      </trkpt>
      <trkpt lat="43.81665" lon="7.07244">
        <ele>996</ele>
        <time>2013-12-01T09:36:44Z</time>
      </trkpt>
      <trkpt lat="43.8167" lon="7.07233">
        <ele>998</ele>
        <time>2013-12-01T09:36:56Z</time>
      </trkpt>
      <trkpt lat="43.81675" lon="7.07222">
        <ele>999</ele>
        <time>2013-12-01T09:37:08Z</time>
      </trkpt>
      <trkpt lat="43.81678" lon="7.07213">
        <ele>1000</ele>
        <time>2013-12-01T09:37:17Z</time>
      </trkpt>
      <trkpt lat="43.81683" lon="7.07203">
        <ele>1001</ele>
        <time>2013-12-01T09:37:28Z</time>
      </trkpt>
      <trkpt lat="43.81687" lon="7.07194">
        <ele>1002</ele>
        <time>2013-12-01T09:37:38Z</time>
      </trkpt>
      <trkpt lat="43.81692" lon="7.07182">
        <ele>1003</ele>
        <time>2013-12-01T09:37:50Z</time>
      </trkpt>
      <trkpt lat="43.81697" lon="7.07171">
        <ele>1003</ele>
        <time>2013-12-01T09:38:01Z</time>
      </trkpt>
      <trkpt lat="43.81702" lon="7.07159">
        <ele>1005</ele>
        <time>2013-12-01T09:38:13Z</time>
      </trkpt>
      <trkpt lat="43.81707" lon="7.07149">
        <ele>1005</ele>
        <time>2013-12-01T09:38:24Z</time>
      </trkpt>
      <trkpt lat="43.81712" lon="7.07139">
        <ele>1006</ele>
        <time>2013-12-01T09:38:35Z</time>
      </trkpt>
      <trkpt lat="43.81715" lon="7.0713">
        <ele>1007</ele>
        <time>2013-12-01T09:38:45Z</time>
      </trkpt>
      <trkpt lat="43.81721" lon="7.07118">
        <ele>1008</ele>
        <time>2013-12-01T09:38:58Z</time>
      </trkpt>
      <trkpt lat="43.81725" lon="7.07109">
        <ele>1008</ele>
        <time>2013-12-01T09:39:07Z</time>
      </trkpt>
      <trkpt lat="43.81729" lon="7.071">
        <ele>1009</ele>
        <time>2013-12-01T09:39:17Z</time>
      </trkpt>
      <trkpt lat="43.81733" lon="7.07091">
        <ele>1010</ele>
        <time>2013-12-01T09:39:27Z</time>
      </trkpt>
      <trkpt lat="43.81738" lon="7.07081">
        <ele>1011</ele>
        <time>2013-12-01T09:39:39Z</time>
      </trkpt>
      <trkpt lat="43.81742" lon="7.07071">
        <ele>1012</ele>
        <time>2013-12-01T09:39:50Z</time>
      </trkpt>
      <trkpt lat="43.81746" lon="7.07063">
        <ele>1013</ele>
        <time>2013-12-01T09:40:00Z</time>
      </trkpt>
      <trkpt lat="43.8175" lon="7.07054">
        <ele>1014</ele>
        <time>2013-12-01T09:40:09Z</time>
      </trkpt>
      <trkpt lat="43.81753" lon="7.07047">
        <ele>1016</ele>
        <time>2013-12-01T09:40:18Z</time>
      </trkpt>
      <trkpt lat="43.81757" lon="7.07039">
        <ele>1017</ele>
        <time>2013-12-01T09:40:28Z</time>
      </trkpt>
      <trkpt lat="43.8176" lon="7.07031">
        <ele>1018</ele>
        <time>2013-12-01T09:40:38Z</time>
      </trkpt>
      <trkpt lat="43.81764" lon="7.07023">
        <ele>1020</ele>
        <time>2013-12-01T09:40:48Z</time>
      </trkpt>
      <trkpt lat="43.81767" lon="7.07015">
        <ele>1020</ele>
        <time>2013-12-01T09:40:57Z</time>
      </trkpt>
      <trkpt lat="43.81771" lon="7.07007">
        <ele>1021</ele>
        <time>2013-12-01T09:41:07Z</time>
      </trkpt>
      <trkpt lat="43.81775" lon="7.06997">
        <ele>1023</ele>
        <time>2013-12-01T09:41:19Z</time>
      </trkpt>
      <trkpt lat="43.8178" lon="7.06988">
        <ele>1023</ele>
        <time>2013-12-01T09:41:30Z</time>
      </trkpt>
      <trkpt lat="43.81785" lon="7.0698">
        <ele>1024</ele>
        <time>2013-12-01T09:41:41Z</time>
      </trkpt>
      <trkpt lat="43.81789" lon="7.06973">
        <ele>1024</ele>
        <time>2013-12-01T09:41:50Z</time>
      </trkpt>
      <trkpt lat="43.81794" lon="7.06964">
        <ele>1026</ele>
        <time>2013-12-01T09:42:01Z</time>
      </trkpt>
      <trkpt lat="43.81799" lon="7.06957">
        <ele>1027</ele>
        <time>2013-12-01T09:42:11Z</time>
      </trkpt>
      <trkpt lat="43.81805" lon="7.06948">
        <ele>1029</ele>
        <time>2013-12-01T09:42:22Z</time>
      </trkpt>
      <trkpt lat="43.81811" lon="7.06941">
        <ele>1030</ele>
        <time>2013-12-01T09:42:33Z</time>
      </trkpt>
      <trkpt lat="43.81816" lon="7.06934">
        <ele>1031</ele>
        <time>2013-12-01T09:42:43Z</time>
      </trkpt>
      <trkpt lat="43.81821" lon="7.06926">
        <ele>1032</ele>
        <time>2013-12-01T09:42:54Z</time>
      </trkpt>
      <trkpt lat="43.81826" lon="7.06918">
        <ele>1034</ele>
        <time>2013-12-01T09:43:04Z</time>
      </trkpt>
      <trkpt lat="43.81832" lon="7.06911">
        <ele>1035</ele>
        <time>2013-12-01T09:43:14Z</time>
      </trkpt>
      <trkpt lat="43.81838" lon="7.06903">
        <ele>1035</ele>
        <time>2013-12-01T09:43:25Z</time>
      </trkpt>
      <trkpt lat="43.81843" lon="7.06894">
        <ele>1036</ele>
        <time>2013-12-01T09:43:37Z</time>
      </trkpt>
      <trkpt lat="43.81848" lon="7.06886">
        <ele>1037</ele>
        <time>2013-12-01T09:43:48Z</time>
      </trkpt>
      <trkpt lat="43.81853" lon="7.0688">
        <ele>1039</ele>
        <time>2013-12-01T09:43:57Z</time>
      </trkpt>
      <trkpt lat="43.81859" lon="7.06874">
        <ele>1040</ele>
        <time>2013-12-01T09:44:07Z</time>
      </trkpt>
      <trkpt lat="43.81864" lon="7.06868">
        <ele>1040</ele>
        <time>2013-12-01T09:44:17Z</time>
      </trkpt>
      <trkpt lat="43.81869" lon="7.0686">
        <ele>1041</ele>
        <time>2013-12-01T09:44:28Z</time>
      </trkpt>
      <trkpt lat="43.81875" lon="7.06851">
        <ele>1043</ele>
        <time>2013-12-01T09:44:39Z</time>
      </trkpt>
      <trkpt lat="43.81879" lon="7.06844">
        <ele>1044</ele>
        <time>2013-12-01T09:44:49Z</time>
      </trkpt>
      <trkpt lat="43.81882" lon="7.06834">
        <ele>1046</ele>
        <time>2013-12-01T09:44:59Z</time>
      </trkpt>
      <trkpt lat="43.81883" lon="7.06823">
        <ele>1047</ele>
        <time>2013-12-01T09:45:10Z</time>
      </trkpt>
      <trkpt lat="43.81885" lon="7.06812">
        <ele>1048</ele>
        <time>2013-12-01T09:45:21Z</time>
      </trkpt>
      <trkpt lat="43.81886" lon="7.06801">
        <ele>1051</ele>
        <time>2013-12-01T09:45:32Z</time>
      </trkpt>
      <trkpt lat="43.81888" lon="7.06791">
        <ele>1052</ele>
        <time>2013-12-01T09:45:43Z</time>
      </trkpt>
      <trkpt lat="43.8189" lon="7.06783">
        <ele>1053</ele>
        <time>2013-12-01T09:45:52Z</time>
      </trkpt>
      <trkpt lat="43.81892" lon="7.06771">
        <ele>1055</ele>
        <time>2013-12-01T09:46:04Z</time>
      </trkpt>
      <trkpt lat="43.81894" lon="7.0676">
        <ele>1056</ele>
        <time>2013-12-01T09:46:15Z</time>
      </trkpt>
      <trkpt lat="43.81896" lon="7.06752">
        <ele>1056</ele>
        <time>2013-12-01T09:46:24Z</time>
      </trkpt>
      <trkpt lat="43.81899" lon="7.06741">
        <ele>1058</ele>
        <time>2013-12-01T09:46:35Z</time>
      </trkpt>
      <trkpt lat="43.819" lon="7.06732">
        <ele>1059</ele>
        <time>2013-12-01T09:46:45Z</time>
      </trkpt>
      <trkpt lat="43.81902" lon="7.06721">
        <ele>1060</ele>
        <time>2013-12-01T09:46:57Z</time>
      </trkpt>
      <trkpt lat="43.81904" lon="7.06711">
        <ele>1061</ele>
        <time>2013-12-01T09:47:08Z</time>
      </trkpt>
      <trkpt lat="43.81906" lon="7.067">
        <ele>1063</ele>
        <time>2013-12-01T09:47:21Z</time>
      </trkpt>
      <trkpt lat="43.81908" lon="7.06692">
        <ele>1064</ele>
        <time>2013-12-01T09:47:30Z</time>
      </trkpt>
      <trkpt lat="43.8191" lon="7.06682">
        <ele>1066</ele>
        <time>2013-12-01T09:47:41Z</time>
      </trkpt>
      <trkpt lat="43.81912" lon="7.06672">
        <ele>1067</ele>
        <time>2013-12-01T09:47:52Z</time>
      </trkpt>
      <trkpt lat="43.81914" lon="7.06662">
        <ele>1069</ele>
        <time>2013-12-01T09:48:03Z</time>
      </trkpt>
      <trkpt lat="43.81916" lon="7.06653">
        <ele>1070</ele>
        <time>2013-12-01T09:48:13Z</time>
      </trkpt>
      <trkpt lat="43.81918" lon="7.06643">
        <ele>1071</ele>
        <time>2013-12-01T09:48:23Z</time>
      </trkpt>
      <trkpt lat="43.81921" lon="7.06631">
        <ele>1072</ele>
        <time>2013-12-01T09:48:35Z</time>
      </trkpt>
      <trkpt lat="43.81923" lon="7.06621">
        <ele>1073</ele>
        <time>2013-12-01T09:48:46Z</time>
      </trkpt>
      <trkpt lat="43.81925" lon="7.06613">
        <ele>1073</ele>
        <time>2013-12-01T09:48:55Z</time>
      </trkpt>
      <trkpt lat="43.81927" lon="7.06605">
        <ele>1074</ele>
        <time>2013-12-01T09:49:04Z</time>
      </trkpt>
      <trkpt lat="43.81929" lon="7.06597">
        <ele>1074</ele>
        <time>2013-12-01T09:49:14Z</time>
      </trkpt>
      <trkpt lat="43.81931" lon="7.06588">
        <ele>1076</ele>
        <time>2013-12-01T09:49:24Z</time>
      </trkpt>
      <trkpt lat="43.81933" lon="7.0658">
        <ele>1077</ele>
        <time>2013-12-01T09:49:34Z</time>
      </trkpt>
      <trkpt lat="43.81934" lon="7.06572">
        <ele>1078</ele>
        <time>2013-12-01T09:49:43Z</time>
      </trkpt>
      <trkpt lat="43.81935" lon="7.06565">
        <ele>1079</ele>
        <time>2013-12-01T09:49:52Z</time>
      </trkpt>
      <trkpt lat="43.81937" lon="7.06557">
        <ele>1079</ele>
        <time>2013-12-01T09:50:02Z</time>
      </trkpt>
      <trkpt lat="43.81938" lon="7.06551">
        <ele>1079</ele>
        <time>2013-12-01T09:50:10Z</time>
      </trkpt>
      <trkpt lat="43.81939" lon="7.06544">
        <ele>1081</ele>
        <time>2013-12-01T09:50:18Z</time>
      </trkpt>
      <trkpt lat="43.8194" lon="7.06537">
        <ele>1082</ele>
        <time>2013-12-01T09:50:27Z</time>
      </trkpt>
      <trkpt lat="43.81941" lon="7.0653">
        <ele>1083</ele>
        <time>2013-12-01T09:50:35Z</time>
      </trkpt>
      <trkpt lat="43.81943" lon="7.06522">
        <ele>1084</ele>
        <time>2013-12-01T09:50:45Z</time>
      </trkpt>
      <trkpt lat="43.81943" lon="7.06517">
        <ele>1085</ele>
        <time>2013-12-01T09:50:52Z</time>
      </trkpt>
      <trkpt lat="43.81945" lon="7.0651">
        <ele>1085</ele>
        <time>2013-12-01T09:51:00Z</time>
      </trkpt>
      <trkpt lat="43.81946" lon="7.06507">
        <ele>1087</ele>
        <time>2013-12-01T09:52:01Z</time>
      </trkpt>
      <trkpt lat="43.81947" lon="7.065">
        <ele>1089</ele>
        <time>2013-12-01T09:52:23Z</time>
      </trkpt>
      <trkpt lat="43.81949" lon="7.06493">
        <ele>1090</ele>
        <time>2013-12-01T09:52:32Z</time>
      </trkpt>
      <trkpt lat="43.81949" lon="7.06487">
        <ele>1090</ele>
        <time>2013-12-01T09:52:40Z</time>
      </trkpt>
      <trkpt lat="43.81949" lon="7.06484">
        <ele>1090</ele>
        <time>2013-12-01T09:52:48Z</time>
      </trkpt>
      <trkpt lat="43.81949" lon="7.06478">
        <ele>1090</ele>
        <time>2013-12-01T09:52:53Z</time>
      </trkpt>
      <trkpt lat="43.81951" lon="7.06472">
        <ele>1091</ele>
        <time>2013-12-01T09:53:04Z</time>
      </trkpt>
      <trkpt lat="43.81952" lon="7.06467">
        <ele>1092</ele>
        <time>2013-12-01T09:53:10Z</time>
      </trkpt>
      <trkpt lat="43.81952" lon="7.06461">
        <ele>1093</ele>
        <time>2013-12-01T09:53:18Z</time>
      </trkpt>
      <trkpt lat="43.81954" lon="7.06455">
        <ele>1094</ele>
        <time>2013-12-01T09:53:26Z</time>
      </trkpt>
      <trkpt lat="43.81955" lon="7.06451">
        <ele>1095</ele>
        <time>2013-12-01T09:53:33Z</time>
      </trkpt>
      <trkpt lat="43.81956" lon="7.06443">
        <ele>1096</ele>
        <time>2013-12-01T09:53:42Z</time>
      </trkpt>
      <trkpt lat="43.81958" lon="7.06437">
        <ele>1096</ele>
        <time>2013-12-01T09:53:51Z</time>
      </trkpt>
      <trkpt lat="43.81958" lon="7.06426">
        <ele>1097</ele>
        <time>2013-12-01T09:54:02Z</time>
      </trkpt>
      <trkpt lat="43.81956" lon="7.06415">
        <ele>1099</ele>
        <time>2013-12-01T09:54:13Z</time>
      </trkpt>
      <trkpt lat="43.81954" lon="7.06406">
        <ele>1100</ele>
        <time>2013-12-01T09:54:22Z</time>
      </trkpt>
      <trkpt lat="43.81952" lon="7.06398">
        <ele>1101</ele>
        <time>2013-12-01T09:54:32Z</time>
      </trkpt>
      <trkpt lat="43.81952" lon="7.06395">
        <ele>1102</ele>
        <time>2013-12-01T09:54:40Z</time>
      </trkpt>
      <trkpt lat="43.81951" lon="7.06388">
        <ele>1103</ele>
        <time>2013-12-01T09:54:49Z</time>
      </trkpt>
      <trkpt lat="43.81948" lon="7.0638">
        <ele>1104</ele>
        <time>2013-12-01T09:55:00Z</time>
      </trkpt>
      <trkpt lat="43.81946" lon="7.06376">
        <ele>1105</ele>
        <time>2013-12-01T09:55:07Z</time>
      </trkpt>
      <trkpt lat="43.81947" lon="7.06366">
        <ele>1106</ele>
        <time>2013-12-01T09:55:17Z</time>
      </trkpt>
      <trkpt lat="43.81946" lon="7.0636">
        <ele>1107</ele>
        <time>2013-12-01T09:55:24Z</time>
      </trkpt>
      <trkpt lat="43.81946" lon="7.06353">
        <ele>1108</ele>
        <time>2013-12-01T09:55:31Z</time>
      </trkpt>
      <trkpt lat="43.81944" lon="7.06343">
        <ele>1109</ele>
        <time>2013-12-01T09:55:41Z</time>
      </trkpt>
      <trkpt lat="43.81943" lon="7.06333">
        <ele>1110</ele>
        <time>2013-12-01T09:55:51Z</time>
      </trkpt>
      <trkpt lat="43.81942" lon="7.06322">
        <ele>1111</ele>
        <time>2013-12-01T09:56:03Z</time>
      </trkpt>
      <trkpt lat="43.81942" lon="7.06315">
        <ele>1112</ele>
        <time>2013-12-01T09:56:11Z</time>
      </trkpt>
      <trkpt lat="43.81941" lon="7.06306">
        <ele>1113</ele>
        <time>2013-12-01T09:56:21Z</time>
      </trkpt>
      <trkpt lat="43.81941" lon="7.06297">
        <ele>1114</ele>
        <time>2013-12-01T09:56:30Z</time>
      </trkpt>
      <trkpt lat="43.8194" lon="7.06287">
        <ele>1115</ele>
        <time>2013-12-01T09:56:41Z</time>
      </trkpt>
      <trkpt lat="43.81941" lon="7.06276">
        <ele>1115</ele>
        <time>2013-12-01T09:56:50Z</time>
      </trkpt>
      <trkpt lat="43.81941" lon="7.06269">
        <ele>1116</ele>
        <time>2013-12-01T09:56:56Z</time>
      </trkpt>
      <trkpt lat="43.81941" lon="7.06254">
        <ele>1117</ele>
        <time>2013-12-01T09:57:07Z</time>
      </trkpt>
      <trkpt lat="43.81939" lon="7.06243">
        <ele>1118</ele>
        <time>2013-12-01T09:57:19Z</time>
      </trkpt>
      <trkpt lat="43.81939" lon="7.06234">
        <ele>1119</ele>
        <time>2013-12-01T09:57:29Z</time>
      </trkpt>
      <trkpt lat="43.81944" lon="7.06235">
        <ele>1120</ele>
        <time>2013-12-01T09:57:36Z</time>
      </trkpt>
      <trkpt lat="43.81951" lon="7.06241">
        <ele>1121</ele>
        <time>2013-12-01T09:57:47Z</time>
      </trkpt>
      <trkpt lat="43.81952" lon="7.06249">
        <ele>1121</ele>
        <time>2013-12-01T09:57:56Z</time>
      </trkpt>
      <trkpt lat="43.81954" lon="7.06256">
        <ele>1122</ele>
        <time>2013-12-01T09:58:05Z</time>
      </trkpt>
      <trkpt lat="43.8196" lon="7.06268">
        <ele>1123</ele>
        <time>2013-12-01T09:58:18Z</time>
      </trkpt>
      <trkpt lat="43.81966" lon="7.06277">
        <ele>1124</ele>
        <time>2013-12-01T09:58:29Z</time>
      </trkpt>
      <trkpt lat="43.8197" lon="7.06288">
        <ele>1125</ele>
        <time>2013-12-01T09:58:40Z</time>
      </trkpt>
      <trkpt lat="43.81976" lon="7.06299">
        <ele>1126</ele>
        <time>2013-12-01T09:58:54Z</time>
      </trkpt>
      <trkpt lat="43.81981" lon="7.06306">
        <ele>1127</ele>
        <time>2013-12-01T09:59:02Z</time>
      </trkpt>
      <trkpt lat="43.81985" lon="7.06314">
        <ele>1128</ele>
        <time>2013-12-01T09:59:13Z</time>
      </trkpt>
      <trkpt lat="43.8199" lon="7.06324">
        <ele>1130</ele>
        <time>2013-12-01T09:59:23Z</time>
      </trkpt>
      <trkpt lat="43.81996" lon="7.06334">
        <ele>1131</ele>
        <time>2013-12-01T09:59:33Z</time>
      </trkpt>
      <trkpt lat="43.82002" lon="7.06341">
        <ele>1131</ele>
        <time>2013-12-01T09:59:44Z</time>
      </trkpt>
      <trkpt lat="43.82006" lon="7.06346">
        <ele>1131</ele>
        <time>2013-12-01T09:59:53Z</time>
      </trkpt>
      <trkpt lat="43.82018" lon="7.06352">
        <ele>1132</ele>
        <time>2013-12-01T10:00:05Z</time>
      </trkpt>
      <trkpt lat="43.82026" lon="7.0635">
        <ele>1134</ele>
        <time>2013-12-01T10:00:17Z</time>
      </trkpt>
      <trkpt lat="43.82032" lon="7.06347">
        <ele>1135</ele>
        <time>2013-12-01T10:00:26Z</time>
      </trkpt>
      <trkpt lat="43.82037" lon="7.06344">
        <ele>1137</ele>
        <time>2013-12-01T10:00:35Z</time>
      </trkpt>
      <trkpt lat="43.8204" lon="7.06343">
        <ele>1138</ele>
        <time>2013-12-01T10:00:42Z</time>
      </trkpt>
      <trkpt lat="43.82046" lon="7.06339">
        <ele>1141</ele>
        <time>2013-12-01T10:00:52Z</time>
      </trkpt>
      <trkpt lat="43.82053" lon="7.06336">
        <ele>1143</ele>
        <time>2013-12-01T10:01:03Z</time>
      </trkpt>
      <trkpt lat="43.82059" lon="7.06331">
        <ele>1145</ele>
        <time>2013-12-01T10:01:14Z</time>
      </trkpt>
      <trkpt lat="43.82062" lon="7.06326">
        <ele>1146</ele>
        <time>2013-12-01T10:01:23Z</time>
      </trkpt>
      <trkpt lat="43.82067" lon="7.06319">
        <ele>1147</ele>
        <time>2013-12-01T10:01:36Z</time>
      </trkpt>
      <trkpt lat="43.82074" lon="7.06317">
        <ele>1149</ele>
        <time>2013-12-01T10:01:47Z</time>
      </trkpt>
      <trkpt lat="43.82082" lon="7.0632">
        <ele>1151</ele>
        <time>2013-12-01T10:01:58Z</time>
      </trkpt>
      <trkpt lat="43.82088" lon="7.06317">
        <ele>1152</ele>
        <time>2013-12-01T10:02:06Z</time>
      </trkpt>
      <trkpt lat="43.82094" lon="7.06313">
        <ele>1153</ele>
        <time>2013-12-01T10:02:15Z</time>
      </trkpt>
      <trkpt lat="43.82102" lon="7.06313">
        <ele>1154</ele>
        <time>2013-12-01T10:02:24Z</time>
      </trkpt>
      <trkpt lat="43.82108" lon="7.06316">
        <ele>1155</ele>
        <time>2013-12-01T10:02:33Z</time>
      </trkpt>
      <trkpt lat="43.82115" lon="7.06322">
        <ele>1156</ele>
        <time>2013-12-01T10:02:44Z</time>
      </trkpt>
      <trkpt lat="43.82119" lon="7.06327">
        <ele>1156</ele>
        <time>2013-12-01T10:02:53Z</time>
      </trkpt>
      <trkpt lat="43.82121" lon="7.06336">
        <ele>1158</ele>
        <time>2013-12-01T10:03:04Z</time>
      </trkpt>
      <trkpt lat="43.82128" lon="7.06339">
        <ele>1158</ele>
        <time>2013-12-01T10:03:13Z</time>
      </trkpt>
      <trkpt lat="43.82137" lon="7.06336">
        <ele>1159</ele>
        <time>2013-12-01T10:03:23Z</time>
      </trkpt>
      <trkpt lat="43.82145" lon="7.06336">
        <ele>1161</ele>
        <time>2013-12-01T10:03:33Z</time>
      </trkpt>
      <trkpt lat="43.82151" lon="7.06336">
        <ele>1162</ele>
        <time>2013-12-01T10:03:41Z</time>
      </trkpt>
      <trkpt lat="43.82158" lon="7.06336">
        <ele>1163</ele>
        <time>2013-12-01T10:03:50Z</time>
      </trkpt>
      <trkpt lat="43.82165" lon="7.06332">
        <ele>1164</ele>
        <time>2013-12-01T10:04:01Z</time>
      </trkpt>
      <trkpt lat="43.82174" lon="7.06333">
        <ele>1166</ele>
        <time>2013-12-01T10:04:12Z</time>
      </trkpt>
      <trkpt lat="43.82186" lon="7.06336">
        <ele>1167</ele>
        <time>2013-12-01T10:04:24Z</time>
      </trkpt>
      <trkpt lat="43.82189" lon="7.06336">
        <ele>1168</ele>
        <time>2013-12-01T10:04:27Z</time>
      </trkpt>
      <trkpt lat="43.82199" lon="7.06336">
        <ele>1169</ele>
        <time>2013-12-01T10:04:38Z</time>
      </trkpt>
      <trkpt lat="43.82208" lon="7.06335">
        <ele>1171</ele>
        <time>2013-12-01T10:04:50Z</time>
      </trkpt>
      <trkpt lat="43.82215" lon="7.06333">
        <ele>1172</ele>
        <time>2013-12-01T10:04:59Z</time>
      </trkpt>
      <trkpt lat="43.82222" lon="7.06332">
        <ele>1173</ele>
        <time>2013-12-01T10:05:08Z</time>
      </trkpt>
      <trkpt lat="43.82231" lon="7.0633">
        <ele>1174</ele>
        <time>2013-12-01T10:05:19Z</time>
      </trkpt>
      <trkpt lat="43.82238" lon="7.0633">
        <ele>1176</ele>
        <time>2013-12-01T10:05:28Z</time>
      </trkpt>
      <trkpt lat="43.82246" lon="7.06333">
        <ele>1176</ele>
        <time>2013-12-01T10:05:38Z</time>
      </trkpt>
      <trkpt lat="43.82257" lon="7.06337">
        <ele>1178</ele>
        <time>2013-12-01T10:05:48Z</time>
      </trkpt>
      <trkpt lat="43.82263" lon="7.06338">
        <ele>1179</ele>
        <time>2013-12-01T10:05:56Z</time>
      </trkpt>
      <trkpt lat="43.8227" lon="7.0634">
        <ele>1180</ele>
        <time>2013-12-01T10:06:04Z</time>
      </trkpt>
      <trkpt lat="43.82279" lon="7.06341">
        <ele>1181</ele>
        <time>2013-12-01T10:06:16Z</time>
      </trkpt>
      <trkpt lat="43.82287" lon="7.06344">
        <ele>1183</ele>
        <time>2013-12-01T10:06:26Z</time>
      </trkpt>
      <trkpt lat="43.82294" lon="7.0635">
        <ele>1184</ele>
        <time>2013-12-01T10:06:35Z</time>
      </trkpt>
      <trkpt lat="43.82302" lon="7.06354">
        <ele>1184</ele>
        <time>2013-12-01T10:06:44Z</time>
      </trkpt>
      <trkpt lat="43.8231" lon="7.06357">
        <ele>1185</ele>
        <time>2013-12-01T10:06:55Z</time>
      </trkpt>
      <trkpt lat="43.82321" lon="7.06361">
        <ele>1186</ele>
        <time>2013-12-01T10:07:07Z</time>
      </trkpt>
      <trkpt lat="43.8233" lon="7.06363">
        <ele>1187</ele>
        <time>2013-12-01T10:07:17Z</time>
      </trkpt>
      <trkpt lat="43.8234" lon="7.06364">
        <ele>1189</ele>
        <time>2013-12-01T10:07:28Z</time>
      </trkpt>
      <trkpt lat="43.82346" lon="7.06366">
        <ele>1190</ele>
        <time>2013-12-01T10:07:35Z</time>
      </trkpt>
      <trkpt lat="43.82352" lon="7.06366">
        <ele>1191</ele>
        <time>2013-12-01T10:07:43Z</time>
      </trkpt>
      <trkpt lat="43.82359" lon="7.06365">
        <ele>1192</ele>
        <time>2013-12-01T10:07:53Z</time>
      </trkpt>
      <trkpt lat="43.82366" lon="7.06368">
        <ele>1193</ele>
        <time>2013-12-01T10:08:04Z</time>
      </trkpt>
      <trkpt lat="43.82371" lon="7.06374">
        <ele>1195</ele>
        <time>2013-12-01T10:08:13Z</time>
      </trkpt>
      <trkpt lat="43.82374" lon="7.06381">
        <ele>1195</ele>
        <time>2013-12-01T10:08:22Z</time>
      </trkpt>
      <trkpt lat="43.8238" lon="7.0639">
        <ele>1196</ele>
        <time>2013-12-01T10:08:33Z</time>
      </trkpt>
      <trkpt lat="43.82385" lon="7.06397">
        <ele>1196</ele>
        <time>2013-12-01T10:08:43Z</time>
      </trkpt>
      <trkpt lat="43.82389" lon="7.06403">
        <ele>1197</ele>
        <time>2013-12-01T10:08:52Z</time>
      </trkpt>
      <trkpt lat="43.82393" lon="7.06412">
        <ele>1197</ele>
        <time>2013-12-01T10:09:04Z</time>
      </trkpt>
      <trkpt lat="43.82397" lon="7.06414">
        <ele>1198</ele>
        <time>2013-12-01T10:09:16Z</time>
      </trkpt>
      <trkpt lat="43.82399" lon="7.06407">
        <ele>1199</ele>
        <time>2013-12-01T10:09:25Z</time>
      </trkpt>
      <trkpt lat="43.82402" lon="7.06398">
        <ele>1200</ele>
        <time>2013-12-01T10:09:37Z</time>
      </trkpt>
      <trkpt lat="43.82407" lon="7.0639">
        <ele>1202</ele>
        <time>2013-12-01T10:09:49Z</time>
      </trkpt>
      <trkpt lat="43.82412" lon="7.0639">
        <ele>1203</ele>
        <time>2013-12-01T10:09:58Z</time>
      </trkpt>
      <trkpt lat="43.82414" lon="7.06398">
        <ele>1204</ele>
        <time>2013-12-01T10:10:08Z</time>
      </trkpt>
      <trkpt lat="43.82414" lon="7.06405">
        <ele>1205</ele>
        <time>2013-12-01T10:10:18Z</time>
      </trkpt>
      <trkpt lat="43.82415" lon="7.06412">
        <ele>1206</ele>
        <time>2013-12-01T10:10:29Z</time>
      </trkpt>
      <trkpt lat="43.82416" lon="7.06422">
        <ele>1207</ele>
        <time>2013-12-01T10:10:41Z</time>
      </trkpt>
      <trkpt lat="43.82418" lon="7.06432">
        <ele>1208</ele>
        <time>2013-12-01T10:10:52Z</time>
      </trkpt>
      <trkpt lat="43.82421" lon="7.06443">
        <ele>1209</ele>
        <time>2013-12-01T10:11:04Z</time>
      </trkpt>
      <trkpt lat="43.82423" lon="7.06451">
        <ele>1210</ele>
        <time>2013-12-01T10:11:13Z</time>
      </trkpt>
      <trkpt lat="43.82426" lon="7.0646">
        <ele>1211</ele>
        <time>2013-12-01T10:11:24Z</time>
      </trkpt>
      <trkpt lat="43.82429" lon="7.06459">
        <ele>1212</ele>
        <time>2013-12-01T10:11:32Z</time>
      </trkpt>
      <trkpt lat="43.8243" lon="7.06453">
        <ele>1212</ele>
        <time>2013-12-01T10:11:40Z</time>
      </trkpt>
      <trkpt lat="43.82433" lon="7.06448">
        <ele>1213</ele>
        <time>2013-12-01T10:11:49Z</time>
      </trkpt>
      <trkpt lat="43.82437" lon="7.06441">
        <ele>1214</ele>
        <time>2013-12-01T10:11:59Z</time>
      </trkpt>
      <trkpt lat="43.82442" lon="7.06433">
        <ele>1215</ele>
        <time>2013-12-01T10:12:11Z</time>
      </trkpt>
      <trkpt lat="43.82447" lon="7.06428">
        <ele>1216</ele>
        <time>2013-12-01T10:12:20Z</time>
      </trkpt>
      <trkpt lat="43.82451" lon="7.06421">
        <ele>1217</ele>
        <time>2013-12-01T10:12:30Z</time>
      </trkpt>
      <trkpt lat="43.82455" lon="7.06415">
        <ele>1218</ele>
        <time>2013-12-01T10:12:39Z</time>
      </trkpt>
      <trkpt lat="43.82458" lon="7.06412">
        <ele>1220</ele>
        <time>2013-12-01T10:12:48Z</time>
      </trkpt>
      <trkpt lat="43.82461" lon="7.06407">
        <ele>1220</ele>
        <time>2013-12-01T10:12:55Z</time>
      </trkpt>
      <trkpt lat="43.82468" lon="7.06403">
        <ele>1221</ele>
        <time>2013-12-01T10:13:05Z</time>
      </trkpt>
      <trkpt lat="43.82477" lon="7.06397">
        <ele>1221</ele>
        <time>2013-12-01T10:13:16Z</time>
      </trkpt>
      <trkpt lat="43.82487" lon="7.06389">
        <ele>1221</ele>
        <time>2013-12-01T10:13:30Z</time>
      </trkpt>
      <trkpt lat="43.82494" lon="7.06384">
        <ele>1221</ele>
        <time>2013-12-01T10:13:39Z</time>
      </trkpt>
      <trkpt lat="43.82498" lon="7.06379">
        <ele>1221</ele>
        <time>2013-12-01T10:13:46Z</time>
      </trkpt>
      <trkpt lat="43.82505" lon="7.06367">
        <ele>1222</ele>
        <time>2013-12-01T10:13:59Z</time>
      </trkpt>
      <trkpt lat="43.82509" lon="7.06359">
        <ele>1223</ele>
        <time>2013-12-01T10:14:09Z</time>
      </trkpt>
      <trkpt lat="43.82513" lon="7.06351">
        <ele>1223</ele>
        <time>2013-12-01T10:14:20Z</time>
      </trkpt>
      <trkpt lat="43.82518" lon="7.06342">
        <ele>1224</ele>
        <time>2013-12-01T10:14:32Z</time>
      </trkpt>
      <trkpt lat="43.82522" lon="7.06334">
        <ele>1226</ele>
        <time>2013-12-01T10:14:43Z</time>
      </trkpt>
      <trkpt lat="43.82527" lon="7.06324">
        <ele>1227</ele>
        <time>2013-12-01T10:14:55Z</time>
      </trkpt>
      <trkpt lat="43.8253" lon="7.06318">
        <ele>1228</ele>
        <time>2013-12-01T10:15:07Z</time>
      </trkpt>
      <trkpt lat="43.82534" lon="7.06312">
        <ele>1229</ele>
        <time>2013-12-01T10:15:15Z</time>
      </trkpt>
      <trkpt lat="43.82539" lon="7.06304">
        <ele>1230</ele>
        <time>2013-12-01T10:15:26Z</time>
      </trkpt>
      <trkpt lat="43.82543" lon="7.06299">
        <ele>1230</ele>
        <time>2013-12-01T10:15:35Z</time>
      </trkpt>
      <trkpt lat="43.82548" lon="7.06296">
        <ele>1230</ele>
        <time>2013-12-01T10:15:43Z</time>
      </trkpt>
      <trkpt lat="43.82551" lon="7.06294">
        <ele>1229</ele>
        <time>2013-12-01T10:15:50Z</time>
      </trkpt>
      <trkpt lat="43.82553" lon="7.06298">
        <ele>1229</ele>
        <time>2013-12-01T10:15:58Z</time>
      </trkpt>
      <trkpt lat="43.82554" lon="7.06305">
        <ele>1230</ele>
        <time>2013-12-01T10:16:13Z</time>
      </trkpt>
      <trkpt lat="43.82548" lon="7.06309">
        <ele>1231</ele>
        <time>2013-12-01T10:16:23Z</time>
      </trkpt>
      <trkpt lat="43.82544" lon="7.06311">
        <ele>1231</ele>
        <time>2013-12-01T10:16:38Z</time>
      </trkpt>
      <trkpt lat="43.82544" lon="7.06317">
        <ele>1232</ele>
        <time>2013-12-01T10:16:46Z</time>
      </trkpt>
      <trkpt lat="43.82543" lon="7.06322">
        <ele>1233</ele>
        <time>2013-12-01T10:16:54Z</time>
      </trkpt>
      <trkpt lat="43.82543" lon="7.06324">
        <ele>1233</ele>
        <time>2013-12-01T10:17:02Z</time>
      </trkpt>
      <trkpt lat="43.82542" lon="7.06329">
        <ele>1234</ele>
        <time>2013-12-01T10:17:10Z</time>
      </trkpt>
      <trkpt lat="43.8254" lon="7.06336">
        <ele>1235</ele>
        <time>2013-12-01T10:17:26Z</time>
      </trkpt>
      <trkpt lat="43.8254" lon="7.06342">
        <ele>1234</ele>
        <time>2013-12-01T10:26:23Z</time>
      </trkpt>
      <trkpt lat="43.8254" lon="7.06347">
        <ele>1234</ele>
        <time>2013-12-01T10:26:32Z</time>
      </trkpt>
      <trkpt lat="43.82542" lon="7.06351">
        <ele>1234</ele>
        <time>2013-12-01T10:26:40Z</time>
      </trkpt>
      <trkpt lat="43.82542" lon="7.06355">
        <ele>1234</ele>
        <time>2013-12-01T10:26:49Z</time>
      </trkpt>
      <trkpt lat="43.82541" lon="7.0636">
        <ele>1235</ele>
        <time>2013-12-01T10:26:57Z</time>
      </trkpt>
      <trkpt lat="43.8254" lon="7.06366">
        <ele>1235</ele>
        <time>2013-12-01T10:27:08Z</time>
      </trkpt>
      <trkpt lat="43.82542" lon="7.06372">
        <ele>1234</ele>
        <time>2013-12-01T10:27:16Z</time>
      </trkpt>
      <trkpt lat="43.82542" lon="7.06379">
        <ele>1234</ele>
        <time>2013-12-01T10:27:23Z</time>
      </trkpt>
      <trkpt lat="43.82543" lon="7.06388">
        <ele>1234</ele>
        <time>2013-12-01T10:27:32Z</time>
      </trkpt>
      <trkpt lat="43.82542" lon="7.064">
        <ele>1232</ele>
        <time>2013-12-01T10:27:43Z</time>
      </trkpt>
      <trkpt lat="43.82543" lon="7.06403">
        <ele>1233</ele>
        <time>2013-12-01T10:27:51Z</time>
      </trkpt>
      <trkpt lat="43.82543" lon="7.06409">
        <ele>1232</ele>
        <time>2013-12-01T10:29:03Z</time>
      </trkpt>
      <trkpt lat="43.82545" lon="7.06416">
        <ele>1232</ele>
        <time>2013-12-01T10:29:15Z</time>
      </trkpt>
      <trkpt lat="43.82544" lon="7.06419">
        <ele>1233</ele>
        <time>2013-12-01T10:29:20Z</time>
      </trkpt>
      <trkpt lat="43.82542" lon="7.06432">
        <ele>1230</ele>
        <time>2013-12-01T10:29:31Z</time>
      </trkpt>
      <trkpt lat="43.82544" lon="7.06442">
        <ele>1230</ele>
        <time>2013-12-01T10:29:41Z</time>
      </trkpt>
      <trkpt lat="43.82545" lon="7.06445">
        <ele>1231</ele>
        <time>2013-12-01T10:29:48Z</time>
      </trkpt>
      <trkpt lat="43.82548" lon="7.0645">
        <ele>1233</ele>
        <time>2013-12-01T10:30:20Z</time>
      </trkpt>
      <trkpt lat="43.82548" lon="7.06456">
        <ele>1230</ele>
        <time>2013-12-01T10:30:41Z</time>
      </trkpt>
      <trkpt lat="43.82544" lon="7.06459">
        <ele>1227</ele>
        <time>2013-12-01T10:30:50Z</time>
      </trkpt>
      <trkpt lat="43.8254" lon="7.0646">
        <ele>1227</ele>
        <time>2013-12-01T10:30:54Z</time>
      </trkpt>
      <trkpt lat="43.82534" lon="7.06462">
        <ele>1224</ele>
        <time>2013-12-01T10:31:01Z</time>
      </trkpt>
      <trkpt lat="43.8253" lon="7.06464">
        <ele>1223</ele>
        <time>2013-12-01T10:31:05Z</time>
      </trkpt>
      <trkpt lat="43.82527" lon="7.06464">
        <ele>1223</ele>
        <time>2013-12-01T10:31:07Z</time>
      </trkpt>
      <trkpt lat="43.82524" lon="7.06474">
        <ele>1221</ele>
        <time>2013-12-01T10:31:15Z</time>
      </trkpt>
      <trkpt lat="43.82519" lon="7.06482">
        <ele>1222</ele>
        <time>2013-12-01T10:31:23Z</time>
      </trkpt>
      <trkpt lat="43.8251" lon="7.06488">
        <ele>1221</ele>
        <time>2013-12-01T10:31:31Z</time>
      </trkpt>
      <trkpt lat="43.82505" lon="7.06495">
        <ele>1221</ele>
        <time>2013-12-01T10:31:38Z</time>
      </trkpt>
      <trkpt lat="43.82501" lon="7.06504">
        <ele>1219</ele>
        <time>2013-12-01T10:31:45Z</time>
      </trkpt>
      <trkpt lat="43.8249" lon="7.06516">
        <ele>1218</ele>
        <time>2013-12-01T10:31:56Z</time>
      </trkpt>
      <trkpt lat="43.82483" lon="7.06527">
        <ele>1219</ele>
        <time>2013-12-01T10:32:06Z</time>
      </trkpt>
      <trkpt lat="43.82477" lon="7.06547">
        <ele>1219</ele>
        <time>2013-12-01T10:32:20Z</time>
      </trkpt>
      <trkpt lat="43.82474" lon="7.06566">
        <ele>1219</ele>
        <time>2013-12-01T10:32:32Z</time>
      </trkpt>
      <trkpt lat="43.82467" lon="7.06587">
        <ele>1218</ele>
        <time>2013-12-01T10:32:45Z</time>
      </trkpt>
      <trkpt lat="43.82464" lon="7.06606">
        <ele>1218</ele>
        <time>2013-12-01T10:32:57Z</time>
      </trkpt>
      <trkpt lat="43.82462" lon="7.0662">
        <ele>1219</ele>
        <time>2013-12-01T10:33:08Z</time>
      </trkpt>
      <trkpt lat="43.8246" lon="7.06634">
        <ele>1220</ele>
        <time>2013-12-01T10:33:19Z</time>
      </trkpt>
      <trkpt lat="43.82465" lon="7.06643">
        <ele>1222</ele>
        <time>2013-12-01T10:33:30Z</time>
      </trkpt>
      <trkpt lat="43.82468" lon="7.06652">
        <ele>1224</ele>
        <time>2013-12-01T10:33:40Z</time>
      </trkpt>
      <trkpt lat="43.82471" lon="7.06662">
        <ele>1226</ele>
        <time>2013-12-01T10:33:50Z</time>
      </trkpt>
      <trkpt lat="43.82472" lon="7.06673">
        <ele>1226</ele>
        <time>2013-12-01T10:34:01Z</time>
      </trkpt>
      <trkpt lat="43.82477" lon="7.0669">
        <ele>1228</ele>
        <time>2013-12-01T10:34:17Z</time>
      </trkpt>
      <trkpt lat="43.82482" lon="7.06703">
        <ele>1231</ele>
        <time>2013-12-01T10:34:30Z</time>
      </trkpt>
      <trkpt lat="43.82485" lon="7.06714">
        <ele>1233</ele>
        <time>2013-12-01T10:34:41Z</time>
      </trkpt>
      <trkpt lat="43.82487" lon="7.06724">
        <ele>1234</ele>
        <time>2013-12-01T10:34:50Z</time>
      </trkpt>
      <trkpt lat="43.82485" lon="7.06734">
        <ele>1235</ele>
        <time>2013-12-01T10:34:59Z</time>
      </trkpt>
      <trkpt lat="43.82485" lon="7.06749">
        <ele>1236</ele>
        <time>2013-12-01T10:35:10Z</time>
      </trkpt>
      <trkpt lat="43.82487" lon="7.06757">
        <ele>1237</ele>
        <time>2013-12-01T10:35:19Z</time>
      </trkpt>
      <trkpt lat="43.82488" lon="7.06768">
        <ele>1239</ele>
        <time>2013-12-01T10:35:30Z</time>
      </trkpt>
      <trkpt lat="43.82489" lon="7.06779">
        <ele>1241</ele>
        <time>2013-12-01T10:35:40Z</time>
      </trkpt>
      <trkpt lat="43.82489" lon="7.06788">
        <ele>1242</ele>
        <time>2013-12-01T10:35:48Z</time>
      </trkpt>
      <trkpt lat="43.8249" lon="7.06796">
        <ele>1243</ele>
        <time>2013-12-01T10:35:57Z</time>
      </trkpt>
      <trkpt lat="43.82494" lon="7.06802">
        <ele>1246</ele>
        <time>2013-12-01T10:36:07Z</time>
      </trkpt>
      <trkpt lat="43.82497" lon="7.06809">
        <ele>1246</ele>
        <time>2013-12-01T10:36:16Z</time>
      </trkpt>
      <trkpt lat="43.82499" lon="7.06819">
        <ele>1248</ele>
        <time>2013-12-01T10:36:27Z</time>
      </trkpt>
      <trkpt lat="43.825" lon="7.0683">
        <ele>1249</ele>
        <time>2013-12-01T10:36:37Z</time>
      </trkpt>
      <trkpt lat="43.82503" lon="7.06841">
        <ele>1249</ele>
        <time>2013-12-01T10:36:46Z</time>
      </trkpt>
      <trkpt lat="43.82505" lon="7.06849">
        <ele>1249</ele>
        <time>2013-12-01T10:36:55Z</time>
      </trkpt>
      <trkpt lat="43.82507" lon="7.06858">
        <ele>1249</ele>
        <time>2013-12-01T10:37:04Z</time>
      </trkpt>
      <trkpt lat="43.82509" lon="7.06865">
        <ele>1250</ele>
        <time>2013-12-01T10:37:13Z</time>
      </trkpt>
      <trkpt lat="43.82511" lon="7.06873">
        <ele>1251</ele>
        <time>2013-12-01T10:37:23Z</time>
      </trkpt>
      <trkpt lat="43.82514" lon="7.0688">
        <ele>1251</ele>
        <time>2013-12-01T10:37:32Z</time>
      </trkpt>
      <trkpt lat="43.82517" lon="7.06889">
        <ele>1252</ele>
        <time>2013-12-01T10:37:44Z</time>
      </trkpt>
      <trkpt lat="43.82519" lon="7.06896">
        <ele>1253</ele>
        <time>2013-12-01T10:37:54Z</time>
      </trkpt>
      <trkpt lat="43.82521" lon="7.06903">
        <ele>1254</ele>
        <time>2013-12-01T10:38:03Z</time>
      </trkpt>
      <trkpt lat="43.82526" lon="7.06912">
        <ele>1254</ele>
        <time>2013-12-01T10:38:15Z</time>
      </trkpt>
      <trkpt lat="43.82527" lon="7.0692">
        <ele>1254</ele>
        <time>2013-12-01T10:38:23Z</time>
      </trkpt>
      <trkpt lat="43.82527" lon="7.06925">
        <ele>1256</ele>
        <time>2013-12-01T10:38:29Z</time>
      </trkpt>
      <trkpt lat="43.82529" lon="7.0693">
        <ele>1255</ele>
        <time>2013-12-01T10:38:36Z</time>
      </trkpt>
      <trkpt lat="43.8253" lon="7.06938">
        <ele>1255</ele>
        <time>2013-12-01T10:38:45Z</time>
      </trkpt>
      <trkpt lat="43.82531" lon="7.06945">
        <ele>1256</ele>
        <time>2013-12-01T10:38:54Z</time>
      </trkpt>
      <trkpt lat="43.8253" lon="7.06953">
        <ele>1257</ele>
        <time>2013-12-01T10:39:04Z</time>
      </trkpt>
      <trkpt lat="43.82532" lon="7.0696">
        <ele>1257</ele>
        <time>2013-12-01T10:40:14Z</time>
      </trkpt>
      <trkpt lat="43.82533" lon="7.06965">
        <ele>1258</ele>
        <time>2013-12-01T10:40:21Z</time>
      </trkpt>
      <trkpt lat="43.82532" lon="7.06969">
        <ele>1259</ele>
        <time>2013-12-01T10:40:29Z</time>
      </trkpt>
      <trkpt lat="43.82537" lon="7.06973">
        <ele>1259</ele>
        <time>2013-12-01T10:40:37Z</time>
      </trkpt>
      <trkpt lat="43.8254" lon="7.06979">
        <ele>1259</ele>
        <time>2013-12-01T10:40:45Z</time>
      </trkpt>
      <trkpt lat="43.82542" lon="7.06985">
        <ele>1259</ele>
        <time>2013-12-01T10:40:50Z</time>
      </trkpt>
      <trkpt lat="43.82542" lon="7.0699">
        <ele>1259</ele>
        <time>2013-12-01T10:40:55Z</time>
      </trkpt>
      <trkpt lat="43.82539" lon="7.06992">
        <ele>1259</ele>
        <time>2013-12-01T10:41:00Z</time>
      </trkpt>
      <trkpt lat="43.82533" lon="7.07001">
        <ele>1259</ele>
        <time>2013-12-01T10:41:08Z</time>
      </trkpt>
      <trkpt lat="43.8253" lon="7.07005">
        <ele>1260</ele>
        <time>2013-12-01T10:41:12Z</time>
      </trkpt>
      <trkpt lat="43.82528" lon="7.0702">
        <ele>1261</ele>
        <time>2013-12-01T10:41:24Z</time>
      </trkpt>
      <trkpt lat="43.82526" lon="7.07033">
        <ele>1261</ele>
        <time>2013-12-01T10:41:35Z</time>
      </trkpt>
      <trkpt lat="43.82525" lon="7.07043">
        <ele>1262</ele>
        <time>2013-12-01T10:41:44Z</time>
      </trkpt>
      <trkpt lat="43.82524" lon="7.07056">
        <ele>1262</ele>
        <time>2013-12-01T10:41:54Z</time>
      </trkpt>
      <trkpt lat="43.82523" lon="7.07068">
        <ele>1262</ele>
        <time>2013-12-01T10:42:06Z</time>
      </trkpt>
      <trkpt lat="43.82522" lon="7.07076">
        <ele>1263</ele>
        <time>2013-12-01T10:42:24Z</time>
      </trkpt>
      <trkpt lat="43.82524" lon="7.07082">
        <ele>1263</ele>
        <time>2013-12-01T10:42:34Z</time>
      </trkpt>
      <trkpt lat="43.82527" lon="7.0709">
        <ele>1262</ele>
        <time>2013-12-01T10:42:44Z</time>
      </trkpt>
      <trkpt lat="43.8253" lon="7.07098">
        <ele>1261</ele>
        <time>2013-12-01T10:42:52Z</time>
      </trkpt>
      <trkpt lat="43.82532" lon="7.07108">
        <ele>1261</ele>
        <time>2013-12-01T10:43:01Z</time>
      </trkpt>
      <trkpt lat="43.82534" lon="7.07117">
        <ele>1260</ele>
        <time>2013-12-01T10:43:09Z</time>
      </trkpt>
      <trkpt lat="43.82535" lon="7.07125">
        <ele>1261</ele>
        <time>2013-12-01T10:43:16Z</time>
      </trkpt>
      <trkpt lat="43.8254" lon="7.07142">
        <ele>1260</ele>
        <time>2013-12-01T10:43:28Z</time>
      </trkpt>
      <trkpt lat="43.82538" lon="7.07151">
        <ele>1262</ele>
        <time>2013-12-01T10:43:37Z</time>
      </trkpt>
      <trkpt lat="43.82537" lon="7.07161">
        <ele>1263</ele>
        <time>2013-12-01T10:43:46Z</time>
      </trkpt>
      <trkpt lat="43.8253" lon="7.07168">
        <ele>1264</ele>
        <time>2013-12-01T10:43:57Z</time>
      </trkpt>
      <trkpt lat="43.82526" lon="7.07177">
        <ele>1265</ele>
        <time>2013-12-01T10:44:06Z</time>
      </trkpt>
      <trkpt lat="43.82524" lon="7.07184">
        <ele>1266</ele>
        <time>2013-12-01T10:44:15Z</time>
      </trkpt>
      <trkpt lat="43.82521" lon="7.07187">
        <ele>1266</ele>
        <time>2013-12-01T10:44:21Z</time>
      </trkpt>
      <trkpt lat="43.82515" lon="7.07189">
        <ele>1267</ele>
        <time>2013-12-01T10:44:31Z</time>
      </trkpt>
      <trkpt lat="43.82509" lon="7.07188">
        <ele>1269</ele>
        <time>2013-12-01T10:44:39Z</time>
      </trkpt>
      <trkpt lat="43.82507" lon="7.07196">
        <ele>1269</ele>
        <time>2013-12-01T10:49:12Z</time>
      </trkpt>
      <trkpt lat="43.82509" lon="7.07199">
        <ele>1269</ele>
        <time>2013-12-01T10:49:19Z</time>
      </trkpt>
      <trkpt lat="43.82511" lon="7.07205">
        <ele>1268</ele>
        <time>2013-12-01T10:49:26Z</time>
      </trkpt>
      <trkpt lat="43.8251" lon="7.0721">
        <ele>1268</ele>
        <time>2013-12-01T10:49:35Z</time>
      </trkpt>
      <trkpt lat="43.82509" lon="7.07219">
        <ele>1266</ele>
        <time>2013-12-01T10:49:53Z</time>
      </trkpt>
      <trkpt lat="43.82507" lon="7.07229">
        <ele>1266</ele>
        <time>2013-12-01T10:50:01Z</time>
      </trkpt>
      <trkpt lat="43.82502" lon="7.07237">
        <ele>1267</ele>
        <time>2013-12-01T10:50:11Z</time>
      </trkpt>
      <trkpt lat="43.82499" lon="7.07241">
        <ele>1267</ele>
        <time>2013-12-01T10:50:17Z</time>
      </trkpt>
      <trkpt lat="43.82496" lon="7.07242">
        <ele>1267</ele>
        <time>2013-12-01T10:50:20Z</time>
      </trkpt>
      <trkpt lat="43.82493" lon="7.07243">
        <ele>1266</ele>
        <time>2013-12-01T10:50:33Z</time>
      </trkpt>
      <trkpt lat="43.82487" lon="7.07247">
        <ele>1265</ele>
        <time>2013-12-01T10:50:43Z</time>
      </trkpt>
      <trkpt lat="43.82482" lon="7.07253">
        <ele>1265</ele>
        <time>2013-12-01T10:50:51Z</time>
      </trkpt>
      <trkpt lat="43.82485" lon="7.07262">
        <ele>1266</ele>
        <time>2013-12-01T10:50:59Z</time>
      </trkpt>
      <trkpt lat="43.82487" lon="7.07271">
        <ele>1266</ele>
        <time>2013-12-01T10:51:08Z</time>
      </trkpt>
      <trkpt lat="43.82487" lon="7.07284">
        <ele>1266</ele>
        <time>2013-12-01T10:51:20Z</time>
      </trkpt>
      <trkpt lat="43.82486" lon="7.07292">
        <ele>1265</ele>
        <time>2013-12-01T10:51:30Z</time>
      </trkpt>
      <trkpt lat="43.82487" lon="7.073">
        <ele>1265</ele>
        <time>2013-12-01T10:51:38Z</time>
      </trkpt>
      <trkpt lat="43.82487" lon="7.07306">
        <ele>1264</ele>
        <time>2013-12-01T10:51:42Z</time>
      </trkpt>
      <trkpt lat="43.82484" lon="7.0732">
        <ele>1264</ele>
        <time>2013-12-01T10:51:53Z</time>
      </trkpt>
      <trkpt lat="43.82485" lon="7.07328">
        <ele>1264</ele>
        <time>2013-12-01T10:51:59Z</time>
      </trkpt>
      <trkpt lat="43.82484" lon="7.07342">
        <ele>1263</ele>
        <time>2013-12-01T10:52:10Z</time>
      </trkpt>
      <trkpt lat="43.82482" lon="7.07356">
        <ele>1262</ele>
        <time>2013-12-01T10:52:22Z</time>
      </trkpt>
      <trkpt lat="43.82481" lon="7.07372">
        <ele>1261</ele>
        <time>2013-12-01T10:52:34Z</time>
      </trkpt>
      <trkpt lat="43.82479" lon="7.07376">
        <ele>1259</ele>
        <time>2013-12-01T10:52:43Z</time>
      </trkpt>
      <trkpt lat="43.82478" lon="7.07383">
        <ele>1259</ele>
        <time>2013-12-01T10:52:53Z</time>
      </trkpt>
      <trkpt lat="43.82481" lon="7.07399">
        <ele>1258</ele>
        <time>2013-12-01T10:53:05Z</time>
      </trkpt>
      <trkpt lat="43.82484" lon="7.07414">
        <ele>1256</ele>
        <time>2013-12-01T10:53:17Z</time>
      </trkpt>
      <trkpt lat="43.82486" lon="7.07428">
        <ele>1255</ele>
        <time>2013-12-01T10:53:29Z</time>
      </trkpt>
      <trkpt lat="43.82489" lon="7.07441">
        <ele>1255</ele>
        <time>2013-12-01T10:53:40Z</time>
      </trkpt>
      <trkpt lat="43.82491" lon="7.07452">
        <ele>1256</ele>
        <time>2013-12-01T10:53:50Z</time>
      </trkpt>
      <trkpt lat="43.82493" lon="7.07458">
        <ele>1256</ele>
        <time>2013-12-01T10:53:58Z</time>
      </trkpt>
      <trkpt lat="43.82498" lon="7.07466">
        <ele>1256</ele>
        <time>2013-12-01T10:54:07Z</time>
      </trkpt>
      <trkpt lat="43.82498" lon="7.07469">
        <ele>1256</ele>
        <time>2013-12-01T10:54:10Z</time>
      </trkpt>
      <trkpt lat="43.82499" lon="7.07478">
        <ele>1258</ele>
        <time>2013-12-01T10:54:18Z</time>
      </trkpt>
      <trkpt lat="43.82497" lon="7.07487">
        <ele>1258</ele>
        <time>2013-12-01T10:54:27Z</time>
      </trkpt>
      <trkpt lat="43.82495" lon="7.07497">
        <ele>1259</ele>
        <time>2013-12-01T10:54:36Z</time>
      </trkpt>
      <trkpt lat="43.82496" lon="7.07502">
        <ele>1259</ele>
        <time>2013-12-01T10:54:40Z</time>
      </trkpt>
      <trkpt lat="43.825" lon="7.07514">
        <ele>1258</ele>
        <time>2013-12-01T10:54:50Z</time>
      </trkpt>
      <trkpt lat="43.82497" lon="7.07522">
        <ele>1258</ele>
        <time>2013-12-01T10:54:58Z</time>
      </trkpt>
      <trkpt lat="43.82491" lon="7.07532">
        <ele>1259</ele>
        <time>2013-12-01T10:55:09Z</time>
      </trkpt>
      <trkpt lat="43.82488" lon="7.07545">
        <ele>1260</ele>
        <time>2013-12-01T10:55:20Z</time>
      </trkpt>
      <trkpt lat="43.82487" lon="7.07553">
        <ele>1260</ele>
        <time>2013-12-01T10:55:28Z</time>
      </trkpt>
      <trkpt lat="43.82487" lon="7.0756">
        <ele>1262</ele>
        <time>2013-12-01T10:55:36Z</time>
      </trkpt>
      <trkpt lat="43.82486" lon="7.07568">
        <ele>1263</ele>
        <time>2013-12-01T10:55:45Z</time>
      </trkpt>
      <trkpt lat="43.82485" lon="7.07579">
        <ele>1264</ele>
        <time>2013-12-01T10:55:55Z</time>
      </trkpt>
      <trkpt lat="43.82481" lon="7.07593">
        <ele>1263</ele>
        <time>2013-12-01T10:56:07Z</time>
      </trkpt>
      <trkpt lat="43.82477" lon="7.07607">
        <ele>1261</ele>
        <time>2013-12-01T10:56:18Z</time>
      </trkpt>
      <trkpt lat="43.82479" lon="7.07622">
        <ele>1261</ele>
        <time>2013-12-01T10:56:29Z</time>
      </trkpt>
      <trkpt lat="43.82485" lon="7.07633">
        <ele>1260</ele>
        <time>2013-12-01T10:56:57Z</time>
      </trkpt>
      <trkpt lat="43.82486" lon="7.07649">
        <ele>1262</ele>
        <time>2013-12-01T10:57:17Z</time>
      </trkpt>
      <trkpt lat="43.82484" lon="7.07656">
        <ele>1263</ele>
        <time>2013-12-01T10:57:25Z</time>
      </trkpt>
      <trkpt lat="43.82483" lon="7.07661">
        <ele>1265</ele>
        <time>2013-12-01T10:57:32Z</time>
      </trkpt>
      <trkpt lat="43.82481" lon="7.07665">
        <ele>1266</ele>
        <time>2013-12-01T10:57:41Z</time>
      </trkpt>
      <trkpt lat="43.82479" lon="7.07671">
        <ele>1266</ele>
        <time>2013-12-01T10:57:48Z</time>
      </trkpt>
      <trkpt lat="43.82481" lon="7.07678">
        <ele>1265</ele>
        <time>2013-12-01T10:57:55Z</time>
      </trkpt>
      <trkpt lat="43.82477" lon="7.07685">
        <ele>1265</ele>
        <time>2013-12-01T10:58:19Z</time>
      </trkpt>
      <trkpt lat="43.82474" lon="7.07695">
        <ele>1263</ele>
        <time>2013-12-01T10:58:28Z</time>
      </trkpt>
      <trkpt lat="43.82468" lon="7.07709">
        <ele>1261</ele>
        <time>2013-12-01T10:58:38Z</time>
      </trkpt>
      <trkpt lat="43.82465" lon="7.07715">
        <ele>1260</ele>
        <time>2013-12-01T10:58:43Z</time>
      </trkpt>
      <trkpt lat="43.82464" lon="7.07735">
        <ele>1261</ele>
        <time>2013-12-01T10:58:57Z</time>
      </trkpt>
      <trkpt lat="43.82465" lon="7.07748">
        <ele>1261</ele>
        <time>2013-12-01T10:59:07Z</time>
      </trkpt>
      <trkpt lat="43.82462" lon="7.07757">
        <ele>1261</ele>
        <time>2013-12-01T10:59:15Z</time>
      </trkpt>
      <trkpt lat="43.8246" lon="7.07768">
        <ele>1262</ele>
        <time>2013-12-01T10:59:27Z</time>
      </trkpt>
      <trkpt lat="43.82459" lon="7.07771">
        <ele>1262</ele>
        <time>2013-12-01T11:01:15Z</time>
      </trkpt>
      <trkpt lat="43.82458" lon="7.07774">
        <ele>1262</ele>
        <time>2013-12-01T11:01:25Z</time>
      </trkpt>
      <trkpt lat="43.82457" lon="7.0778">
        <ele>1262</ele>
        <time>2013-12-01T11:01:33Z</time>
      </trkpt>
      <trkpt lat="43.82455" lon="7.07784">
        <ele>1263</ele>
        <time>2013-12-01T11:02:06Z</time>
      </trkpt>
      <trkpt lat="43.82454" lon="7.0779">
        <ele>1263</ele>
        <time>2013-12-01T11:02:14Z</time>
      </trkpt>
      <trkpt lat="43.82452" lon="7.07793">
        <ele>1263</ele>
        <time>2013-12-01T11:02:23Z</time>
      </trkpt>
      <trkpt lat="43.82451" lon="7.07802">
        <ele>1263</ele>
        <time>2013-12-01T11:02:32Z</time>
      </trkpt>
      <trkpt lat="43.8245" lon="7.0781">
        <ele>1263</ele>
        <time>2013-12-01T11:02:40Z</time>
      </trkpt>
      <trkpt lat="43.8245" lon="7.07817">
        <ele>1264</ele>
        <time>2013-12-01T11:02:50Z</time>
      </trkpt>
      <trkpt lat="43.8245" lon="7.07822">
        <ele>1264</ele>
        <time>2013-12-01T11:02:58Z</time>
      </trkpt>
      <trkpt lat="43.82451" lon="7.07825">
        <ele>1264</ele>
        <time>2013-12-01T11:03:07Z</time>
      </trkpt>
      <trkpt lat="43.8245" lon="7.07831">
        <ele>1264</ele>
        <time>2013-12-01T11:03:13Z</time>
      </trkpt>
      <trkpt lat="43.82449" lon="7.07838">
        <ele>1264</ele>
        <time>2013-12-01T11:03:20Z</time>
      </trkpt>
      <trkpt lat="43.8245" lon="7.07844">
        <ele>1266</ele>
        <time>2013-12-01T11:03:36Z</time>
      </trkpt>
      <trkpt lat="43.82453" lon="7.07847">
        <ele>1266</ele>
        <time>2013-12-01T11:03:44Z</time>
      </trkpt>
      <trkpt lat="43.82458" lon="7.0785">
        <ele>1264</ele>
        <time>2013-12-01T11:03:49Z</time>
      </trkpt>
      <trkpt lat="43.82461" lon="7.07852">
        <ele>1263</ele>
        <time>2013-12-01T11:03:55Z</time>
      </trkpt>
      <trkpt lat="43.82467" lon="7.07851">
        <ele>1262</ele>
        <time>2013-12-01T11:04:05Z</time>
      </trkpt>
      <trkpt lat="43.82472" lon="7.07855">
        <ele>1260</ele>
        <time>2013-12-01T11:04:10Z</time>
      </trkpt>
      <trkpt lat="43.82474" lon="7.07862">
        <ele>1259</ele>
        <time>2013-12-01T11:04:56Z</time>
      </trkpt>
      <trkpt lat="43.82473" lon="7.07872">
        <ele>1259</ele>
        <time>2013-12-01T11:05:03Z</time>
      </trkpt>
      <trkpt lat="43.82472" lon="7.07881">
        <ele>1259</ele>
        <time>2013-12-01T11:05:09Z</time>
      </trkpt>
      <trkpt lat="43.82468" lon="7.0789">
        <ele>1258</ele>
        <time>2013-12-01T11:06:38Z</time>
      </trkpt>
      <trkpt lat="43.82464" lon="7.07888">
        <ele>1259</ele>
        <time>2013-12-01T11:06:45Z</time>
      </trkpt>
      <trkpt lat="43.82461" lon="7.07891">
        <ele>1260</ele>
        <time>2013-12-01T11:06:52Z</time>
      </trkpt>
      <trkpt lat="43.82454" lon="7.0789">
        <ele>1261</ele>
        <time>2013-12-01T11:07:02Z</time>
      </trkpt>
      <trkpt lat="43.8245" lon="7.07894">
        <ele>1263</ele>
        <time>2013-12-01T11:07:09Z</time>
      </trkpt>
      <trkpt lat="43.82447" lon="7.07901">
        <ele>1263</ele>
        <time>2013-12-01T11:07:17Z</time>
      </trkpt>
      <trkpt lat="43.82444" lon="7.07901">
        <ele>1264</ele>
        <time>2013-12-01T11:07:24Z</time>
      </trkpt>
      <trkpt lat="43.82441" lon="7.079">
        <ele>1265</ele>
        <time>2013-12-01T11:07:30Z</time>
      </trkpt>
      <trkpt lat="43.82439" lon="7.07905">
        <ele>1264</ele>
        <time>2013-12-01T11:07:36Z</time>
      </trkpt>
      <trkpt lat="43.82432" lon="7.07917">
        <ele>1263</ele>
        <time>2013-12-01T11:07:49Z</time>
      </trkpt>
      <trkpt lat="43.82431" lon="7.0792">
        <ele>1263</ele>
        <time>2013-12-01T11:07:57Z</time>
      </trkpt>
      <trkpt lat="43.82432" lon="7.0792">
        <ele>1263</ele>
        <time>2013-12-01T11:08:06Z</time>
      </trkpt>
      <trkpt lat="43.82432" lon="7.07927">
        <ele>1262</ele>
        <time>2013-12-01T11:08:13Z</time>
      </trkpt>
      <trkpt lat="43.82435" lon="7.07937">
        <ele>1261</ele>
        <time>2013-12-01T11:08:22Z</time>
      </trkpt>
      <trkpt lat="43.82436" lon="7.07946">
        <ele>1259</ele>
        <time>2013-12-01T11:09:09Z</time>
      </trkpt>
      <trkpt lat="43.82428" lon="7.07951">
        <ele>1259</ele>
        <time>2013-12-01T11:09:18Z</time>
      </trkpt>
      <trkpt lat="43.82427" lon="7.07954">
        <ele>1260</ele>
        <time>2013-12-01T11:09:24Z</time>
      </trkpt>
      <trkpt lat="43.82425" lon="7.07961">
        <ele>1259</ele>
        <time>2013-12-01T11:09:32Z</time>
      </trkpt>
      <trkpt lat="43.82423" lon="7.07967">
        <ele>1259</ele>
        <time>2013-12-01T11:09:38Z</time>
      </trkpt>
      <trkpt lat="43.8242" lon="7.07969">
        <ele>1259</ele>
        <time>2013-12-01T11:09:46Z</time>
      </trkpt>
      <trkpt lat="43.82418" lon="7.07969">
        <ele>1259</ele>
        <time>2013-12-01T11:09:54Z</time>
      </trkpt>
      <trkpt lat="43.82414" lon="7.07975">
        <ele>1257</ele>
        <time>2013-12-01T11:09:59Z</time>
      </trkpt>
      <trkpt lat="43.82409" lon="7.07977">
        <ele>1255</ele>
        <time>2013-12-01T11:10:05Z</time>
      </trkpt>
      <trkpt lat="43.82408" lon="7.07978">
        <ele>1255</ele>
        <time>2013-12-01T11:10:13Z</time>
      </trkpt>
      <trkpt lat="43.82405" lon="7.07978">
        <ele>1254</ele>
        <time>2013-12-01T11:10:24Z</time>
      </trkpt>
      <trkpt lat="43.82405" lon="7.07982">
        <ele>1253</ele>
        <time>2013-12-01T11:10:32Z</time>
      </trkpt>
      <trkpt lat="43.82406" lon="7.07985">
        <ele>1253</ele>
        <time>2013-12-01T11:10:39Z</time>
      </trkpt>
      <trkpt lat="43.82413" lon="7.07992">
        <ele>1255</ele>
        <time>2013-12-01T11:12:01Z</time>
      </trkpt>
      <trkpt lat="43.82414" lon="7.07995">
        <ele>1255</ele>
        <time>2013-12-01T11:12:09Z</time>
      </trkpt>
      <trkpt lat="43.82416" lon="7.07999">
        <ele>1252</ele>
        <time>2013-12-01T11:12:14Z</time>
      </trkpt>
      <trkpt lat="43.82417" lon="7.08004">
        <ele>1251</ele>
        <time>2013-12-01T11:12:22Z</time>
      </trkpt>
      <trkpt lat="43.82413" lon="7.08006">
        <ele>1251</ele>
        <time>2013-12-01T11:12:30Z</time>
      </trkpt>
      <trkpt lat="43.8241" lon="7.08009">
        <ele>1251</ele>
        <time>2013-12-01T11:12:37Z</time>
      </trkpt>
      <trkpt lat="43.82408" lon="7.08013">
        <ele>1250</ele>
        <time>2013-12-01T11:12:43Z</time>
      </trkpt>
      <trkpt lat="43.82403" lon="7.08017">
        <ele>1251</ele>
        <time>2013-12-01T11:12:50Z</time>
      </trkpt>
      <trkpt lat="43.82398" lon="7.0802">
        <ele>1251</ele>
        <time>2013-12-01T11:12:59Z</time>
      </trkpt>
      <trkpt lat="43.82395" lon="7.08028">
        <ele>1251</ele>
        <time>2013-12-01T11:13:06Z</time>
      </trkpt>
      <trkpt lat="43.82391" lon="7.08033">
        <ele>1251</ele>
        <time>2013-12-01T11:13:13Z</time>
      </trkpt>
      <trkpt lat="43.82387" lon="7.08036">
        <ele>1252</ele>
        <time>2013-12-01T11:13:19Z</time>
      </trkpt>
      <trkpt lat="43.82387" lon="7.08043">
        <ele>1252</ele>
        <time>2013-12-01T11:13:24Z</time>
      </trkpt>
      <trkpt lat="43.82389" lon="7.08055">
        <ele>1253</ele>
        <time>2013-12-01T11:13:32Z</time>
      </trkpt>
      <trkpt lat="43.82389" lon="7.08063">
        <ele>1254</ele>
        <time>2013-12-01T11:13:39Z</time>
      </trkpt>
      <trkpt lat="43.8239" lon="7.08064">
        <ele>1253</ele>
        <time>2013-12-01T11:13:41Z</time>
      </trkpt>
      <trkpt lat="43.82392" lon="7.08064">
        <ele>1253</ele>
        <time>2013-12-01T11:13:43Z</time>
      </trkpt>
      <trkpt lat="43.82393" lon="7.08066">
        <ele>1253</ele>
        <time>2013-12-01T11:13:45Z</time>
      </trkpt>
      <trkpt lat="43.82397" lon="7.08071">
        <ele>1253</ele>
        <time>2013-12-01T11:13:49Z</time>
      </trkpt>
      <trkpt lat="43.82404" lon="7.08073">
        <ele>1251</ele>
        <time>2013-12-01T11:16:06Z</time>
      </trkpt>
      <trkpt lat="43.82404" lon="7.08078">
        <ele>1251</ele>
        <time>2013-12-01T11:16:13Z</time>
      </trkpt>
      <trkpt lat="43.82402" lon="7.08085">
        <ele>1252</ele>
        <time>2013-12-01T11:16:22Z</time>
      </trkpt>
      <trkpt lat="43.82398" lon="7.08082">
        <ele>1252</ele>
        <time>2013-12-01T11:16:30Z</time>
      </trkpt>
      <trkpt lat="43.82392" lon="7.08079">
        <ele>1253</ele>
        <time>2013-12-01T11:16:38Z</time>
      </trkpt>
      <trkpt lat="43.82389" lon="7.08086">
        <ele>1255</ele>
        <time>2013-12-01T11:19:20Z</time>
      </trkpt>
      <trkpt lat="43.82386" lon="7.08091">
        <ele>1255</ele>
        <time>2013-12-01T11:19:28Z</time>
      </trkpt>
      <trkpt lat="43.82387" lon="7.08096">
        <ele>1255</ele>
        <time>2013-12-01T11:19:33Z</time>
      </trkpt>
      <trkpt lat="43.82389" lon="7.08102">
        <ele>1256</ele>
        <time>2013-12-01T11:19:41Z</time>
      </trkpt>
      <trkpt lat="43.82381" lon="7.08107">
        <ele>1257</ele>
        <time>2013-12-01T11:21:06Z</time>
      </trkpt>
      <trkpt lat="43.82378" lon="7.08109">
        <ele>1257</ele>
        <time>2013-12-01T11:21:12Z</time>
      </trkpt>
      <trkpt lat="43.82375" lon="7.08107">
        <ele>1257</ele>
        <time>2013-12-01T11:21:16Z</time>
      </trkpt>
      <trkpt lat="43.82368" lon="7.08109">
        <ele>1258</ele>
        <time>2013-12-01T11:21:25Z</time>
      </trkpt>
      <trkpt lat="43.82362" lon="7.08109">
        <ele>1258</ele>
        <time>2013-12-01T11:21:33Z</time>
      </trkpt>
      <trkpt lat="43.82358" lon="7.08112">
        <ele>1259</ele>
        <time>2013-12-01T11:21:42Z</time>
      </trkpt>
      <trkpt lat="43.82355" lon="7.08115">
        <ele>1260</ele>
        <time>2013-12-01T11:21:50Z</time>
      </trkpt>
      <trkpt lat="43.82352" lon="7.08118">
        <ele>1260</ele>
        <time>2013-12-01T11:22:02Z</time>
      </trkpt>
      <trkpt lat="43.82349" lon="7.08125">
        <ele>1262</ele>
        <time>2013-12-01T11:22:11Z</time>
      </trkpt>
      <trkpt lat="43.82345" lon="7.08133">
        <ele>1263</ele>
        <time>2013-12-01T11:22:20Z</time>
      </trkpt>
      <trkpt lat="43.82342" lon="7.08146">
        <ele>1263</ele>
        <time>2013-12-01T11:22:31Z</time>
      </trkpt>
      <trkpt lat="43.82341" lon="7.08158">
        <ele>1263</ele>
        <time>2013-12-01T11:22:41Z</time>
      </trkpt>
      <trkpt lat="43.82342" lon="7.08169">
        <ele>1265</ele>
        <time>2013-12-01T11:22:52Z</time>
      </trkpt>
      <trkpt lat="43.82343" lon="7.08179">
        <ele>1266</ele>
        <time>2013-12-01T11:23:02Z</time>
      </trkpt>
      <trkpt lat="43.82342" lon="7.0819">
        <ele>1267</ele>
        <time>2013-12-01T11:23:13Z</time>
      </trkpt>
      <trkpt lat="43.82344" lon="7.08198">
        <ele>1268</ele>
        <time>2013-12-01T11:23:22Z</time>
      </trkpt>
      <trkpt lat="43.82346" lon="7.08202">
        <ele>1269</ele>
        <time>2013-12-01T11:23:29Z</time>
      </trkpt>
      <trkpt lat="43.82347" lon="7.08207">
        <ele>1269</ele>
        <time>2013-12-01T11:23:34Z</time>
      </trkpt>
      <trkpt lat="43.8235" lon="7.08216">
        <ele>1269</ele>
        <time>2013-12-01T11:23:43Z</time>
      </trkpt>
      <trkpt lat="43.8235" lon="7.08223">
        <ele>1269</ele>
        <time>2013-12-01T11:23:55Z</time>
      </trkpt>
      <trkpt lat="43.82348" lon="7.08235">
        <ele>1269</ele>
        <time>2013-12-01T11:24:05Z</time>
      </trkpt>
      <trkpt lat="43.82348" lon="7.08245">
        <ele>1268</ele>
        <time>2013-12-01T11:24:13Z</time>
      </trkpt>
      <trkpt lat="43.82347" lon="7.08247">
        <ele>1267</ele>
        <time>2013-12-01T11:24:15Z</time>
      </trkpt>
      <trkpt lat="43.82346" lon="7.08258">
        <ele>1266</ele>
        <time>2013-12-01T11:24:24Z</time>
      </trkpt>
      <trkpt lat="43.82345" lon="7.08266">
        <ele>1264</ele>
        <time>2013-12-01T11:24:31Z</time>
      </trkpt>
      <trkpt lat="43.82341" lon="7.08263">
        <ele>1262</ele>
        <time>2013-12-01T11:24:37Z</time>
      </trkpt>
      <trkpt lat="43.82334" lon="7.08267">
        <ele>1260</ele>
        <time>2013-12-01T11:24:44Z</time>
      </trkpt>
      <trkpt lat="43.82329" lon="7.0827">
        <ele>1259</ele>
        <time>2013-12-01T11:24:52Z</time>
      </trkpt>
      <trkpt lat="43.82329" lon="7.08273">
        <ele>1259</ele>
        <time>2013-12-01T11:25:01Z</time>
      </trkpt>
      <trkpt lat="43.8233" lon="7.08284">
        <ele>1259</ele>
        <time>2013-12-01T11:25:10Z</time>
      </trkpt>
      <trkpt lat="43.82335" lon="7.08297">
        <ele>1258</ele>
        <time>2013-12-01T11:25:21Z</time>
      </trkpt>
      <trkpt lat="43.82336" lon="7.08303">
        <ele>1258</ele>
        <time>2013-12-01T11:25:26Z</time>
      </trkpt>
      <trkpt lat="43.82331" lon="7.08317">
        <ele>1257</ele>
        <time>2013-12-01T11:25:37Z</time>
      </trkpt>
      <trkpt lat="43.82329" lon="7.08331">
        <ele>1257</ele>
        <time>2013-12-01T11:25:47Z</time>
      </trkpt>
      <trkpt lat="43.82328" lon="7.08339">
        <ele>1258</ele>
        <time>2013-12-01T11:25:55Z</time>
      </trkpt>
      <trkpt lat="43.82328" lon="7.08352">
        <ele>1259</ele>
        <time>2013-12-01T11:26:06Z</time>
      </trkpt>
      <trkpt lat="43.82325" lon="7.08362">
        <ele>1260</ele>
        <time>2013-12-01T11:26:15Z</time>
      </trkpt>
      <trkpt lat="43.82322" lon="7.08372">
        <ele>1261</ele>
        <time>2013-12-01T11:26:25Z</time>
      </trkpt>
      <trkpt lat="43.82325" lon="7.08381">
        <ele>1262</ele>
        <time>2013-12-01T11:26:33Z</time>
      </trkpt>
      <trkpt lat="43.82325" lon="7.08393">
        <ele>1262</ele>
        <time>2013-12-01T11:26:44Z</time>
      </trkpt>
      <trkpt lat="43.82321" lon="7.08401">
        <ele>1264</ele>
        <time>2013-12-01T11:26:54Z</time>
      </trkpt>
      <trkpt lat="43.82317" lon="7.08413">
        <ele>1265</ele>
        <time>2013-12-01T11:27:07Z</time>
      </trkpt>
      <trkpt lat="43.82312" lon="7.08415">
        <ele>1266</ele>
        <time>2013-12-01T11:27:15Z</time>
      </trkpt>
      <trkpt lat="43.82308" lon="7.08426">
        <ele>1268</ele>
        <time>2013-12-01T11:27:26Z</time>
      </trkpt>
      <trkpt lat="43.82303" lon="7.08427">
        <ele>1269</ele>
        <time>2013-12-01T11:27:34Z</time>
      </trkpt>
      <trkpt lat="43.82296" lon="7.08425">
        <ele>1270</ele>
        <time>2013-12-01T11:27:44Z</time>
      </trkpt>
      <trkpt lat="43.8229" lon="7.08427">
        <ele>1272</ele>
        <time>2013-12-01T11:27:55Z</time>
      </trkpt>
      <trkpt lat="43.82286" lon="7.08432">
        <ele>1272</ele>
        <time>2013-12-01T11:28:03Z</time>
      </trkpt>
      <trkpt lat="43.82287" lon="7.08444">
        <ele>1273</ele>
        <time>2013-12-01T11:28:12Z</time>
      </trkpt>
      <trkpt lat="43.82288" lon="7.08454">
        <ele>1273</ele>
        <time>2013-12-01T11:28:20Z</time>
      </trkpt>
      <trkpt lat="43.82286" lon="7.08463">
        <ele>1273</ele>
        <time>2013-12-01T11:28:27Z</time>
      </trkpt>
      <trkpt lat="43.82285" lon="7.08479">
        <ele>1272</ele>
        <time>2013-12-01T11:28:39Z</time>
      </trkpt>
      <trkpt lat="43.82284" lon="7.08482">
        <ele>1272</ele>
        <time>2013-12-01T11:28:41Z</time>
      </trkpt>
      <trkpt lat="43.82281" lon="7.08485">
        <ele>1272</ele>
        <time>2013-12-01T11:28:45Z</time>
      </trkpt>
      <trkpt lat="43.82275" lon="7.08496">
        <ele>1271</ele>
        <time>2013-12-01T11:28:54Z</time>
      </trkpt>
      <trkpt lat="43.8227" lon="7.08508">
        <ele>1271</ele>
        <time>2013-12-01T11:29:04Z</time>
      </trkpt>
      <trkpt lat="43.82263" lon="7.08516">
        <ele>1272</ele>
        <time>2013-12-01T11:29:15Z</time>
      </trkpt>
      <trkpt lat="43.82262" lon="7.08518">
        <ele>1272</ele>
        <time>2013-12-01T11:29:24Z</time>
      </trkpt>
      <trkpt lat="43.82256" lon="7.08525">
        <ele>1273</ele>
        <time>2013-12-01T11:29:33Z</time>
      </trkpt>
      <trkpt lat="43.82248" lon="7.0853">
        <ele>1274</ele>
        <time>2013-12-01T11:29:45Z</time>
      </trkpt>
      <trkpt lat="43.82243" lon="7.08535">
        <ele>1276</ele>
        <time>2013-12-01T11:29:54Z</time>
      </trkpt>
      <trkpt lat="43.8224" lon="7.0854">
        <ele>1277</ele>
        <time>2013-12-01T11:30:02Z</time>
      </trkpt>
      <trkpt lat="43.82238" lon="7.0854">
        <ele>1278</ele>
        <time>2013-12-01T11:30:10Z</time>
      </trkpt>
      <trkpt lat="43.82235" lon="7.08548">
        <ele>1278</ele>
        <time>2013-12-01T11:30:21Z</time>
      </trkpt>
      <trkpt lat="43.82235" lon="7.08556">
        <ele>1279</ele>
        <time>2013-12-01T11:30:30Z</time>
      </trkpt>
      <trkpt lat="43.82236" lon="7.0856">
        <ele>1280</ele>
        <time>2013-12-01T11:30:42Z</time>
      </trkpt>
      <trkpt lat="43.82236" lon="7.08574">
        <ele>1280</ele>
        <time>2013-12-01T11:30:53Z</time>
      </trkpt>
      <trkpt lat="43.82238" lon="7.08582">
        <ele>1281</ele>
        <time>2013-12-01T11:31:01Z</time>
      </trkpt>
      <trkpt lat="43.82235" lon="7.0859">
        <ele>1283</ele>
        <time>2013-12-01T11:31:11Z</time>
      </trkpt>
      <trkpt lat="43.82234" lon="7.08593">
        <ele>1283</ele>
        <time>2013-12-01T11:31:16Z</time>
      </trkpt>
      <trkpt lat="43.82233" lon="7.08602">
        <ele>1284</ele>
        <time>2013-12-01T11:31:25Z</time>
      </trkpt>
      <trkpt lat="43.8223" lon="7.08613">
        <ele>1283</ele>
        <time>2013-12-01T11:31:34Z</time>
      </trkpt>
      <trkpt lat="43.8223" lon="7.08621">
        <ele>1283</ele>
        <time>2013-12-01T11:31:41Z</time>
      </trkpt>
      <trkpt lat="43.82231" lon="7.08629">
        <ele>1285</ele>
        <time>2013-12-01T11:31:48Z</time>
      </trkpt>
      <trkpt lat="43.82232" lon="7.08641">
        <ele>1285</ele>
        <time>2013-12-01T11:31:58Z</time>
      </trkpt>
      <trkpt lat="43.82231" lon="7.08654">
        <ele>1283</ele>
        <time>2013-12-01T11:32:06Z</time>
      </trkpt>
      <trkpt lat="43.82228" lon="7.08668">
        <ele>1284</ele>
        <time>2013-12-01T11:32:16Z</time>
      </trkpt>
      <trkpt lat="43.82227" lon="7.0867">
        <ele>1284</ele>
        <time>2013-12-01T11:32:18Z</time>
      </trkpt>
      <trkpt lat="43.82227" lon="7.08676">
        <ele>1284</ele>
        <time>2013-12-01T11:32:22Z</time>
      </trkpt>
      <trkpt lat="43.82228" lon="7.08691">
        <ele>1285</ele>
        <time>2013-12-01T11:32:33Z</time>
      </trkpt>
      <trkpt lat="43.8223" lon="7.08703">
        <ele>1285</ele>
        <time>2013-12-01T11:32:42Z</time>
      </trkpt>
      <trkpt lat="43.82233" lon="7.08712">
        <ele>1286</ele>
        <time>2013-12-01T11:32:51Z</time>
      </trkpt>
      <trkpt lat="43.82234" lon="7.08722">
        <ele>1286</ele>
        <time>2013-12-01T11:32:59Z</time>
      </trkpt>
      <trkpt lat="43.82233" lon="7.08731">
        <ele>1287</ele>
        <time>2013-12-01T11:33:07Z</time>
      </trkpt>
      <trkpt lat="43.82234" lon="7.08741">
        <ele>1287</ele>
        <time>2013-12-01T11:33:16Z</time>
      </trkpt>
      <trkpt lat="43.82232" lon="7.08749">
        <ele>1287</ele>
        <time>2013-12-01T11:33:24Z</time>
      </trkpt>
      <trkpt lat="43.8223" lon="7.08765">
        <ele>1280</ele>
        <time>2013-12-01T12:38:45Z</time>
      </trkpt>
      <trkpt lat="43.82229" lon="7.08761">
        <ele>1280</ele>
        <time>2013-12-01T12:38:49Z</time>
      </trkpt>
      <trkpt lat="43.82229" lon="7.08752">
        <ele>1280</ele>
        <time>2013-12-01T12:38:57Z</time>
      </trkpt>
      <trkpt lat="43.82233" lon="7.08746">
        <ele>1281</ele>
        <time>2013-12-01T12:39:06Z</time>
      </trkpt>
      <trkpt lat="43.82232" lon="7.08741">
        <ele>1281</ele>
        <time>2013-12-01T12:39:12Z</time>
      </trkpt>
      <trkpt lat="43.82232" lon="7.0873">
        <ele>1281</ele>
        <time>2013-12-01T12:39:23Z</time>
      </trkpt>
      <trkpt lat="43.82231" lon="7.08727">
        <ele>1280</ele>
        <time>2013-12-01T12:39:25Z</time>
      </trkpt>
      <trkpt lat="43.82231" lon="7.08714">
        <ele>1279</ele>
        <time>2013-12-01T12:39:36Z</time>
      </trkpt>
      <trkpt lat="43.82231" lon="7.0871">
        <ele>1279</ele>
        <time>2013-12-01T12:39:43Z</time>
      </trkpt>
      <trkpt lat="43.8223" lon="7.08708">
        <ele>1279</ele>
        <time>2013-12-01T12:39:55Z</time>
      </trkpt>
      <trkpt lat="43.82229" lon="7.08703">
        <ele>1279</ele>
        <time>2013-12-01T12:40:04Z</time>
      </trkpt>
      <trkpt lat="43.82225" lon="7.08689">
        <ele>1278</ele>
        <time>2013-12-01T12:40:15Z</time>
      </trkpt>
      <trkpt lat="43.82226" lon="7.08675">
        <ele>1278</ele>
        <time>2013-12-01T12:40:26Z</time>
      </trkpt>
      <trkpt lat="43.82227" lon="7.08667">
        <ele>1278</ele>
        <time>2013-12-01T12:40:34Z</time>
      </trkpt>
      <trkpt lat="43.82228" lon="7.0866">
        <ele>1278</ele>
        <time>2013-12-01T12:40:40Z</time>
      </trkpt>
      <trkpt lat="43.82231" lon="7.08647">
        <ele>1278</ele>
        <time>2013-12-01T12:40:51Z</time>
      </trkpt>
      <trkpt lat="43.8223" lon="7.08634">
        <ele>1278</ele>
        <time>2013-12-01T12:41:01Z</time>
      </trkpt>
      <trkpt lat="43.82228" lon="7.08622">
        <ele>1278</ele>
        <time>2013-12-01T12:41:11Z</time>
      </trkpt>
      <trkpt lat="43.8223" lon="7.08611">
        <ele>1278</ele>
        <time>2013-12-01T12:41:20Z</time>
      </trkpt>
      <trkpt lat="43.82231" lon="7.08599">
        <ele>1277</ele>
        <time>2013-12-01T12:41:31Z</time>
      </trkpt>
      <trkpt lat="43.82233" lon="7.08593">
        <ele>1276</ele>
        <time>2013-12-01T12:41:38Z</time>
      </trkpt>
      <trkpt lat="43.82234" lon="7.0859">
        <ele>1277</ele>
        <time>2013-12-01T12:41:44Z</time>
      </trkpt>
      <trkpt lat="43.82238" lon="7.08582">
        <ele>1274</ele>
        <time>2013-12-01T12:41:54Z</time>
      </trkpt>
      <trkpt lat="43.82235" lon="7.08572">
        <ele>1273</ele>
        <time>2013-12-01T12:42:03Z</time>
      </trkpt>
      <trkpt lat="43.82235" lon="7.08561">
        <ele>1272</ele>
        <time>2013-12-01T12:42:13Z</time>
      </trkpt>
      <trkpt lat="43.82235" lon="7.08556">
        <ele>1272</ele>
        <time>2013-12-01T12:42:21Z</time>
      </trkpt>
      <trkpt lat="43.82235" lon="7.0855">
        <ele>1271</ele>
        <time>2013-12-01T12:42:29Z</time>
      </trkpt>
      <trkpt lat="43.82237" lon="7.08541">
        <ele>1271</ele>
        <time>2013-12-01T12:42:38Z</time>
      </trkpt>
      <trkpt lat="43.8224" lon="7.08538">
        <ele>1271</ele>
        <time>2013-12-01T12:42:46Z</time>
      </trkpt>
      <trkpt lat="43.82243" lon="7.08532">
        <ele>1269</ele>
        <time>2013-12-01T12:42:56Z</time>
      </trkpt>
      <trkpt lat="43.82247" lon="7.08529">
        <ele>1269</ele>
        <time>2013-12-01T12:43:04Z</time>
      </trkpt>
      <trkpt lat="43.82253" lon="7.08526">
        <ele>1266</ele>
        <time>2013-12-01T12:43:13Z</time>
      </trkpt>
      <trkpt lat="43.82257" lon="7.08522">
        <ele>1266</ele>
        <time>2013-12-01T12:43:18Z</time>
      </trkpt>
      <trkpt lat="43.82264" lon="7.08513">
        <ele>1265</ele>
        <time>2013-12-01T12:43:29Z</time>
      </trkpt>
      <trkpt lat="43.82271" lon="7.08505">
        <ele>1264</ele>
        <time>2013-12-01T12:43:39Z</time>
      </trkpt>
      <trkpt lat="43.82274" lon="7.08496">
        <ele>1264</ele>
        <time>2013-12-01T12:43:48Z</time>
      </trkpt>
      <trkpt lat="43.82277" lon="7.08491">
        <ele>1264</ele>
        <time>2013-12-01T12:43:53Z</time>
      </trkpt>
      <trkpt lat="43.82282" lon="7.08483">
        <ele>1265</ele>
        <time>2013-12-01T12:44:03Z</time>
      </trkpt>
      <trkpt lat="43.82283" lon="7.08478">
        <ele>1265</ele>
        <time>2013-12-01T12:44:11Z</time>
      </trkpt>
      <trkpt lat="43.82286" lon="7.08472">
        <ele>1267</ele>
        <time>2013-12-01T12:44:20Z</time>
      </trkpt>
      <trkpt lat="43.82286" lon="7.08467">
        <ele>1266</ele>
        <time>2013-12-01T12:44:24Z</time>
      </trkpt>
      <trkpt lat="43.82286" lon="7.08451">
        <ele>1266</ele>
        <time>2013-12-01T12:44:36Z</time>
      </trkpt>
      <trkpt lat="43.82286" lon="7.08447">
        <ele>1267</ele>
        <time>2013-12-01T12:44:43Z</time>
      </trkpt>
      <trkpt lat="43.82286" lon="7.08433">
        <ele>1267</ele>
        <time>2013-12-01T12:44:53Z</time>
      </trkpt>
      <trkpt lat="43.82294" lon="7.08428">
        <ele>1265</ele>
        <time>2013-12-01T12:45:04Z</time>
      </trkpt>
      <trkpt lat="43.82302" lon="7.08427">
        <ele>1264</ele>
        <time>2013-12-01T12:45:14Z</time>
      </trkpt>
      <trkpt lat="43.82307" lon="7.08427">
        <ele>1262</ele>
        <time>2013-12-01T12:45:23Z</time>
      </trkpt>
      <trkpt lat="43.82307" lon="7.08425">
        <ele>1262</ele>
        <time>2013-12-01T12:45:25Z</time>
      </trkpt>
      <trkpt lat="43.82312" lon="7.08415">
        <ele>1260</ele>
        <time>2013-12-01T12:45:35Z</time>
      </trkpt>
      <trkpt lat="43.82317" lon="7.08412">
        <ele>1259</ele>
        <time>2013-12-01T12:45:43Z</time>
      </trkpt>
      <trkpt lat="43.8232" lon="7.084">
        <ele>1258</ele>
        <time>2013-12-01T12:45:53Z</time>
      </trkpt>
      <trkpt lat="43.82322" lon="7.08394">
        <ele>1256</ele>
        <time>2013-12-01T12:45:59Z</time>
      </trkpt>
      <trkpt lat="43.82322" lon="7.08383">
        <ele>1255</ele>
        <time>2013-12-01T12:46:08Z</time>
      </trkpt>
      <trkpt lat="43.82321" lon="7.08378">
        <ele>1255</ele>
        <time>2013-12-01T12:46:12Z</time>
      </trkpt>
      <trkpt lat="43.8232" lon="7.08376">
        <ele>1255</ele>
        <time>2013-12-01T12:46:14Z</time>
      </trkpt>
      <trkpt lat="43.8232" lon="7.08369">
        <ele>1256</ele>
        <time>2013-12-01T12:46:19Z</time>
      </trkpt>
      <trkpt lat="43.82325" lon="7.08354">
        <ele>1253</ele>
        <time>2013-12-01T12:46:31Z</time>
      </trkpt>
      <trkpt lat="43.82327" lon="7.0834">
        <ele>1252</ele>
        <time>2013-12-01T12:46:41Z</time>
      </trkpt>
      <trkpt lat="43.82328" lon="7.0833">
        <ele>1250</ele>
        <time>2013-12-01T12:46:47Z</time>
      </trkpt>
      <trkpt lat="43.82327" lon="7.08318">
        <ele>1250</ele>
        <time>2013-12-01T12:46:56Z</time>
      </trkpt>
      <trkpt lat="43.82331" lon="7.08309">
        <ele>1250</ele>
        <time>2013-12-01T12:47:06Z</time>
      </trkpt>
      <trkpt lat="43.82336" lon="7.08304">
        <ele>1250</ele>
        <time>2013-12-01T12:47:16Z</time>
      </trkpt>
      <trkpt lat="43.82335" lon="7.08287">
        <ele>1251</ele>
        <time>2013-12-01T12:47:25Z</time>
      </trkpt>
      <trkpt lat="43.82334" lon="7.08285">
        <ele>1251</ele>
        <time>2013-12-01T12:47:27Z</time>
      </trkpt>
      <trkpt lat="43.82331" lon="7.08274">
        <ele>1252</ele>
        <time>2013-12-01T12:47:37Z</time>
      </trkpt>
      <trkpt lat="43.82331" lon="7.0827">
        <ele>1253</ele>
        <time>2013-12-01T12:47:46Z</time>
      </trkpt>
      <trkpt lat="43.8233" lon="7.08262">
        <ele>1252</ele>
        <time>2013-12-01T12:48:12Z</time>
      </trkpt>
      <trkpt lat="43.82327" lon="7.08253">
        <ele>1252</ele>
        <time>2013-12-01T12:48:19Z</time>
      </trkpt>
      <trkpt lat="43.82322" lon="7.08239">
        <ele>1252</ele>
        <time>2013-12-01T12:48:29Z</time>
      </trkpt>
      <trkpt lat="43.82318" lon="7.08224">
        <ele>1252</ele>
        <time>2013-12-01T12:48:40Z</time>
      </trkpt>
      <trkpt lat="43.82316" lon="7.08211">
        <ele>1251</ele>
        <time>2013-12-01T12:48:51Z</time>
      </trkpt>
      <trkpt lat="43.82315" lon="7.08206">
        <ele>1250</ele>
        <time>2013-12-01T12:48:58Z</time>
      </trkpt>
      <trkpt lat="43.8231" lon="7.08193">
        <ele>1247</ele>
        <time>2013-12-01T12:49:07Z</time>
      </trkpt>
      <trkpt lat="43.82309" lon="7.08189">
        <ele>1246</ele>
        <time>2013-12-01T12:49:10Z</time>
      </trkpt>
      <trkpt lat="43.82308" lon="7.08187">
        <ele>1246</ele>
        <time>2013-12-01T12:49:12Z</time>
      </trkpt>
      <trkpt lat="43.82305" lon="7.08185">
        <ele>1245</ele>
        <time>2013-12-01T12:49:14Z</time>
      </trkpt>
      <trkpt lat="43.82304" lon="7.0818">
        <ele>1243</ele>
        <time>2013-12-01T12:49:17Z</time>
      </trkpt>
      <trkpt lat="43.82299" lon="7.08169">
        <ele>1240</ele>
        <time>2013-12-01T12:49:27Z</time>
      </trkpt>
      <trkpt lat="43.82294" lon="7.08169">
        <ele>1239</ele>
        <time>2013-12-01T12:49:31Z</time>
      </trkpt>
      <trkpt lat="43.82282" lon="7.08181">
        <ele>1237</ele>
        <time>2013-12-01T12:49:43Z</time>
      </trkpt>
      <trkpt lat="43.82278" lon="7.08186">
        <ele>1237</ele>
        <time>2013-12-01T12:49:50Z</time>
      </trkpt>
      <trkpt lat="43.82275" lon="7.08186">
        <ele>1237</ele>
        <time>2013-12-01T12:49:54Z</time>
      </trkpt>
      <trkpt lat="43.8227" lon="7.08185">
        <ele>1235</ele>
        <time>2013-12-01T12:50:01Z</time>
      </trkpt>
      <trkpt lat="43.82265" lon="7.08184">
        <ele>1234</ele>
        <time>2013-12-01T12:50:09Z</time>
      </trkpt>
      <trkpt lat="43.82258" lon="7.08181">
        <ele>1232</ele>
        <time>2013-12-01T12:50:18Z</time>
      </trkpt>
      <trkpt lat="43.82253" lon="7.08179">
        <ele>1231</ele>
        <time>2013-12-01T12:50:26Z</time>
      </trkpt>
      <trkpt lat="43.82246" lon="7.08177">
        <ele>1228</ele>
        <time>2013-12-01T12:50:36Z</time>
      </trkpt>
      <trkpt lat="43.82242" lon="7.08174">
        <ele>1226</ele>
        <time>2013-12-01T12:50:45Z</time>
      </trkpt>
      <trkpt lat="43.82237" lon="7.0817">
        <ele>1225</ele>
        <time>2013-12-01T12:50:54Z</time>
      </trkpt>
      <trkpt lat="43.82237" lon="7.08165">
        <ele>1223</ele>
        <time>2013-12-01T12:51:03Z</time>
      </trkpt>
      <trkpt lat="43.82239" lon="7.08154">
        <ele>1221</ele>
        <time>2013-12-01T12:51:12Z</time>
      </trkpt>
      <trkpt lat="43.82243" lon="7.08142">
        <ele>1221</ele>
        <time>2013-12-01T12:51:22Z</time>
      </trkpt>
      <trkpt lat="43.82242" lon="7.08127">
        <ele>1218</ele>
        <time>2013-12-01T12:51:34Z</time>
      </trkpt>
      <trkpt lat="43.82242" lon="7.08121">
        <ele>1217</ele>
        <time>2013-12-01T12:51:43Z</time>
      </trkpt>
      <trkpt lat="43.8224" lon="7.08112">
        <ele>1216</ele>
        <time>2013-12-01T12:51:52Z</time>
      </trkpt>
      <trkpt lat="43.82241" lon="7.08107">
        <ele>1214</ele>
        <time>2013-12-01T12:52:01Z</time>
      </trkpt>
      <trkpt lat="43.82241" lon="7.08103">
        <ele>1213</ele>
        <time>2013-12-01T12:52:07Z</time>
      </trkpt>
      <trkpt lat="43.8224" lon="7.08094">
        <ele>1210</ele>
        <time>2013-12-01T12:52:18Z</time>
      </trkpt>
      <trkpt lat="43.82237" lon="7.08087">
        <ele>1208</ele>
        <time>2013-12-01T12:52:25Z</time>
      </trkpt>
      <trkpt lat="43.82237" lon="7.08083">
        <ele>1207</ele>
        <time>2013-12-01T12:52:33Z</time>
      </trkpt>
      <trkpt lat="43.82238" lon="7.08073">
        <ele>1204</ele>
        <time>2013-12-01T12:52:45Z</time>
      </trkpt>
      <trkpt lat="43.82239" lon="7.08064">
        <ele>1201</ele>
        <time>2013-12-01T12:52:56Z</time>
      </trkpt>
      <trkpt lat="43.8224" lon="7.08058">
        <ele>1200</ele>
        <time>2013-12-01T12:53:06Z</time>
      </trkpt>
      <trkpt lat="43.8224" lon="7.08054">
        <ele>1199</ele>
        <time>2013-12-01T12:53:14Z</time>
      </trkpt>
      <trkpt lat="43.82238" lon="7.08046">
        <ele>1196</ele>
        <time>2013-12-01T12:53:24Z</time>
      </trkpt>
      <trkpt lat="43.82235" lon="7.08034">
        <ele>1195</ele>
        <time>2013-12-01T12:53:36Z</time>
      </trkpt>
      <trkpt lat="43.82233" lon="7.08029">
        <ele>1194</ele>
        <time>2013-12-01T12:53:47Z</time>
      </trkpt>
      <trkpt lat="43.82231" lon="7.0802">
        <ele>1192</ele>
        <time>2013-12-01T12:54:04Z</time>
      </trkpt>
      <trkpt lat="43.82229" lon="7.08008">
        <ele>1189</ele>
        <time>2013-12-01T12:54:17Z</time>
      </trkpt>
      <trkpt lat="43.82227" lon="7.07999">
        <ele>1188</ele>
        <time>2013-12-01T12:54:26Z</time>
      </trkpt>
      <trkpt lat="43.82225" lon="7.07991">
        <ele>1185</ele>
        <time>2013-12-01T12:54:35Z</time>
      </trkpt>
      <trkpt lat="43.82223" lon="7.07982">
        <ele>1183</ele>
        <time>2013-12-01T12:54:45Z</time>
      </trkpt>
      <trkpt lat="43.82222" lon="7.07974">
        <ele>1181</ele>
        <time>2013-12-01T12:54:55Z</time>
      </trkpt>
      <trkpt lat="43.8222" lon="7.07965">
        <ele>1180</ele>
        <time>2013-12-01T12:55:02Z</time>
      </trkpt>
      <trkpt lat="43.82219" lon="7.07963">
        <ele>1179</ele>
        <time>2013-12-01T12:55:04Z</time>
      </trkpt>
      <trkpt lat="43.82223" lon="7.0795">
        <ele>1178</ele>
        <time>2013-12-01T12:55:16Z</time>
      </trkpt>
      <trkpt lat="43.82223" lon="7.07937">
        <ele>1174</ele>
        <time>2013-12-01T12:55:29Z</time>
      </trkpt>
      <trkpt lat="43.82225" lon="7.07924">
        <ele>1172</ele>
        <time>2013-12-01T12:55:41Z</time>
      </trkpt>
      <trkpt lat="43.82223" lon="7.07924">
        <ele>1172</ele>
        <time>2013-12-01T12:55:48Z</time>
      </trkpt>
      <trkpt lat="43.82221" lon="7.07928">
        <ele>1171</ele>
        <time>2013-12-01T12:55:57Z</time>
      </trkpt>
      <trkpt lat="43.82218" lon="7.07929">
        <ele>1169</ele>
        <time>2013-12-01T12:56:09Z</time>
      </trkpt>
      <trkpt lat="43.8221" lon="7.07931">
        <ele>1166</ele>
        <time>2013-12-01T12:56:19Z</time>
      </trkpt>
      <trkpt lat="43.82203" lon="7.07934">
        <ele>1165</ele>
        <time>2013-12-01T12:56:29Z</time>
      </trkpt>
      <trkpt lat="43.82196" lon="7.07938">
        <ele>1164</ele>
        <time>2013-12-01T12:56:39Z</time>
      </trkpt>
      <trkpt lat="43.82188" lon="7.07941">
        <ele>1162</ele>
        <time>2013-12-01T12:56:49Z</time>
      </trkpt>
      <trkpt lat="43.8218" lon="7.07946">
        <ele>1160</ele>
        <time>2013-12-01T12:56:59Z</time>
      </trkpt>
      <trkpt lat="43.82172" lon="7.07956">
        <ele>1159</ele>
        <time>2013-12-01T12:57:11Z</time>
      </trkpt>
      <trkpt lat="43.82163" lon="7.07964">
        <ele>1157</ele>
        <time>2013-12-01T12:57:24Z</time>
      </trkpt>
      <trkpt lat="43.82157" lon="7.07971">
        <ele>1156</ele>
        <time>2013-12-01T12:57:33Z</time>
      </trkpt>
      <trkpt lat="43.82149" lon="7.07977">
        <ele>1154</ele>
        <time>2013-12-01T12:57:46Z</time>
      </trkpt>
      <trkpt lat="43.82143" lon="7.07972">
        <ele>1152</ele>
        <time>2013-12-01T12:57:56Z</time>
      </trkpt>
      <trkpt lat="43.82139" lon="7.07963">
        <ele>1151</ele>
        <time>2013-12-01T12:58:05Z</time>
      </trkpt>
      <trkpt lat="43.82134" lon="7.07951">
        <ele>1151</ele>
        <time>2013-12-01T12:58:16Z</time>
      </trkpt>
      <trkpt lat="43.82137" lon="7.07941">
        <ele>1150</ele>
        <time>2013-12-01T12:58:25Z</time>
      </trkpt>
      <trkpt lat="43.82144" lon="7.07934">
        <ele>1150</ele>
        <time>2013-12-01T12:58:35Z</time>
      </trkpt>
      <trkpt lat="43.82151" lon="7.07927">
        <ele>1150</ele>
        <time>2013-12-01T12:58:44Z</time>
      </trkpt>
      <trkpt lat="43.82158" lon="7.07924">
        <ele>1150</ele>
        <time>2013-12-01T12:58:53Z</time>
      </trkpt>
      <trkpt lat="43.82164" lon="7.0792">
        <ele>1151</ele>
        <time>2013-12-01T12:59:02Z</time>
      </trkpt>
      <trkpt lat="43.8217" lon="7.07912">
        <ele>1151</ele>
        <time>2013-12-01T12:59:12Z</time>
      </trkpt>
      <trkpt lat="43.82176" lon="7.07905">
        <ele>1151</ele>
        <time>2013-12-01T12:59:21Z</time>
      </trkpt>
      <trkpt lat="43.82182" lon="7.07893">
        <ele>1151</ele>
        <time>2013-12-01T12:59:35Z</time>
      </trkpt>
      <trkpt lat="43.82187" lon="7.0788">
        <ele>1152</ele>
        <time>2013-12-01T12:59:49Z</time>
      </trkpt>
      <trkpt lat="43.82192" lon="7.07865">
        <ele>1152</ele>
        <time>2013-12-01T13:00:01Z</time>
      </trkpt>
      <trkpt lat="43.82197" lon="7.07852">
        <ele>1152</ele>
        <time>2013-12-01T13:00:12Z</time>
      </trkpt>
      <trkpt lat="43.82198" lon="7.07846">
        <ele>1153</ele>
        <time>2013-12-01T13:00:22Z</time>
      </trkpt>
      <trkpt lat="43.82197" lon="7.07844">
        <ele>1153</ele>
        <time>2013-12-01T13:00:32Z</time>
      </trkpt>
      <trkpt lat="43.82199" lon="7.07843">
        <ele>1154</ele>
        <time>2013-12-01T13:00:42Z</time>
      </trkpt>
      <trkpt lat="43.82203" lon="7.07839">
        <ele>1157</ele>
        <time>2013-12-01T13:00:54Z</time>
      </trkpt>
      <trkpt lat="43.82205" lon="7.07836">
        <ele>1157</ele>
        <time>2013-12-01T13:01:02Z</time>
      </trkpt>
      <trkpt lat="43.82206" lon="7.07831">
        <ele>1157</ele>
        <time>2013-12-01T13:01:06Z</time>
      </trkpt>
      <trkpt lat="43.82205" lon="7.07818">
        <ele>1157</ele>
        <time>2013-12-01T13:01:17Z</time>
      </trkpt>
      <trkpt lat="43.82205" lon="7.07807">
        <ele>1157</ele>
        <time>2013-12-01T13:01:26Z</time>
      </trkpt>
      <trkpt lat="43.82205" lon="7.07804">
        <ele>1158</ele>
        <time>2013-12-01T13:01:28Z</time>
      </trkpt>
      <trkpt lat="43.8221" lon="7.07792">
        <ele>1158</ele>
        <time>2013-12-01T13:01:39Z</time>
      </trkpt>
      <trkpt lat="43.82215" lon="7.07778">
        <ele>1159</ele>
        <time>2013-12-01T13:01:53Z</time>
      </trkpt>
      <trkpt lat="43.82217" lon="7.07767">
        <ele>1159</ele>
        <time>2013-12-01T13:02:02Z</time>
      </trkpt>
      <trkpt lat="43.82217" lon="7.07755">
        <ele>1160</ele>
        <time>2013-12-01T13:02:14Z</time>
      </trkpt>
      <trkpt lat="43.82216" lon="7.07752">
        <ele>1159</ele>
        <time>2013-12-01T13:02:17Z</time>
      </trkpt>
      <trkpt lat="43.82217" lon="7.07738">
        <ele>1160</ele>
        <time>2013-12-01T13:02:28Z</time>
      </trkpt>
      <trkpt lat="43.82219" lon="7.07723">
        <ele>1161</ele>
        <time>2013-12-01T13:02:40Z</time>
      </trkpt>
      <trkpt lat="43.82216" lon="7.07707">
        <ele>1160</ele>
        <time>2013-12-01T13:02:52Z</time>
      </trkpt>
      <trkpt lat="43.82213" lon="7.07699">
        <ele>1160</ele>
        <time>2013-12-01T13:02:59Z</time>
      </trkpt>
      <trkpt lat="43.82215" lon="7.0769">
        <ele>1160</ele>
        <time>2013-12-01T13:03:08Z</time>
      </trkpt>
      <trkpt lat="43.82218" lon="7.07676">
        <ele>1160</ele>
        <time>2013-12-01T13:03:19Z</time>
      </trkpt>
      <trkpt lat="43.82221" lon="7.07669">
        <ele>1161</ele>
        <time>2013-12-01T13:03:27Z</time>
      </trkpt>
      <trkpt lat="43.82226" lon="7.07664">
        <ele>1162</ele>
        <time>2013-12-01T13:03:35Z</time>
      </trkpt>
      <trkpt lat="43.82231" lon="7.07658">
        <ele>1163</ele>
        <time>2013-12-01T13:03:46Z</time>
      </trkpt>
      <trkpt lat="43.82236" lon="7.07656">
        <ele>1163</ele>
        <time>2013-12-01T13:03:53Z</time>
      </trkpt>
      <trkpt lat="43.82243" lon="7.07651">
        <ele>1165</ele>
        <time>2013-12-01T13:04:03Z</time>
      </trkpt>
      <trkpt lat="43.82243" lon="7.07642">
        <ele>1165</ele>
        <time>2013-12-01T13:04:14Z</time>
      </trkpt>
      <trkpt lat="43.82243" lon="7.07637">
        <ele>1165</ele>
        <time>2013-12-01T13:04:23Z</time>
      </trkpt>
      <trkpt lat="43.82243" lon="7.07634">
        <ele>1165</ele>
        <time>2013-12-01T13:04:31Z</time>
      </trkpt>
      <trkpt lat="43.82242" lon="7.07626">
        <ele>1165</ele>
        <time>2013-12-01T13:04:39Z</time>
      </trkpt>
      <trkpt lat="43.82237" lon="7.07615">
        <ele>1165</ele>
        <time>2013-12-01T13:04:49Z</time>
      </trkpt>
      <trkpt lat="43.82236" lon="7.07604">
        <ele>1166</ele>
        <time>2013-12-01T13:05:00Z</time>
      </trkpt>
      <trkpt lat="43.82237" lon="7.07593">
        <ele>1168</ele>
        <time>2013-12-01T13:05:12Z</time>
      </trkpt>
      <trkpt lat="43.82238" lon="7.07584">
        <ele>1169</ele>
        <time>2013-12-01T13:05:22Z</time>
      </trkpt>
      <trkpt lat="43.82238" lon="7.07575">
        <ele>1170</ele>
        <time>2013-12-01T13:05:33Z</time>
      </trkpt>
      <trkpt lat="43.82238" lon="7.07569">
        <ele>1172</ele>
        <time>2013-12-01T13:05:41Z</time>
      </trkpt>
      <trkpt lat="43.82236" lon="7.07561">
        <ele>1172</ele>
        <time>2013-12-01T13:05:52Z</time>
      </trkpt>
      <trkpt lat="43.82237" lon="7.07553">
        <ele>1173</ele>
        <time>2013-12-01T13:06:02Z</time>
      </trkpt>
      <trkpt lat="43.8224" lon="7.07549">
        <ele>1174</ele>
        <time>2013-12-01T13:06:11Z</time>
      </trkpt>
      <trkpt lat="43.82243" lon="7.07544">
        <ele>1175</ele>
        <time>2013-12-01T13:06:20Z</time>
      </trkpt>
      <trkpt lat="43.82246" lon="7.07538">
        <ele>1177</ele>
        <time>2013-12-01T13:06:29Z</time>
      </trkpt>
      <trkpt lat="43.82249" lon="7.07534">
        <ele>1178</ele>
        <time>2013-12-01T13:06:38Z</time>
      </trkpt>
      <trkpt lat="43.82249" lon="7.07527">
        <ele>1180</ele>
        <time>2013-12-01T13:06:49Z</time>
      </trkpt>
      <trkpt lat="43.82247" lon="7.07518">
        <ele>1180</ele>
        <time>2013-12-01T13:06:59Z</time>
      </trkpt>
      <trkpt lat="43.82245" lon="7.07508">
        <ele>1181</ele>
        <time>2013-12-01T13:07:09Z</time>
      </trkpt>
      <trkpt lat="43.82245" lon="7.07495">
        <ele>1182</ele>
        <time>2013-12-01T13:07:22Z</time>
      </trkpt>
      <trkpt lat="43.82249" lon="7.07485">
        <ele>1183</ele>
        <time>2013-12-01T13:07:34Z</time>
      </trkpt>
      <trkpt lat="43.82252" lon="7.07477">
        <ele>1183</ele>
        <time>2013-12-01T13:07:42Z</time>
      </trkpt>
      <trkpt lat="43.82259" lon="7.07471">
        <ele>1184</ele>
        <time>2013-12-01T13:07:51Z</time>
      </trkpt>
      <trkpt lat="43.82264" lon="7.07459">
        <ele>1184</ele>
        <time>2013-12-01T13:08:02Z</time>
      </trkpt>
      <trkpt lat="43.82266" lon="7.07447">
        <ele>1185</ele>
        <time>2013-12-01T13:08:13Z</time>
      </trkpt>
      <trkpt lat="43.82272" lon="7.07438">
        <ele>1184</ele>
        <time>2013-12-01T13:08:24Z</time>
      </trkpt>
      <trkpt lat="43.82278" lon="7.07432">
        <ele>1186</ele>
        <time>2013-12-01T13:08:35Z</time>
      </trkpt>
      <trkpt lat="43.82284" lon="7.07427">
        <ele>1187</ele>
        <time>2013-12-01T13:08:46Z</time>
      </trkpt>
      <trkpt lat="43.82291" lon="7.0743">
        <ele>1188</ele>
        <time>2013-12-01T13:08:56Z</time>
      </trkpt>
      <trkpt lat="43.82298" lon="7.07431">
        <ele>1188</ele>
        <time>2013-12-01T13:09:08Z</time>
      </trkpt>
      <trkpt lat="43.82301" lon="7.07429">
        <ele>1189</ele>
        <time>2013-12-01T13:09:17Z</time>
      </trkpt>
      <trkpt lat="43.82306" lon="7.07432">
        <ele>1190</ele>
        <time>2013-12-01T13:09:27Z</time>
      </trkpt>
      <trkpt lat="43.82307" lon="7.07432">
        <ele>1191</ele>
        <time>2013-12-01T13:09:35Z</time>
      </trkpt>
      <trkpt lat="43.82309" lon="7.07433">
        <ele>1191</ele>
        <time>2013-12-01T13:09:44Z</time>
      </trkpt>
      <trkpt lat="43.82311" lon="7.07429">
        <ele>1191</ele>
        <time>2013-12-01T13:10:09Z</time>
      </trkpt>
      <trkpt lat="43.82311" lon="7.07426">
        <ele>1191</ele>
        <time>2013-12-01T13:10:13Z</time>
      </trkpt>
      <trkpt lat="43.8231" lon="7.07418">
        <ele>1192</ele>
        <time>2013-12-01T13:10:21Z</time>
      </trkpt>
      <trkpt lat="43.82315" lon="7.0741">
        <ele>1193</ele>
        <time>2013-12-01T13:10:31Z</time>
      </trkpt>
      <trkpt lat="43.8232" lon="7.07403">
        <ele>1194</ele>
        <time>2013-12-01T13:10:40Z</time>
      </trkpt>
      <trkpt lat="43.82322" lon="7.07388">
        <ele>1194</ele>
        <time>2013-12-01T13:10:52Z</time>
      </trkpt>
      <trkpt lat="43.82325" lon="7.07376">
        <ele>1194</ele>
        <time>2013-12-01T13:11:03Z</time>
      </trkpt>
      <trkpt lat="43.82324" lon="7.07362">
        <ele>1194</ele>
        <time>2013-12-01T13:11:14Z</time>
      </trkpt>
      <trkpt lat="43.82326" lon="7.07346">
        <ele>1194</ele>
        <time>2013-12-01T13:11:26Z</time>
      </trkpt>
      <trkpt lat="43.82323" lon="7.07331">
        <ele>1194</ele>
        <time>2013-12-01T13:11:36Z</time>
      </trkpt>
      <trkpt lat="43.82315" lon="7.07315">
        <ele>1193</ele>
        <time>2013-12-01T13:11:48Z</time>
      </trkpt>
      <trkpt lat="43.82306" lon="7.073">
        <ele>1193</ele>
        <time>2013-12-01T13:12:00Z</time>
      </trkpt>
      <trkpt lat="43.82309" lon="7.07287">
        <ele>1193</ele>
        <time>2013-12-01T13:12:10Z</time>
      </trkpt>
      <trkpt lat="43.82311" lon="7.07279">
        <ele>1193</ele>
        <time>2013-12-01T13:12:18Z</time>
      </trkpt>
      <trkpt lat="43.8231" lon="7.07257">
        <ele>1193</ele>
        <time>2013-12-01T13:12:33Z</time>
      </trkpt>
      <trkpt lat="43.8231" lon="7.07252">
        <ele>1193</ele>
        <time>2013-12-01T13:12:37Z</time>
      </trkpt>
      <trkpt lat="43.82305" lon="7.07236">
        <ele>1193</ele>
        <time>2013-12-01T13:12:49Z</time>
      </trkpt>
      <trkpt lat="43.82304" lon="7.0723">
        <ele>1193</ele>
        <time>2013-12-01T13:12:54Z</time>
      </trkpt>
      <trkpt lat="43.82308" lon="7.07212">
        <ele>1193</ele>
        <time>2013-12-01T13:13:06Z</time>
      </trkpt>
      <trkpt lat="43.82307" lon="7.07202">
        <ele>1193</ele>
        <time>2013-12-01T13:13:13Z</time>
      </trkpt>
      <trkpt lat="43.82306" lon="7.07178">
        <ele>1193</ele>
        <time>2013-12-01T13:13:30Z</time>
      </trkpt>
      <trkpt lat="43.82306" lon="7.07175">
        <ele>1192</ele>
        <time>2013-12-01T13:13:32Z</time>
      </trkpt>
      <trkpt lat="43.82313" lon="7.07167">
        <ele>1194</ele>
        <time>2013-12-01T13:13:42Z</time>
      </trkpt>
      <trkpt lat="43.8232" lon="7.07161">
        <ele>1195</ele>
        <time>2013-12-01T13:13:53Z</time>
      </trkpt>
      <trkpt lat="43.8233" lon="7.07159">
        <ele>1197</ele>
        <time>2013-12-01T13:14:06Z</time>
      </trkpt>
      <trkpt lat="43.82337" lon="7.07156">
        <ele>1199</ele>
        <time>2013-12-01T13:14:17Z</time>
      </trkpt>
      <trkpt lat="43.82343" lon="7.0715">
        <ele>1201</ele>
        <time>2013-12-01T13:14:27Z</time>
      </trkpt>
      <trkpt lat="43.82347" lon="7.07142">
        <ele>1203</ele>
        <time>2013-12-01T13:14:38Z</time>
      </trkpt>
      <trkpt lat="43.82351" lon="7.07136">
        <ele>1205</ele>
        <time>2013-12-01T13:14:47Z</time>
      </trkpt>
      <trkpt lat="43.82355" lon="7.07131">
        <ele>1206</ele>
        <time>2013-12-01T13:14:55Z</time>
      </trkpt>
      <trkpt lat="43.8236" lon="7.07125">
        <ele>1207</ele>
        <time>2013-12-01T13:15:05Z</time>
      </trkpt>
      <trkpt lat="43.82365" lon="7.07119">
        <ele>1208</ele>
        <time>2013-12-01T13:15:15Z</time>
      </trkpt>
      <trkpt lat="43.82366" lon="7.07116">
        <ele>1208</ele>
        <time>2013-12-01T13:15:17Z</time>
      </trkpt>
      <trkpt lat="43.82368" lon="7.07105">
        <ele>1209</ele>
        <time>2013-12-01T13:15:28Z</time>
      </trkpt>
      <trkpt lat="43.82373" lon="7.07098">
        <ele>1210</ele>
        <time>2013-12-01T13:15:36Z</time>
      </trkpt>
      <trkpt lat="43.82378" lon="7.07091">
        <ele>1212</ele>
        <time>2013-12-01T13:15:47Z</time>
      </trkpt>
      <trkpt lat="43.82381" lon="7.07083">
        <ele>1213</ele>
        <time>2013-12-01T13:15:57Z</time>
      </trkpt>
      <trkpt lat="43.82385" lon="7.0707">
        <ele>1214</ele>
        <time>2013-12-01T13:16:09Z</time>
      </trkpt>
      <trkpt lat="43.8239" lon="7.07059">
        <ele>1214</ele>
        <time>2013-12-01T13:16:20Z</time>
      </trkpt>
      <trkpt lat="43.82397" lon="7.07053">
        <ele>1216</ele>
        <time>2013-12-01T13:16:28Z</time>
      </trkpt>
      <trkpt lat="43.824" lon="7.07047">
        <ele>1215</ele>
        <time>2013-12-01T13:16:34Z</time>
      </trkpt>
      <trkpt lat="43.82398" lon="7.07037">
        <ele>1214</ele>
        <time>2013-12-01T13:16:42Z</time>
      </trkpt>
      <trkpt lat="43.82391" lon="7.07026">
        <ele>1213</ele>
        <time>2013-12-01T13:16:52Z</time>
      </trkpt>
      <trkpt lat="43.82392" lon="7.07014">
        <ele>1213</ele>
        <time>2013-12-01T13:17:02Z</time>
      </trkpt>
      <trkpt lat="43.82392" lon="7.07005">
        <ele>1213</ele>
        <time>2013-12-01T13:17:11Z</time>
      </trkpt>
      <trkpt lat="43.82391" lon="7.07006">
        <ele>1213</ele>
        <time>2013-12-01T13:17:36Z</time>
      </trkpt>
      <trkpt lat="43.82389" lon="7.07007">
        <ele>1213</ele>
        <time>2013-12-01T13:17:52Z</time>
      </trkpt>
      <trkpt lat="43.82389" lon="7.07001">
        <ele>1213</ele>
        <time>2013-12-01T13:18:00Z</time>
      </trkpt>
      <trkpt lat="43.82387" lon="7.06993">
        <ele>1214</ele>
        <time>2013-12-01T13:18:09Z</time>
      </trkpt>
      <trkpt lat="43.82384" lon="7.06991">
        <ele>1214</ele>
        <time>2013-12-01T13:18:19Z</time>
      </trkpt>
      <trkpt lat="43.82376" lon="7.06982">
        <ele>1213</ele>
        <time>2013-12-01T13:18:31Z</time>
      </trkpt>
      <trkpt lat="43.82374" lon="7.06979">
        <ele>1213</ele>
        <time>2013-12-01T13:18:40Z</time>
      </trkpt>
      <trkpt lat="43.82372" lon="7.06977">
        <ele>1213</ele>
        <time>2013-12-01T13:19:24Z</time>
      </trkpt>
      <trkpt lat="43.82374" lon="7.06969">
        <ele>1213</ele>
        <time>2013-12-01T13:19:32Z</time>
      </trkpt>
      <trkpt lat="43.82375" lon="7.06957">
        <ele>1213</ele>
        <time>2013-12-01T13:19:43Z</time>
      </trkpt>
      <trkpt lat="43.82373" lon="7.06949">
        <ele>1213</ele>
        <time>2013-12-01T13:19:50Z</time>
      </trkpt>
      <trkpt lat="43.82367" lon="7.06937">
        <ele>1211</ele>
        <time>2013-12-01T13:20:01Z</time>
      </trkpt>
      <trkpt lat="43.82365" lon="7.06921">
        <ele>1211</ele>
        <time>2013-12-01T13:20:12Z</time>
      </trkpt>
      <trkpt lat="43.82366" lon="7.06908">
        <ele>1211</ele>
        <time>2013-12-01T13:20:22Z</time>
      </trkpt>
      <trkpt lat="43.82371" lon="7.06896">
        <ele>1211</ele>
        <time>2013-12-01T13:20:32Z</time>
      </trkpt>
      <trkpt lat="43.82374" lon="7.06883">
        <ele>1211</ele>
        <time>2013-12-01T13:20:42Z</time>
      </trkpt>
      <trkpt lat="43.82373" lon="7.06866">
        <ele>1210</ele>
        <time>2013-12-01T13:20:54Z</time>
      </trkpt>
      <trkpt lat="43.82374" lon="7.06849">
        <ele>1209</ele>
        <time>2013-12-01T13:21:06Z</time>
      </trkpt>
      <trkpt lat="43.82375" lon="7.06834">
        <ele>1208</ele>
        <time>2013-12-01T13:21:17Z</time>
      </trkpt>
      <trkpt lat="43.82373" lon="7.0682">
        <ele>1208</ele>
        <time>2013-12-01T13:21:27Z</time>
      </trkpt>
      <trkpt lat="43.82371" lon="7.06808">
        <ele>1209</ele>
        <time>2013-12-01T13:21:37Z</time>
      </trkpt>
      <trkpt lat="43.82367" lon="7.06797">
        <ele>1209</ele>
        <time>2013-12-01T13:21:47Z</time>
      </trkpt>
      <trkpt lat="43.82365" lon="7.06785">
        <ele>1209</ele>
        <time>2013-12-01T13:21:57Z</time>
      </trkpt>
      <trkpt lat="43.82364" lon="7.0677">
        <ele>1210</ele>
        <time>2013-12-01T13:22:09Z</time>
      </trkpt>
      <trkpt lat="43.82367" lon="7.06756">
        <ele>1209</ele>
        <time>2013-12-01T13:22:21Z</time>
      </trkpt>
      <trkpt lat="43.82373" lon="7.0674">
        <ele>1209</ele>
        <time>2013-12-01T13:22:34Z</time>
      </trkpt>
      <trkpt lat="43.82374" lon="7.06736">
        <ele>1209</ele>
        <time>2013-12-01T13:22:37Z</time>
      </trkpt>
      <trkpt lat="43.82371" lon="7.06723">
        <ele>1208</ele>
        <time>2013-12-01T13:22:46Z</time>
      </trkpt>
      <trkpt lat="43.82372" lon="7.06707">
        <ele>1207</ele>
        <time>2013-12-01T13:22:57Z</time>
      </trkpt>
      <trkpt lat="43.82372" lon="7.0669">
        <ele>1206</ele>
        <time>2013-12-01T13:23:09Z</time>
      </trkpt>
      <trkpt lat="43.82366" lon="7.06674">
        <ele>1204</ele>
        <time>2013-12-01T13:23:21Z</time>
      </trkpt>
      <trkpt lat="43.82357" lon="7.06656">
        <ele>1202</ele>
        <time>2013-12-01T13:23:36Z</time>
      </trkpt>
      <trkpt lat="43.8236" lon="7.06639">
        <ele>1199</ele>
        <time>2013-12-01T13:23:48Z</time>
      </trkpt>
      <trkpt lat="43.8237" lon="7.06626">
        <ele>1199</ele>
        <time>2013-12-01T13:24:01Z</time>
      </trkpt>
      <trkpt lat="43.82376" lon="7.06615">
        <ele>1199</ele>
        <time>2013-12-01T13:24:10Z</time>
      </trkpt>
      <trkpt lat="43.8237" lon="7.066">
        <ele>1198</ele>
        <time>2013-12-01T13:24:20Z</time>
      </trkpt>
      <trkpt lat="43.82375" lon="7.06588">
        <ele>1197</ele>
        <time>2013-12-01T13:24:29Z</time>
      </trkpt>
      <trkpt lat="43.8238" lon="7.06574">
        <ele>1197</ele>
        <time>2013-12-01T13:24:41Z</time>
      </trkpt>
      <trkpt lat="43.82379" lon="7.06573">
        <ele>1196</ele>
        <time>2013-12-01T13:24:42Z</time>
      </trkpt>
      <trkpt lat="43.82374" lon="7.06563">
        <ele>1195</ele>
        <time>2013-12-01T13:24:50Z</time>
      </trkpt>
      <trkpt lat="43.82377" lon="7.06544">
        <ele>1194</ele>
        <time>2013-12-01T13:25:04Z</time>
      </trkpt>
      <trkpt lat="43.82375" lon="7.06525">
        <ele>1192</ele>
        <time>2013-12-01T13:25:18Z</time>
      </trkpt>
      <trkpt lat="43.82374" lon="7.06521">
        <ele>1193</ele>
        <time>2013-12-01T13:25:21Z</time>
      </trkpt>
      <trkpt lat="43.82372" lon="7.06507">
        <ele>1193</ele>
        <time>2013-12-01T13:25:32Z</time>
      </trkpt>
      <trkpt lat="43.82378" lon="7.06496">
        <ele>1192</ele>
        <time>2013-12-01T13:25:42Z</time>
      </trkpt>
      <trkpt lat="43.82383" lon="7.06479">
        <ele>1192</ele>
        <time>2013-12-01T13:25:54Z</time>
      </trkpt>
      <trkpt lat="43.82391" lon="7.06466">
        <ele>1192</ele>
        <time>2013-12-01T13:26:05Z</time>
      </trkpt>
      <trkpt lat="43.82396" lon="7.06459">
        <ele>1192</ele>
        <time>2013-12-01T13:26:11Z</time>
      </trkpt>
      <trkpt lat="43.82395" lon="7.06441">
        <ele>1191</ele>
        <time>2013-12-01T13:26:23Z</time>
      </trkpt>
      <trkpt lat="43.82389" lon="7.06421">
        <ele>1190</ele>
        <time>2013-12-01T13:26:35Z</time>
      </trkpt>
      <trkpt lat="43.82389" lon="7.06406">
        <ele>1191</ele>
        <time>2013-12-01T13:26:46Z</time>
      </trkpt>
      <trkpt lat="43.82389" lon="7.06405">
        <ele>1191</ele>
        <time>2013-12-01T13:26:55Z</time>
      </trkpt>
      <trkpt lat="43.82388" lon="7.06401">
        <ele>1191</ele>
        <time>2013-12-01T13:27:05Z</time>
      </trkpt>
      <trkpt lat="43.82385" lon="7.06397">
        <ele>1190</ele>
        <time>2013-12-01T13:27:10Z</time>
      </trkpt>
      <trkpt lat="43.82376" lon="7.0638">
        <ele>1189</ele>
        <time>2013-12-01T13:27:23Z</time>
      </trkpt>
      <trkpt lat="43.82366" lon="7.06368">
        <ele>1186</ele>
        <time>2013-12-01T13:27:35Z</time>
      </trkpt>
      <trkpt lat="43.82362" lon="7.06366">
        <ele>1185</ele>
        <time>2013-12-01T13:27:39Z</time>
      </trkpt>
      <trkpt lat="43.82348" lon="7.06365">
        <ele>1184</ele>
        <time>2013-12-01T13:27:52Z</time>
      </trkpt>
      <trkpt lat="43.82334" lon="7.06361">
        <ele>1182</ele>
        <time>2013-12-01T13:28:03Z</time>
      </trkpt>
      <trkpt lat="43.82329" lon="7.06361">
        <ele>1181</ele>
        <time>2013-12-01T13:28:11Z</time>
      </trkpt>
      <trkpt lat="43.8233" lon="7.06359">
        <ele>1182</ele>
        <time>2013-12-01T13:29:00Z</time>
      </trkpt>
      <trkpt lat="43.82332" lon="7.06359">
        <ele>1182</ele>
        <time>2013-12-01T13:29:30Z</time>
      </trkpt>
      <trkpt lat="43.82328" lon="7.06361">
        <ele>1182</ele>
        <time>2013-12-01T13:29:48Z</time>
      </trkpt>
      <trkpt lat="43.82326" lon="7.0636">
        <ele>1182</ele>
        <time>2013-12-01T13:29:50Z</time>
      </trkpt>
      <trkpt lat="43.82314" lon="7.06356">
        <ele>1180</ele>
        <time>2013-12-01T13:30:04Z</time>
      </trkpt>
      <trkpt lat="43.82301" lon="7.06349">
        <ele>1178</ele>
        <time>2013-12-01T13:30:17Z</time>
      </trkpt>
      <trkpt lat="43.82288" lon="7.06341">
        <ele>1177</ele>
        <time>2013-12-01T13:30:30Z</time>
      </trkpt>
      <trkpt lat="43.82275" lon="7.0634">
        <ele>1174</ele>
        <time>2013-12-01T13:30:44Z</time>
      </trkpt>
      <trkpt lat="43.82262" lon="7.06338">
        <ele>1173</ele>
        <time>2013-12-01T13:30:56Z</time>
      </trkpt>
      <trkpt lat="43.8225" lon="7.06334">
        <ele>1172</ele>
        <time>2013-12-01T13:31:07Z</time>
      </trkpt>
      <trkpt lat="43.82238" lon="7.06334">
        <ele>1170</ele>
        <time>2013-12-01T13:31:19Z</time>
      </trkpt>
      <trkpt lat="43.82223" lon="7.06333">
        <ele>1167</ele>
        <time>2013-12-01T13:31:33Z</time>
      </trkpt>
      <trkpt lat="43.82214" lon="7.06336">
        <ele>1166</ele>
        <time>2013-12-01T13:31:43Z</time>
      </trkpt>
      <trkpt lat="43.82201" lon="7.06338">
        <ele>1164</ele>
        <time>2013-12-01T13:31:54Z</time>
      </trkpt>
      <trkpt lat="43.82192" lon="7.06339">
        <ele>1163</ele>
        <time>2013-12-01T13:32:03Z</time>
      </trkpt>
      <trkpt lat="43.82182" lon="7.06338">
        <ele>1162</ele>
        <time>2013-12-01T13:32:11Z</time>
      </trkpt>
      <trkpt lat="43.82172" lon="7.06338">
        <ele>1160</ele>
        <time>2013-12-01T13:32:19Z</time>
      </trkpt>
      <trkpt lat="43.82158" lon="7.06342">
        <ele>1159</ele>
        <time>2013-12-01T13:32:31Z</time>
      </trkpt>
      <trkpt lat="43.82145" lon="7.06343">
        <ele>1157</ele>
        <time>2013-12-01T13:32:44Z</time>
      </trkpt>
      <trkpt lat="43.82132" lon="7.06342">
        <ele>1156</ele>
        <time>2013-12-01T13:32:55Z</time>
      </trkpt>
      <trkpt lat="43.82128" lon="7.06341">
        <ele>1155</ele>
        <time>2013-12-01T13:32:59Z</time>
      </trkpt>
      <trkpt lat="43.82118" lon="7.0633">
        <ele>1153</ele>
        <time>2013-12-01T13:33:12Z</time>
      </trkpt>
      <trkpt lat="43.82109" lon="7.06314">
        <ele>1151</ele>
        <time>2013-12-01T13:33:24Z</time>
      </trkpt>
      <trkpt lat="43.82094" lon="7.06306">
        <ele>1150</ele>
        <time>2013-12-01T13:33:37Z</time>
      </trkpt>
      <trkpt lat="43.8209" lon="7.06308">
        <ele>1149</ele>
        <time>2013-12-01T13:33:42Z</time>
      </trkpt>
      <trkpt lat="43.82086" lon="7.06313">
        <ele>1148</ele>
        <time>2013-12-01T13:33:48Z</time>
      </trkpt>
      <trkpt lat="43.82083" lon="7.06314">
        <ele>1147</ele>
        <time>2013-12-01T13:33:52Z</time>
      </trkpt>
      <trkpt lat="43.82073" lon="7.0631">
        <ele>1146</ele>
        <time>2013-12-01T13:34:01Z</time>
      </trkpt>
      <trkpt lat="43.82065" lon="7.06317">
        <ele>1144</ele>
        <time>2013-12-01T13:34:10Z</time>
      </trkpt>
      <trkpt lat="43.82061" lon="7.06326">
        <ele>1141</ele>
        <time>2013-12-01T13:34:18Z</time>
      </trkpt>
      <trkpt lat="43.82056" lon="7.0633">
        <ele>1140</ele>
        <time>2013-12-01T13:34:26Z</time>
      </trkpt>
      <trkpt lat="43.82055" lon="7.06331">
        <ele>1138</ele>
        <time>2013-12-01T13:34:28Z</time>
      </trkpt>
      <trkpt lat="43.82045" lon="7.06335">
        <ele>1137</ele>
        <time>2013-12-01T13:34:40Z</time>
      </trkpt>
      <trkpt lat="43.82039" lon="7.0634">
        <ele>1135</ele>
        <time>2013-12-01T13:34:49Z</time>
      </trkpt>
      <trkpt lat="43.82036" lon="7.06342">
        <ele>1134</ele>
        <time>2013-12-01T13:34:53Z</time>
      </trkpt>
      <trkpt lat="43.82023" lon="7.06347">
        <ele>1130</ele>
        <time>2013-12-01T13:35:05Z</time>
      </trkpt>
      <trkpt lat="43.82016" lon="7.06348">
        <ele>1130</ele>
        <time>2013-12-01T13:35:11Z</time>
      </trkpt>
      <trkpt lat="43.82003" lon="7.06336">
        <ele>1128</ele>
        <time>2013-12-01T13:35:25Z</time>
      </trkpt>
      <trkpt lat="43.81998" lon="7.06332">
        <ele>1127</ele>
        <time>2013-12-01T13:35:31Z</time>
      </trkpt>
      <trkpt lat="43.81991" lon="7.06319">
        <ele>1126</ele>
        <time>2013-12-01T13:35:42Z</time>
      </trkpt>
      <trkpt lat="43.81984" lon="7.06304">
        <ele>1124</ele>
        <time>2013-12-01T13:35:54Z</time>
      </trkpt>
      <trkpt lat="43.8198" lon="7.06295">
        <ele>1123</ele>
        <time>2013-12-01T13:36:03Z</time>
      </trkpt>
      <trkpt lat="43.81973" lon="7.06283">
        <ele>1121</ele>
        <time>2013-12-01T13:36:13Z</time>
      </trkpt>
      <trkpt lat="43.81966" lon="7.06269">
        <ele>1121</ele>
        <time>2013-12-01T13:36:24Z</time>
      </trkpt>
      <trkpt lat="43.81965" lon="7.06266">
        <ele>1120</ele>
        <time>2013-12-01T13:36:26Z</time>
      </trkpt>
      <trkpt lat="43.81961" lon="7.0626">
        <ele>1120</ele>
        <time>2013-12-01T13:36:31Z</time>
      </trkpt>
      <trkpt lat="43.81953" lon="7.0624">
        <ele>1117</ele>
        <time>2013-12-01T13:36:46Z</time>
      </trkpt>
      <trkpt lat="43.81946" lon="7.06229">
        <ele>1117</ele>
        <time>2013-12-01T13:36:55Z</time>
      </trkpt>
      <trkpt lat="43.81944" lon="7.06227">
        <ele>1117</ele>
        <time>2013-12-01T13:36:57Z</time>
      </trkpt>
      <trkpt lat="43.81941" lon="7.06233">
        <ele>1116</ele>
        <time>2013-12-01T13:37:02Z</time>
      </trkpt>
      <trkpt lat="43.81941" lon="7.06235">
        <ele>1116</ele>
        <time>2013-12-01T13:37:04Z</time>
      </trkpt>
      <trkpt lat="43.81944" lon="7.06248">
        <ele>1114</ele>
        <time>2013-12-01T13:37:16Z</time>
      </trkpt>
      <trkpt lat="43.81943" lon="7.06252">
        <ele>1114</ele>
        <time>2013-12-01T13:37:23Z</time>
      </trkpt>
      <trkpt lat="43.81944" lon="7.06256">
        <ele>1113</ele>
        <time>2013-12-01T13:37:26Z</time>
      </trkpt>
      <trkpt lat="43.81944" lon="7.06268">
        <ele>1113</ele>
        <time>2013-12-01T13:37:34Z</time>
      </trkpt>
      <trkpt lat="43.81947" lon="7.06276">
        <ele>1112</ele>
        <time>2013-12-01T13:37:39Z</time>
      </trkpt>
      <trkpt lat="43.81947" lon="7.06279">
        <ele>1112</ele>
        <time>2013-12-01T13:37:42Z</time>
      </trkpt>
      <trkpt lat="43.81947" lon="7.06298">
        <ele>1110</ele>
        <time>2013-12-01T13:37:54Z</time>
      </trkpt>
      <trkpt lat="43.81947" lon="7.06315">
        <ele>1109</ele>
        <time>2013-12-01T13:38:05Z</time>
      </trkpt>
      <trkpt lat="43.81949" lon="7.06328">
        <ele>1108</ele>
        <time>2013-12-01T13:38:14Z</time>
      </trkpt>
      <trkpt lat="43.81954" lon="7.06351">
        <ele>1105</ele>
        <time>2013-12-01T13:38:31Z</time>
      </trkpt>
      <trkpt lat="43.81955" lon="7.06367">
        <ele>1103</ele>
        <time>2013-12-01T13:38:42Z</time>
      </trkpt>
      <trkpt lat="43.81957" lon="7.06384">
        <ele>1100</ele>
        <time>2013-12-01T13:38:55Z</time>
      </trkpt>
      <trkpt lat="43.8196" lon="7.06397">
        <ele>1099</ele>
        <time>2013-12-01T13:39:06Z</time>
      </trkpt>
      <trkpt lat="43.81961" lon="7.06408">
        <ele>1098</ele>
        <time>2013-12-01T13:39:15Z</time>
      </trkpt>
      <trkpt lat="43.81961" lon="7.06418">
        <ele>1097</ele>
        <time>2013-12-01T13:39:23Z</time>
      </trkpt>
      <trkpt lat="43.81959" lon="7.06431">
        <ele>1095</ele>
        <time>2013-12-01T13:39:32Z</time>
      </trkpt>
      <trkpt lat="43.81955" lon="7.06448">
        <ele>1093</ele>
        <time>2013-12-01T13:39:44Z</time>
      </trkpt>
      <trkpt lat="43.81954" lon="7.06451">
        <ele>1092</ele>
        <time>2013-12-01T13:39:47Z</time>
      </trkpt>
      <trkpt lat="43.81952" lon="7.06471">
        <ele>1090</ele>
        <time>2013-12-01T13:40:00Z</time>
      </trkpt>
      <trkpt lat="43.81949" lon="7.06488">
        <ele>1088</ele>
        <time>2013-12-01T13:40:12Z</time>
      </trkpt>
      <trkpt lat="43.81946" lon="7.06504">
        <ele>1086</ele>
        <time>2013-12-01T13:40:23Z</time>
      </trkpt>
      <trkpt lat="43.81943" lon="7.06524">
        <ele>1084</ele>
        <time>2013-12-01T13:40:37Z</time>
      </trkpt>
      <trkpt lat="43.8194" lon="7.06544">
        <ele>1082</ele>
        <time>2013-12-01T13:40:51Z</time>
      </trkpt>
      <trkpt lat="43.81938" lon="7.06561">
        <ele>1079</ele>
        <time>2013-12-01T13:41:03Z</time>
      </trkpt>
      <trkpt lat="43.81934" lon="7.06577">
        <ele>1077</ele>
        <time>2013-12-01T13:41:15Z</time>
      </trkpt>
      <trkpt lat="43.8193" lon="7.06593">
        <ele>1076</ele>
        <time>2013-12-01T13:41:27Z</time>
      </trkpt>
      <trkpt lat="43.81925" lon="7.06615">
        <ele>1073</ele>
        <time>2013-12-01T13:41:42Z</time>
      </trkpt>
      <trkpt lat="43.8192" lon="7.06636">
        <ele>1071</ele>
        <time>2013-12-01T13:41:56Z</time>
      </trkpt>
      <trkpt lat="43.81916" lon="7.06655">
        <ele>1070</ele>
        <time>2013-12-01T13:42:09Z</time>
      </trkpt>
      <trkpt lat="43.81913" lon="7.06673">
        <ele>1067</ele>
        <time>2013-12-01T13:42:22Z</time>
      </trkpt>
      <trkpt lat="43.81908" lon="7.06694">
        <ele>1063</ele>
        <time>2013-12-01T13:42:37Z</time>
      </trkpt>
      <trkpt lat="43.81906" lon="7.0671">
        <ele>1061</ele>
        <time>2013-12-01T13:42:49Z</time>
      </trkpt>
      <trkpt lat="43.81903" lon="7.06725">
        <ele>1060</ele>
        <time>2013-12-01T13:43:00Z</time>
      </trkpt>
      <trkpt lat="43.81899" lon="7.06741">
        <ele>1059</ele>
        <time>2013-12-01T13:43:12Z</time>
      </trkpt>
      <trkpt lat="43.81896" lon="7.06759">
        <ele>1056</ele>
        <time>2013-12-01T13:43:25Z</time>
      </trkpt>
      <trkpt lat="43.81892" lon="7.06779">
        <ele>1053</ele>
        <time>2013-12-01T13:43:39Z</time>
      </trkpt>
      <trkpt lat="43.81889" lon="7.06794">
        <ele>1051</ele>
        <time>2013-12-01T13:43:50Z</time>
      </trkpt>
      <trkpt lat="43.81887" lon="7.06808">
        <ele>1049</ele>
        <time>2013-12-01T13:44:00Z</time>
      </trkpt>
      <trkpt lat="43.81884" lon="7.06829">
        <ele>1047</ele>
        <time>2013-12-01T13:44:14Z</time>
      </trkpt>
      <trkpt lat="43.81879" lon="7.06843">
        <ele>1044</ele>
        <time>2013-12-01T13:44:25Z</time>
      </trkpt>
      <trkpt lat="43.81871" lon="7.06855">
        <ele>1042</ele>
        <time>2013-12-01T13:44:36Z</time>
      </trkpt>
      <trkpt lat="43.81862" lon="7.06868">
        <ele>1040</ele>
        <time>2013-12-01T13:44:49Z</time>
      </trkpt>
      <trkpt lat="43.81853" lon="7.06878">
        <ele>1038</ele>
        <time>2013-12-01T13:45:00Z</time>
      </trkpt>
      <trkpt lat="43.81844" lon="7.0689">
        <ele>1035</ele>
        <time>2013-12-01T13:45:13Z</time>
      </trkpt>
      <trkpt lat="43.81834" lon="7.06904">
        <ele>1034</ele>
        <time>2013-12-01T13:45:26Z</time>
      </trkpt>
      <trkpt lat="43.81825" lon="7.06917">
        <ele>1032</ele>
        <time>2013-12-01T13:45:39Z</time>
      </trkpt>
      <trkpt lat="43.81815" lon="7.06932">
        <ele>1029</ele>
        <time>2013-12-01T13:45:52Z</time>
      </trkpt>
      <trkpt lat="43.81806" lon="7.06944">
        <ele>1027</ele>
        <time>2013-12-01T13:46:04Z</time>
      </trkpt>
      <trkpt lat="43.81798" lon="7.06956">
        <ele>1025</ele>
        <time>2013-12-01T13:46:14Z</time>
      </trkpt>
      <trkpt lat="43.81788" lon="7.06971">
        <ele>1023</ele>
        <time>2013-12-01T13:46:27Z</time>
      </trkpt>
      <trkpt lat="43.81778" lon="7.06991">
        <ele>1020</ele>
        <time>2013-12-01T13:46:43Z</time>
      </trkpt>
      <trkpt lat="43.8177" lon="7.07007">
        <ele>1018</ele>
        <time>2013-12-01T13:46:56Z</time>
      </trkpt>
      <trkpt lat="43.81764" lon="7.07022">
        <ele>1016</ele>
        <time>2013-12-01T13:47:08Z</time>
      </trkpt>
      <trkpt lat="43.81757" lon="7.07038">
        <ele>1014</ele>
        <time>2013-12-01T13:47:21Z</time>
      </trkpt>
      <trkpt lat="43.8175" lon="7.07053">
        <ele>1011</ele>
        <time>2013-12-01T13:47:33Z</time>
      </trkpt>
      <trkpt lat="43.81743" lon="7.07068">
        <ele>1009</ele>
        <time>2013-12-01T13:47:45Z</time>
      </trkpt>
      <trkpt lat="43.81735" lon="7.07086">
        <ele>1008</ele>
        <time>2013-12-01T13:47:59Z</time>
      </trkpt>
      <trkpt lat="43.81725" lon="7.07106">
        <ele>1006</ele>
        <time>2013-12-01T13:48:14Z</time>
      </trkpt>
      <trkpt lat="43.81716" lon="7.07126">
        <ele>1004</ele>
        <time>2013-12-01T13:48:29Z</time>
      </trkpt>
      <trkpt lat="43.81708" lon="7.07145">
        <ele>1002</ele>
        <time>2013-12-01T13:48:43Z</time>
      </trkpt>
      <trkpt lat="43.81701" lon="7.07161">
        <ele>1000</ele>
        <time>2013-12-01T13:48:54Z</time>
      </trkpt>
      <trkpt lat="43.81693" lon="7.07178">
        <ele>999</ele>
        <time>2013-12-01T13:49:06Z</time>
      </trkpt>
      <trkpt lat="43.81685" lon="7.07196">
        <ele>998</ele>
        <time>2013-12-01T13:49:19Z</time>
      </trkpt>
      <trkpt lat="43.81678" lon="7.07211">
        <ele>997</ele>
        <time>2013-12-01T13:49:30Z</time>
      </trkpt>
      <trkpt lat="43.81672" lon="7.07227">
        <ele>994</ele>
        <time>2013-12-01T13:49:42Z</time>
      </trkpt>
      <trkpt lat="43.81666" lon="7.07241">
        <ele>993</ele>
        <time>2013-12-01T13:49:52Z</time>
      </trkpt>
      <trkpt lat="43.81657" lon="7.0726">
        <ele>991</ele>
        <time>2013-12-01T13:50:06Z</time>
      </trkpt>
      <trkpt lat="43.8165" lon="7.07276">
        <ele>988</ele>
        <time>2013-12-01T13:50:18Z</time>
      </trkpt>
      <trkpt lat="43.81643" lon="7.07289">
        <ele>986</ele>
        <time>2013-12-01T13:50:28Z</time>
      </trkpt>
      <trkpt lat="43.81636" lon="7.07306">
        <ele>984</ele>
        <time>2013-12-01T13:50:40Z</time>
      </trkpt>
      <trkpt lat="43.81631" lon="7.07327">
        <ele>982</ele>
        <time>2013-12-01T13:50:53Z</time>
      </trkpt>
      <trkpt lat="43.81632" lon="7.07352">
        <ele>980</ele>
        <time>2013-12-01T13:51:08Z</time>
      </trkpt>
      <trkpt lat="43.81636" lon="7.07376">
        <ele>979</ele>
        <time>2013-12-01T13:51:22Z</time>
      </trkpt>
      <trkpt lat="43.81634" lon="7.074">
        <ele>979</ele>
        <time>2013-12-01T13:51:36Z</time>
      </trkpt>
      <trkpt lat="43.8163" lon="7.07416">
        <ele>978</ele>
        <time>2013-12-01T13:51:46Z</time>
      </trkpt>
      <trkpt lat="43.81628" lon="7.07435">
        <ele>978</ele>
        <time>2013-12-01T13:51:57Z</time>
      </trkpt>
      <trkpt lat="43.81626" lon="7.0746">
        <ele>978</ele>
        <time>2013-12-01T13:52:12Z</time>
      </trkpt>
      <trkpt lat="43.81626" lon="7.07478">
        <ele>977</ele>
        <time>2013-12-01T13:52:23Z</time>
      </trkpt>
      <trkpt lat="43.81625" lon="7.07483">
        <ele>977</ele>
        <time>2013-12-01T13:52:31Z</time>
      </trkpt>
      <trkpt lat="43.81626" lon="7.0749">
        <ele>977</ele>
        <time>2013-12-01T13:52:41Z</time>
      </trkpt>
      <trkpt lat="43.81625" lon="7.07503">
        <ele>979</ele>
        <time>2013-12-01T13:56:59Z</time>
      </trkpt>
      <trkpt lat="43.81624" lon="7.07515">
        <ele>979</ele>
        <time>2013-12-01T14:01:30Z</time>
      </trkpt>
      <trkpt lat="43.81625" lon="7.07522">
        <ele>978</ele>
        <time>2013-12-01T14:02:15Z</time>
      </trkpt>
      <trkpt lat="43.81624" lon="7.07529">
        <ele>978</ele>
        <time>2013-12-01T14:02:23Z</time>
      </trkpt>
      <trkpt lat="43.81623" lon="7.07541">
        <ele>977</ele>
        <time>2013-12-01T14:02:34Z</time>
      </trkpt>
      <trkpt lat="43.81621" lon="7.07558">
        <ele>976</ele>
        <time>2013-12-01T14:02:46Z</time>
      </trkpt>
      <trkpt lat="43.81616" lon="7.07578">
        <ele>976</ele>
        <time>2013-12-01T14:03:00Z</time>
      </trkpt>
      <trkpt lat="43.81617" lon="7.07599">
        <ele>973</ele>
        <time>2013-12-01T14:03:14Z</time>
      </trkpt>
      <trkpt lat="43.81617" lon="7.0762">
        <ele>972</ele>
        <time>2013-12-01T14:03:28Z</time>
      </trkpt>
      <trkpt lat="43.81615" lon="7.07642">
        <ele>970</ele>
        <time>2013-12-01T14:03:42Z</time>
      </trkpt>
      <trkpt lat="43.81617" lon="7.07665">
        <ele>968</ele>
        <time>2013-12-01T14:03:56Z</time>
      </trkpt>
      <trkpt lat="43.81624" lon="7.07685">
        <ele>965</ele>
        <time>2013-12-01T14:04:10Z</time>
      </trkpt>
      <trkpt lat="43.81624" lon="7.07692">
        <ele>965</ele>
        <time>2013-12-01T14:04:16Z</time>
      </trkpt>
      <trkpt lat="43.81623" lon="7.07713">
        <ele>963</ele>
        <time>2013-12-01T14:04:29Z</time>
      </trkpt>
      <trkpt lat="43.8162" lon="7.07734">
        <ele>962</ele>
        <time>2013-12-01T14:04:42Z</time>
      </trkpt>
      <trkpt lat="43.81616" lon="7.07754">
        <ele>962</ele>
        <time>2013-12-01T14:04:55Z</time>
      </trkpt>
      <trkpt lat="43.81608" lon="7.07774">
        <ele>961</ele>
        <time>2013-12-01T14:05:09Z</time>
      </trkpt>
      <trkpt lat="43.81603" lon="7.07791">
        <ele>960</ele>
        <time>2013-12-01T14:05:21Z</time>
      </trkpt>
      <trkpt lat="43.81598" lon="7.07808">
        <ele>958</ele>
        <time>2013-12-01T14:05:32Z</time>
      </trkpt>
      <trkpt lat="43.81593" lon="7.07829">
        <ele>957</ele>
        <time>2013-12-01T14:05:46Z</time>
      </trkpt>
      <trkpt lat="43.81589" lon="7.07847">
        <ele>955</ele>
        <time>2013-12-01T14:05:57Z</time>
      </trkpt>
      <trkpt lat="43.81585" lon="7.07864">
        <ele>953</ele>
        <time>2013-12-01T14:06:08Z</time>
      </trkpt>
      <trkpt lat="43.8158" lon="7.07881">
        <ele>951</ele>
        <time>2013-12-01T14:06:19Z</time>
      </trkpt>
      <trkpt lat="43.81573" lon="7.07899">
        <ele>949</ele>
        <time>2013-12-01T14:06:31Z</time>
      </trkpt>
      <trkpt lat="43.81563" lon="7.07919">
        <ele>948</ele>
        <time>2013-12-01T14:06:45Z</time>
      </trkpt>
      <trkpt lat="43.81555" lon="7.07936">
        <ele>947</ele>
        <time>2013-12-01T14:06:58Z</time>
      </trkpt>
      <trkpt lat="43.8155" lon="7.07954">
        <ele>944</ele>
        <time>2013-12-01T14:07:10Z</time>
      </trkpt>
      <trkpt lat="43.81544" lon="7.07968">
        <ele>943</ele>
        <time>2013-12-01T14:07:21Z</time>
      </trkpt>
      <trkpt lat="43.81543" lon="7.07971">
        <ele>943</ele>
        <time>2013-12-01T14:07:23Z</time>
      </trkpt>
      <trkpt lat="43.81543" lon="7.07977">
        <ele>943</ele>
        <time>2013-12-01T14:07:28Z</time>
      </trkpt>
      <trkpt lat="43.8155" lon="7.07991">
        <ele>942</ele>
        <time>2013-12-01T14:07:39Z</time>
      </trkpt>
      <trkpt lat="43.81556" lon="7.08001">
        <ele>941</ele>
        <time>2013-12-01T14:07:48Z</time>
      </trkpt>
      <trkpt lat="43.81566" lon="7.08017">
        <ele>941</ele>
        <time>2013-12-01T14:08:01Z</time>
      </trkpt>
      <trkpt lat="43.81573" lon="7.08035">
        <ele>941</ele>
        <time>2013-12-01T14:08:13Z</time>
      </trkpt>
      <trkpt lat="43.81573" lon="7.08062">
        <ele>940</ele>
        <time>2013-12-01T14:08:28Z</time>
      </trkpt>
      <trkpt lat="43.81571" lon="7.08083">
        <ele>940</ele>
        <time>2013-12-01T14:08:41Z</time>
      </trkpt>
      <trkpt lat="43.81568" lon="7.08101">
        <ele>939</ele>
        <time>2013-12-01T14:08:52Z</time>
      </trkpt>
      <trkpt lat="43.81559" lon="7.0812">
        <ele>936</ele>
        <time>2013-12-01T14:09:05Z</time>
      </trkpt>
      <trkpt lat="43.81554" lon="7.08145">
        <ele>936</ele>
        <time>2013-12-01T14:09:20Z</time>
      </trkpt>
      <trkpt lat="43.81555" lon="7.08168">
        <ele>936</ele>
        <time>2013-12-01T14:09:33Z</time>
      </trkpt>
      <trkpt lat="43.81554" lon="7.08185">
        <ele>934</ele>
        <time>2013-12-01T14:09:44Z</time>
      </trkpt>
      <trkpt lat="43.81551" lon="7.08206">
        <ele>934</ele>
        <time>2013-12-01T14:09:56Z</time>
      </trkpt>
      <trkpt lat="43.81547" lon="7.08232">
        <ele>933</ele>
        <time>2013-12-01T14:10:11Z</time>
      </trkpt>
      <trkpt lat="43.81544" lon="7.08251">
        <ele>933</ele>
        <time>2013-12-01T14:10:23Z</time>
      </trkpt>
      <trkpt lat="43.81545" lon="7.08271">
        <ele>932</ele>
        <time>2013-12-01T14:10:35Z</time>
      </trkpt>
      <trkpt lat="43.81551" lon="7.08284">
        <ele>931</ele>
        <time>2013-12-01T14:10:44Z</time>
      </trkpt>
      <trkpt lat="43.81557" lon="7.08303">
        <ele>930</ele>
        <time>2013-12-01T14:10:56Z</time>
      </trkpt>
      <trkpt lat="43.81561" lon="7.08323">
        <ele>930</ele>
        <time>2013-12-01T14:11:07Z</time>
      </trkpt>
      <trkpt lat="43.81558" lon="7.08347">
        <ele>927</ele>
        <time>2013-12-01T14:11:21Z</time>
      </trkpt>
      <trkpt lat="43.81555" lon="7.08373">
        <ele>924</ele>
        <time>2013-12-01T14:11:36Z</time>
      </trkpt>
      <trkpt lat="43.81555" lon="7.08394">
        <ele>923</ele>
        <time>2013-12-01T14:11:48Z</time>
      </trkpt>
      <trkpt lat="43.81553" lon="7.08416">
        <ele>921</ele>
        <time>2013-12-01T14:12:00Z</time>
      </trkpt>
      <trkpt lat="43.81551" lon="7.08438">
        <ele>919</ele>
        <time>2013-12-01T14:12:13Z</time>
      </trkpt>
      <trkpt lat="43.81556" lon="7.08458">
        <ele>917</ele>
        <time>2013-12-01T14:12:25Z</time>
      </trkpt>
      <trkpt lat="43.81558" lon="7.08475">
        <ele>916</ele>
        <time>2013-12-01T14:12:35Z</time>
      </trkpt>
      <trkpt lat="43.8155" lon="7.08489">
        <ele>915</ele>
        <time>2013-12-01T14:12:45Z</time>
      </trkpt>
      <trkpt lat="43.81536" lon="7.085">
        <ele>915</ele>
        <time>2013-12-01T14:12:57Z</time>
      </trkpt>
      <trkpt lat="43.81522" lon="7.08516">
        <ele>914</ele>
        <time>2013-12-01T14:13:12Z</time>
      </trkpt>
      <trkpt lat="43.81521" lon="7.08532">
        <ele>913</ele>
        <time>2013-12-01T14:13:22Z</time>
      </trkpt>
      <trkpt lat="43.81522" lon="7.08557">
        <ele>912</ele>
        <time>2013-12-01T14:13:36Z</time>
      </trkpt>
      <trkpt lat="43.8152" lon="7.0858">
        <ele>913</ele>
        <time>2013-12-01T14:13:49Z</time>
      </trkpt>
      <trkpt lat="43.8152" lon="7.08601">
        <ele>912</ele>
        <time>2013-12-01T14:14:01Z</time>
      </trkpt>
      <trkpt lat="43.81517" lon="7.08623">
        <ele>911</ele>
        <time>2013-12-01T14:14:13Z</time>
      </trkpt>
      <trkpt lat="43.81515" lon="7.08646">
        <ele>911</ele>
        <time>2013-12-01T14:14:26Z</time>
      </trkpt>
      <trkpt lat="43.81512" lon="7.08669">
        <ele>910</ele>
        <time>2013-12-01T14:14:39Z</time>
      </trkpt>
      <trkpt lat="43.81516" lon="7.08693">
        <ele>911</ele>
        <time>2013-12-01T14:14:53Z</time>
      </trkpt>
      <trkpt lat="43.81513" lon="7.08717">
        <ele>910</ele>
        <time>2013-12-01T14:15:07Z</time>
      </trkpt>
      <trkpt lat="43.81501" lon="7.08733">
        <ele>909</ele>
        <time>2013-12-01T14:15:20Z</time>
      </trkpt>
      <trkpt lat="43.81494" lon="7.08739">
        <ele>908</ele>
        <time>2013-12-01T14:15:26Z</time>
      </trkpt>
      <trkpt lat="43.81492" lon="7.08749">
        <ele>907</ele>
        <time>2013-12-01T14:15:32Z</time>
      </trkpt>
      <trkpt lat="43.81487" lon="7.08768">
        <ele>905</ele>
        <time>2013-12-01T14:15:43Z</time>
      </trkpt>
      <trkpt lat="43.81483" lon="7.08788">
        <ele>905</ele>
        <time>2013-12-01T14:15:54Z</time>
      </trkpt>
      <trkpt lat="43.81481" lon="7.08804">
        <ele>905</ele>
        <time>2013-12-01T14:16:03Z</time>
      </trkpt>
      <trkpt lat="43.81478" lon="7.08821">
        <ele>905</ele>
        <time>2013-12-01T14:16:13Z</time>
      </trkpt>
      <trkpt lat="43.81473" lon="7.08835">
        <ele>905</ele>
        <time>2013-12-01T14:16:22Z</time>
      </trkpt>
      <trkpt lat="43.81468" lon="7.08851">
        <ele>904</ele>
        <time>2013-12-01T14:16:33Z</time>
      </trkpt>
      <trkpt lat="43.81469" lon="7.08853">
        <ele>905</ele>
        <time>2013-12-01T14:16:40Z</time>
      </trkpt>
      <trkpt lat="43.81478" lon="7.08866">
        <ele>903</ele>
        <time>2013-12-01T14:16:50Z</time>
      </trkpt>
      <trkpt lat="43.81484" lon="7.08878">
        <ele>901</ele>
        <time>2013-12-01T14:16:58Z</time>
      </trkpt>
      <trkpt lat="43.81487" lon="7.08896">
        <ele>898</ele>
        <time>2013-12-01T14:17:10Z</time>
      </trkpt>
      <trkpt lat="43.81492" lon="7.08918">
        <ele>896</ele>
        <time>2013-12-01T14:17:23Z</time>
      </trkpt>
      <trkpt lat="43.81497" lon="7.08938">
        <ele>895</ele>
        <time>2013-12-01T14:17:34Z</time>
      </trkpt>
      <trkpt lat="43.8149" lon="7.08948">
        <ele>894</ele>
        <time>2013-12-01T14:17:42Z</time>
      </trkpt>
      <trkpt lat="43.81476" lon="7.08953">
        <ele>891</ele>
        <time>2013-12-01T14:17:54Z</time>
      </trkpt>
      <trkpt lat="43.81462" lon="7.08956">
        <ele>888</ele>
        <time>2013-12-01T14:18:05Z</time>
      </trkpt>
      <trkpt lat="43.81452" lon="7.08963">
        <ele>886</ele>
        <time>2013-12-01T14:18:14Z</time>
      </trkpt>
      <trkpt lat="43.81437" lon="7.08976">
        <ele>886</ele>
        <time>2013-12-01T14:18:27Z</time>
      </trkpt>
      <trkpt lat="43.81424" lon="7.08987">
        <ele>885</ele>
        <time>2013-12-01T14:18:38Z</time>
      </trkpt>
      <trkpt lat="43.81418" lon="7.08996">
        <ele>885</ele>
        <time>2013-12-01T14:18:45Z</time>
      </trkpt>
      <trkpt lat="43.8142" lon="7.09006">
        <ele>882</ele>
        <time>2013-12-01T14:18:51Z</time>
      </trkpt>
      <trkpt lat="43.8142" lon="7.09021">
        <ele>879</ele>
        <time>2013-12-01T14:19:01Z</time>
      </trkpt>
      <trkpt lat="43.81421" lon="7.09039">
        <ele>878</ele>
        <time>2013-12-01T14:19:13Z</time>
      </trkpt>
      <trkpt lat="43.81422" lon="7.09058">
        <ele>875</ele>
        <time>2013-12-01T14:19:24Z</time>
      </trkpt>
      <trkpt lat="43.81423" lon="7.09074">
        <ele>874</ele>
        <time>2013-12-01T14:19:34Z</time>
      </trkpt>
      <trkpt lat="43.81425" lon="7.09093">
        <ele>873</ele>
        <time>2013-12-01T14:19:45Z</time>
      </trkpt>
      <trkpt lat="43.81427" lon="7.09115">
        <ele>873</ele>
        <time>2013-12-01T14:19:57Z</time>
      </trkpt>
      <trkpt lat="43.8143" lon="7.09137">
        <ele>872</ele>
        <time>2013-12-01T14:20:09Z</time>
      </trkpt>
      <trkpt lat="43.81431" lon="7.09156">
        <ele>871</ele>
        <time>2013-12-01T14:20:20Z</time>
      </trkpt>
      <trkpt lat="43.81428" lon="7.09174">
        <ele>869</ele>
        <time>2013-12-01T14:20:31Z</time>
      </trkpt>
      <trkpt lat="43.81428" lon="7.09176">
        <ele>868</ele>
        <time>2013-12-01T14:20:32Z</time>
      </trkpt>
      <trkpt lat="43.81424" lon="7.09191">
        <ele>866</ele>
        <time>2013-12-01T14:20:42Z</time>
      </trkpt>
      <trkpt lat="43.81419" lon="7.09207">
        <ele>864</ele>
        <time>2013-12-01T14:20:53Z</time>
      </trkpt>
      <trkpt lat="43.81415" lon="7.09223">
        <ele>861</ele>
        <time>2013-12-01T14:21:04Z</time>
      </trkpt>
      <trkpt lat="43.81415" lon="7.09224">
        <ele>861</ele>
        <time>2013-12-01T14:21:05Z</time>
      </trkpt>
      <trkpt lat="43.81415" lon="7.09231">
        <ele>860</ele>
        <time>2013-12-01T14:21:09Z</time>
      </trkpt>
      <trkpt lat="43.81409" lon="7.0923">
        <ele>857</ele>
        <time>2013-12-01T14:21:16Z</time>
      </trkpt>
      <trkpt lat="43.81408" lon="7.09225">
        <ele>857</ele>
        <time>2013-12-01T14:21:19Z</time>
      </trkpt>
      <trkpt lat="43.81404" lon="7.09205">
        <ele>854</ele>
        <time>2013-12-01T14:21:32Z</time>
      </trkpt>
      <trkpt lat="43.81404" lon="7.09198">
        <ele>853</ele>
        <time>2013-12-01T14:21:36Z</time>
      </trkpt>
      <trkpt lat="43.81401" lon="7.0919">
        <ele>851</ele>
        <time>2013-12-01T14:21:41Z</time>
      </trkpt>
      <trkpt lat="43.81395" lon="7.09197">
        <ele>850</ele>
        <time>2013-12-01T14:21:48Z</time>
      </trkpt>
      <trkpt lat="43.81391" lon="7.09214">
        <ele>848</ele>
        <time>2013-12-01T14:21:59Z</time>
      </trkpt>
      <trkpt lat="43.81385" lon="7.09233">
        <ele>845</ele>
        <time>2013-12-01T14:22:12Z</time>
      </trkpt>
      <trkpt lat="43.81382" lon="7.09251">
        <ele>842</ele>
        <time>2013-12-01T14:22:23Z</time>
      </trkpt>
      <trkpt lat="43.81382" lon="7.09255">
        <ele>842</ele>
        <time>2013-12-01T14:22:26Z</time>
      </trkpt>
      <trkpt lat="43.81381" lon="7.09262">
        <ele>841</ele>
        <time>2013-12-01T14:22:30Z</time>
      </trkpt>
      <trkpt lat="43.81378" lon="7.09281">
        <ele>838</ele>
        <time>2013-12-01T14:22:42Z</time>
      </trkpt>
      <trkpt lat="43.81379" lon="7.09301">
        <ele>836</ele>
        <time>2013-12-01T14:22:54Z</time>
      </trkpt>
      <trkpt lat="43.81381" lon="7.09308">
        <ele>834</ele>
        <time>2013-12-01T14:22:59Z</time>
      </trkpt>
      <trkpt lat="43.81367" lon="7.0932">
        <ele>831</ele>
        <time>2013-12-01T14:23:11Z</time>
      </trkpt>
      <trkpt lat="43.81351" lon="7.09331">
        <ele>828</ele>
        <time>2013-12-01T14:23:24Z</time>
      </trkpt>
      <trkpt lat="43.81338" lon="7.09347">
        <ele>825</ele>
        <time>2013-12-01T14:23:37Z</time>
      </trkpt>
      <trkpt lat="43.81328" lon="7.09362">
        <ele>824</ele>
        <time>2013-12-01T14:23:48Z</time>
      </trkpt>
      <trkpt lat="43.81319" lon="7.09377">
        <ele>822</ele>
        <time>2013-12-01T14:23:59Z</time>
      </trkpt>
      <trkpt lat="43.81312" lon="7.09391">
        <ele>819</ele>
        <time>2013-12-01T14:24:10Z</time>
      </trkpt>
      <trkpt lat="43.81306" lon="7.09403">
        <ele>817</ele>
        <time>2013-12-01T14:24:19Z</time>
      </trkpt>
      <trkpt lat="43.81297" lon="7.09423">
        <ele>814</ele>
        <time>2013-12-01T14:24:32Z</time>
      </trkpt>
      <trkpt lat="43.81292" lon="7.09446">
        <ele>813</ele>
        <time>2013-12-01T14:24:44Z</time>
      </trkpt>
      <trkpt lat="43.81288" lon="7.09471">
        <ele>813</ele>
        <time>2013-12-01T14:24:57Z</time>
      </trkpt>
      <trkpt lat="43.81282" lon="7.09494">
        <ele>811</ele>
        <time>2013-12-01T14:25:10Z</time>
      </trkpt>
      <trkpt lat="43.81277" lon="7.09513">
        <ele>810</ele>
        <time>2013-12-01T14:25:21Z</time>
      </trkpt>
      <trkpt lat="43.81274" lon="7.09532">
        <ele>809</ele>
        <time>2013-12-01T14:25:32Z</time>
      </trkpt>
      <trkpt lat="43.81273" lon="7.09551">
        <ele>809</ele>
        <time>2013-12-01T14:25:42Z</time>
      </trkpt>
      <trkpt lat="43.81272" lon="7.09561">
        <ele>808</ele>
        <time>2013-12-01T14:25:49Z</time>
      </trkpt>
      <trkpt lat="43.81268" lon="7.09556">
        <ele>807</ele>
        <time>2013-12-01T14:25:55Z</time>
      </trkpt>
      <trkpt lat="43.81268" lon="7.09553">
        <ele>807</ele>
        <time>2013-12-01T14:25:57Z</time>
      </trkpt>
      <trkpt lat="43.81266" lon="7.09539">
        <ele>804</ele>
        <time>2013-12-01T14:26:06Z</time>
      </trkpt>
      <trkpt lat="43.81261" lon="7.09527">
        <ele>801</ele>
        <time>2013-12-01T14:26:15Z</time>
      </trkpt>
      <trkpt lat="43.81252" lon="7.09516">
        <ele>798</ele>
        <time>2013-12-01T14:26:25Z</time>
      </trkpt>
      <trkpt lat="43.81249" lon="7.09496">
        <ele>796</ele>
        <time>2013-12-01T14:26:37Z</time>
      </trkpt>
      <trkpt lat="43.81244" lon="7.09479">
        <ele>793</ele>
        <time>2013-12-01T14:26:49Z</time>
      </trkpt>
      <trkpt lat="43.8124" lon="7.09467">
        <ele>790</ele>
        <time>2013-12-01T14:26:57Z</time>
      </trkpt>
      <trkpt lat="43.81233" lon="7.09451">
        <ele>787</ele>
        <time>2013-12-01T14:27:09Z</time>
      </trkpt>
      <trkpt lat="43.8123" lon="7.09442">
        <ele>786</ele>
        <time>2013-12-01T14:27:16Z</time>
      </trkpt>
      <trkpt lat="43.81228" lon="7.0943">
        <ele>783</ele>
        <time>2013-12-01T14:27:26Z</time>
      </trkpt>
      <trkpt lat="43.81225" lon="7.0942">
        <ele>780</ele>
        <time>2013-12-01T14:27:34Z</time>
      </trkpt>
      <trkpt lat="43.81224" lon="7.09415">
        <ele>779</ele>
        <time>2013-12-01T14:27:38Z</time>
      </trkpt>
      <trkpt lat="43.81221" lon="7.09401">
        <ele>775</ele>
        <time>2013-12-01T14:27:49Z</time>
      </trkpt>
      <trkpt lat="43.81217" lon="7.09388">
        <ele>774</ele>
        <time>2013-12-01T14:27:59Z</time>
      </trkpt>
      <trkpt lat="43.81218" lon="7.09385">
        <ele>773</ele>
        <time>2013-12-01T14:28:01Z</time>
      </trkpt>
      <trkpt lat="43.81216" lon="7.09367">
        <ele>768</ele>
        <time>2013-12-01T14:28:12Z</time>
      </trkpt>
      <trkpt lat="43.81214" lon="7.09353">
        <ele>766</ele>
        <time>2013-12-01T14:28:21Z</time>
      </trkpt>
      <trkpt lat="43.81214" lon="7.09338">
        <ele>764</ele>
        <time>2013-12-01T14:28:30Z</time>
      </trkpt>
      <trkpt lat="43.81214" lon="7.09326">
        <ele>761</ele>
        <time>2013-12-01T14:28:38Z</time>
      </trkpt>
      <trkpt lat="43.81214" lon="7.09309">
        <ele>759</ele>
        <time>2013-12-01T14:28:49Z</time>
      </trkpt>
      <trkpt lat="43.81208" lon="7.09297">
        <ele>756</ele>
        <time>2013-12-01T14:28:57Z</time>
      </trkpt>
      <trkpt lat="43.81195" lon="7.09289">
        <ele>756</ele>
        <time>2013-12-01T14:29:08Z</time>
      </trkpt>
      <trkpt lat="43.8118" lon="7.0929">
        <ele>757</ele>
        <time>2013-12-01T14:29:21Z</time>
      </trkpt>
      <trkpt lat="43.81171" lon="7.093">
        <ele>757</ele>
        <time>2013-12-01T14:29:33Z</time>
      </trkpt>
      <trkpt lat="43.81169" lon="7.09304">
        <ele>757</ele>
        <time>2013-12-01T14:29:41Z</time>
      </trkpt>
      <trkpt lat="43.81166" lon="7.09307">
        <ele>758</ele>
        <time>2013-12-01T14:30:03Z</time>
      </trkpt>
      <trkpt lat="43.8116" lon="7.09314">
        <ele>760</ele>
        <time>2013-12-01T14:30:14Z</time>
      </trkpt>
      <trkpt lat="43.81156" lon="7.09319">
        <ele>762</ele>
        <time>2013-12-01T14:30:22Z</time>
      </trkpt>
      <trkpt lat="43.81151" lon="7.09314">
        <ele>763</ele>
        <time>2013-12-01T14:30:31Z</time>
      </trkpt>
      <trkpt lat="43.81146" lon="7.09312">
        <ele>765</ele>
        <time>2013-12-01T14:30:41Z</time>
      </trkpt>
      <trkpt lat="43.81137" lon="7.09308">
        <ele>767</ele>
        <time>2013-12-01T14:30:53Z</time>
      </trkpt>
      <trkpt lat="43.81131" lon="7.09305">
        <ele>771</ele>
        <time>2013-12-01T14:31:03Z</time>
      </trkpt>
      <trkpt lat="43.81129" lon="7.09298">
        <ele>773</ele>
        <time>2013-12-01T14:31:12Z</time>
      </trkpt>
      <trkpt lat="43.81131" lon="7.09288">
        <ele>775</ele>
        <time>2013-12-01T14:31:21Z</time>
      </trkpt>
      <trkpt lat="43.81134" lon="7.09281">
        <ele>775</ele>
        <time>2013-12-01T14:31:27Z</time>
      </trkpt>
      <trkpt lat="43.81137" lon="7.09278">
        <ele>775</ele>
        <time>2013-12-01T14:31:30Z</time>
      </trkpt>
      <trkpt lat="43.81149" lon="7.09271">
        <ele>776</ele>
        <time>2013-12-01T14:31:42Z</time>
      </trkpt>
      <trkpt lat="43.8115" lon="7.09271">
        <ele>777</ele>
        <time>2013-12-01T14:31:43Z</time>
      </trkpt>
      <trkpt lat="43.81149" lon="7.09266">
        <ele>777</ele>
        <time>2013-12-01T14:31:50Z</time>
      </trkpt>
      <trkpt lat="43.81145" lon="7.09266">
        <ele>779</ele>
        <time>2013-12-01T14:31:54Z</time>
      </trkpt>
      <trkpt lat="43.81138" lon="7.09266">
        <ele>781</ele>
        <time>2013-12-01T14:32:01Z</time>
      </trkpt>
      <trkpt lat="43.81127" lon="7.09271">
        <ele>781</ele>
        <time>2013-12-01T14:32:11Z</time>
      </trkpt>
      <trkpt lat="43.81116" lon="7.09279">
        <ele>784</ele>
        <time>2013-12-01T14:32:24Z</time>
      </trkpt>
      <trkpt lat="43.81106" lon="7.09288">
        <ele>786</ele>
        <time>2013-12-01T14:32:35Z</time>
      </trkpt>
      <trkpt lat="43.81095" lon="7.09297">
        <ele>787</ele>
        <time>2013-12-01T14:32:48Z</time>
      </trkpt>
      <trkpt lat="43.81084" lon="7.09307">
        <ele>789</ele>
        <time>2013-12-01T14:33:01Z</time>
      </trkpt>
      <trkpt lat="43.81075" lon="7.09315">
        <ele>791</ele>
        <time>2013-12-01T14:33:12Z</time>
      </trkpt>
      <trkpt lat="43.81065" lon="7.09318">
        <ele>793</ele>
        <time>2013-12-01T14:33:23Z</time>
      </trkpt>
      <trkpt lat="43.8106" lon="7.09324">
        <ele>794</ele>
        <time>2013-12-01T14:33:30Z</time>
      </trkpt>
      <trkpt lat="43.81057" lon="7.09343">
        <ele>795</ele>
        <time>2013-12-01T14:33:43Z</time>
      </trkpt>
      <trkpt lat="43.81053" lon="7.09359">
        <ele>795</ele>
        <time>2013-12-01T14:33:54Z</time>
      </trkpt>
      <trkpt lat="43.81049" lon="7.09372">
        <ele>798</ele>
        <time>2013-12-01T14:34:05Z</time>
      </trkpt>
      <trkpt lat="43.81045" lon="7.09381">
        <ele>799</ele>
        <time>2013-12-01T14:34:14Z</time>
      </trkpt>
      <trkpt lat="43.81038" lon="7.09387">
        <ele>801</ele>
        <time>2013-12-01T14:34:24Z</time>
      </trkpt>
      <trkpt lat="43.81035" lon="7.09397">
        <ele>803</ele>
        <time>2013-12-01T14:34:33Z</time>
      </trkpt>
      <trkpt lat="43.81028" lon="7.09409">
        <ele>805</ele>
        <time>2013-12-01T14:34:45Z</time>
      </trkpt>
      <trkpt lat="43.81021" lon="7.09423">
        <ele>806</ele>
        <time>2013-12-01T14:34:56Z</time>
      </trkpt>
      <trkpt lat="43.81013" lon="7.09437">
        <ele>807</ele>
        <time>2013-12-01T14:35:08Z</time>
      </trkpt>
      <trkpt lat="43.81011" lon="7.09443">
        <ele>807</ele>
        <time>2013-12-01T14:35:13Z</time>
      </trkpt>
      <trkpt lat="43.81011" lon="7.09467">
        <ele>808</ele>
        <time>2013-12-01T14:35:28Z</time>
      </trkpt>
      <trkpt lat="43.8101" lon="7.09481">
        <ele>809</ele>
        <time>2013-12-01T14:35:38Z</time>
      </trkpt>
      <trkpt lat="43.81002" lon="7.09491">
        <ele>811</ele>
        <time>2013-12-01T14:35:49Z</time>
      </trkpt>
      <trkpt lat="43.80988" lon="7.09495">
        <ele>812</ele>
        <time>2013-12-01T14:36:02Z</time>
      </trkpt>
      <trkpt lat="43.80973" lon="7.09498">
        <ele>813</ele>
        <time>2013-12-01T14:36:16Z</time>
      </trkpt>
      <trkpt lat="43.8096" lon="7.095">
        <ele>815</ele>
        <time>2013-12-01T14:36:29Z</time>
      </trkpt>
      <trkpt lat="43.80958" lon="7.09501">
        <ele>815</ele>
        <time>2013-12-01T14:36:31Z</time>
      </trkpt>
      <trkpt lat="43.8095" lon="7.09512">
        <ele>817</ele>
        <time>2013-12-01T14:36:44Z</time>
      </trkpt>
      <trkpt lat="43.80947" lon="7.09518">
        <ele>817</ele>
        <time>2013-12-01T14:36:49Z</time>
      </trkpt>
      <trkpt lat="43.80949" lon="7.0953">
        <ele>818</ele>
        <time>2013-12-01T14:36:59Z</time>
      </trkpt>
      <trkpt lat="43.80954" lon="7.09545">
        <ele>819</ele>
        <time>2013-12-01T14:37:09Z</time>
      </trkpt>
      <trkpt lat="43.80961" lon="7.09561">
        <ele>820</ele>
        <time>2013-12-01T14:37:20Z</time>
      </trkpt>
      <trkpt lat="43.80969" lon="7.09577">
        <ele>821</ele>
        <time>2013-12-01T14:37:31Z</time>
      </trkpt>
      <trkpt lat="43.80977" lon="7.09596">
        <ele>823</ele>
        <time>2013-12-01T14:37:44Z</time>
      </trkpt>
      <trkpt lat="43.80984" lon="7.09614">
        <ele>825</ele>
        <time>2013-12-01T14:37:56Z</time>
      </trkpt>
      <trkpt lat="43.80991" lon="7.0963">
        <ele>826</ele>
        <time>2013-12-01T14:38:07Z</time>
      </trkpt>
      <trkpt lat="43.80998" lon="7.09649">
        <ele>828</ele>
        <time>2013-12-01T14:38:20Z</time>
      </trkpt>
      <trkpt lat="43.81004" lon="7.09671">
        <ele>830</ele>
        <time>2013-12-01T14:38:34Z</time>
      </trkpt>
      <trkpt lat="43.81008" lon="7.09688">
        <ele>832</ele>
        <time>2013-12-01T14:38:45Z</time>
      </trkpt>
      <trkpt lat="43.81012" lon="7.09703">
        <ele>833</ele>
        <time>2013-12-01T14:38:55Z</time>
      </trkpt>
      <trkpt lat="43.81015" lon="7.09721">
        <ele>834</ele>
        <time>2013-12-01T14:39:06Z</time>
      </trkpt>
      <trkpt lat="43.81014" lon="7.09723">
        <ele>835</ele>
        <time>2013-12-01T14:39:07Z</time>
      </trkpt>
      <trkpt lat="43.81009" lon="7.09721">
        <ele>835</ele>
        <time>2013-12-01T14:39:13Z</time>
      </trkpt>
      <trkpt lat="43.81002" lon="7.09703">
        <ele>836</ele>
        <time>2013-12-01T14:39:26Z</time>
      </trkpt>
      <trkpt lat="43.80994" lon="7.0969">
        <ele>838</ele>
        <time>2013-12-01T14:39:36Z</time>
      </trkpt>
      <trkpt lat="43.80987" lon="7.09677">
        <ele>840</ele>
        <time>2013-12-01T14:39:46Z</time>
      </trkpt>
      <trkpt lat="43.80975" lon="7.09663">
        <ele>842</ele>
        <time>2013-12-01T14:39:59Z</time>
      </trkpt>
      <trkpt lat="43.80967" lon="7.09653">
        <ele>843</ele>
        <time>2013-12-01T14:40:08Z</time>
      </trkpt>
      <trkpt lat="43.80956" lon="7.0964">
        <ele>846</ele>
        <time>2013-12-01T14:40:21Z</time>
      </trkpt>
      <trkpt lat="43.80946" lon="7.09629">
        <ele>848</ele>
        <time>2013-12-01T14:40:33Z</time>
      </trkpt>
      <trkpt lat="43.80944" lon="7.09626">
        <ele>848</ele>
        <time>2013-12-01T14:40:36Z</time>
      </trkpt>
      <trkpt lat="43.80936" lon="7.09613">
        <ele>849</ele>
        <time>2013-12-01T14:40:47Z</time>
      </trkpt>
      <trkpt lat="43.80925" lon="7.09601">
        <ele>851</ele>
        <time>2013-12-01T14:40:59Z</time>
      </trkpt>
      <trkpt lat="43.80913" lon="7.09588">
        <ele>853</ele>
        <time>2013-12-01T14:41:13Z</time>
      </trkpt>
      <trkpt lat="43.80904" lon="7.09576">
        <ele>854</ele>
        <time>2013-12-01T14:41:25Z</time>
      </trkpt>
      <trkpt lat="43.80894" lon="7.09567">
        <ele>856</ele>
        <time>2013-12-01T14:41:36Z</time>
      </trkpt>
      <trkpt lat="43.80886" lon="7.09556">
        <ele>858</ele>
        <time>2013-12-01T14:41:48Z</time>
      </trkpt>
      <trkpt lat="43.80886" lon="7.0956">
        <ele>859</ele>
        <time>2013-12-01T14:41:53Z</time>
      </trkpt>
      <trkpt lat="43.80889" lon="7.09573">
        <ele>861</ele>
        <time>2013-12-01T14:42:03Z</time>
      </trkpt>
      <trkpt lat="43.80893" lon="7.09587">
        <ele>862</ele>
        <time>2013-12-01T14:42:14Z</time>
      </trkpt>
      <trkpt lat="43.80896" lon="7.09602">
        <ele>865</ele>
        <time>2013-12-01T14:42:26Z</time>
      </trkpt>
      <trkpt lat="43.809" lon="7.09615">
        <ele>866</ele>
        <time>2013-12-01T14:42:36Z</time>
      </trkpt>
      <trkpt lat="43.80904" lon="7.09631">
        <ele>869</ele>
        <time>2013-12-01T14:42:49Z</time>
      </trkpt>
      <trkpt lat="43.80906" lon="7.09638">
        <ele>870</ele>
        <time>2013-12-01T14:42:55Z</time>
      </trkpt>
      <trkpt lat="43.80902" lon="7.09646">
        <ele>872</ele>
        <time>2013-12-01T14:43:04Z</time>
      </trkpt>
      <trkpt lat="43.80904" lon="7.09653">
        <ele>873</ele>
        <time>2013-12-01T14:43:13Z</time>
      </trkpt>
      <trkpt lat="43.80903" lon="7.09658">
        <ele>875</ele>
        <time>2013-12-01T14:43:21Z</time>
      </trkpt>
      <trkpt lat="43.80902" lon="7.09663">
        <ele>876</ele>
        <time>2013-12-01T14:43:29Z</time>
      </trkpt>
      <trkpt lat="43.80896" lon="7.09669">
        <ele>877</ele>
        <time>2013-12-01T14:43:39Z</time>
      </trkpt>
      <trkpt lat="43.80892" lon="7.09676">
        <ele>878</ele>
        <time>2013-12-01T14:43:49Z</time>
      </trkpt>
      <trkpt lat="43.80887" lon="7.09681">
        <ele>879</ele>
        <time>2013-12-01T14:43:57Z</time>
      </trkpt>
      <trkpt lat="43.80885" lon="7.09674">
        <ele>880</ele>
        <time>2013-12-01T14:44:03Z</time>
      </trkpt>
      <trkpt lat="43.80886" lon="7.09667">
        <ele>880</ele>
        <time>2013-12-01T14:44:08Z</time>
      </trkpt>
      <trkpt lat="43.80884" lon="7.09648">
        <ele>879</ele>
        <time>2013-12-01T14:44:20Z</time>
      </trkpt>
      <trkpt lat="43.80881" lon="7.09631">
        <ele>880</ele>
        <time>2013-12-01T14:44:31Z</time>
      </trkpt>
      <trkpt lat="43.80878" lon="7.09627">
        <ele>880</ele>
        <time>2013-12-01T14:44:35Z</time>
      </trkpt>
      <trkpt lat="43.80871" lon="7.09618">
        <ele>881</ele>
        <time>2013-12-01T14:44:46Z</time>
      </trkpt>
      <trkpt lat="43.80866" lon="7.09612">
        <ele>882</ele>
        <time>2013-12-01T14:44:54Z</time>
      </trkpt>
      <trkpt lat="43.80861" lon="7.09609">
        <ele>882</ele>
        <time>2013-12-01T14:45:03Z</time>
      </trkpt>
      <trkpt lat="43.80858" lon="7.09604">
        <ele>883</ele>
        <time>2013-12-01T14:45:13Z</time>
      </trkpt>
      <trkpt lat="43.80852" lon="7.09597">
        <ele>884</ele>
        <time>2013-12-01T14:45:21Z</time>
      </trkpt>
      <trkpt lat="43.80851" lon="7.09595">
        <ele>885</ele>
        <time>2013-12-01T14:45:23Z</time>
      </trkpt>
      <trkpt lat="43.80847" lon="7.09592">
        <ele>885</ele>
        <time>2013-12-01T14:45:27Z</time>
      </trkpt>
      <trkpt lat="43.80837" lon="7.09581">
        <ele>887</ele>
        <time>2013-12-01T14:45:40Z</time>
      </trkpt>
      <trkpt lat="43.80827" lon="7.09575">
        <ele>889</ele>
        <time>2013-12-01T14:45:52Z</time>
      </trkpt>
      <trkpt lat="43.80824" lon="7.09579">
        <ele>889</ele>
        <time>2013-12-01T14:45:59Z</time>
      </trkpt>
      <trkpt lat="43.80826" lon="7.09583">
        <ele>890</ele>
        <time>2013-12-01T14:46:03Z</time>
      </trkpt>
      <trkpt lat="43.80832" lon="7.09589">
        <ele>890</ele>
        <time>2013-12-01T14:46:10Z</time>
      </trkpt>
      <trkpt lat="43.80841" lon="7.096">
        <ele>890</ele>
        <time>2013-12-01T14:56:37Z</time>
      </trkpt>
      <trkpt lat="43.80843" lon="7.09607">
        <ele>890</ele>
        <time>2013-12-01T14:56:45Z</time>
      </trkpt>
      <trkpt lat="43.80845" lon="7.09617">
        <ele>890</ele>
        <time>2013-12-01T14:56:54Z</time>
      </trkpt>
      <trkpt lat="43.80846" lon="7.0963">
        <ele>891</ele>
        <time>2013-12-01T14:57:05Z</time>
      </trkpt>
      <trkpt lat="43.80842" lon="7.09636">
        <ele>890</ele>
        <time>2013-12-01T14:57:14Z</time>
      </trkpt>
      <trkpt lat="43.80834" lon="7.09636">
        <ele>888</ele>
        <time>2013-12-01T14:57:24Z</time>
      </trkpt>
      <trkpt lat="43.80834" lon="7.09644">
        <ele>887</ele>
        <time>2013-12-01T14:57:32Z</time>
      </trkpt>
      <trkpt lat="43.80836" lon="7.0965">
        <ele>880</ele>
        <time>2013-12-01T14:58:17Z</time>
      </trkpt>
      <trkpt lat="43.80837" lon="7.09658">
        <ele>877</ele>
        <time>2013-12-01T14:58:30Z</time>
      </trkpt>
      <trkpt lat="43.80832" lon="7.09661">
        <ele>875</ele>
        <time>2013-12-01T14:58:37Z</time>
      </trkpt>
      <trkpt lat="43.80819" lon="7.09656">
        <ele>875</ele>
        <time>2013-12-01T14:58:47Z</time>
      </trkpt>
      <trkpt lat="43.80803" lon="7.09648">
        <ele>876</ele>
        <time>2013-12-01T14:58:59Z</time>
      </trkpt>
      <trkpt lat="43.80786" lon="7.09636">
        <ele>876</ele>
        <time>2013-12-01T14:59:14Z</time>
      </trkpt>
      <trkpt lat="43.80782" lon="7.09633">
        <ele>876</ele>
        <time>2013-12-01T14:59:21Z</time>
      </trkpt>
      <trkpt lat="43.80769" lon="7.09624">
        <ele>875</ele>
        <time>2013-12-01T14:59:32Z</time>
      </trkpt>
      <trkpt lat="43.80755" lon="7.09622">
        <ele>874</ele>
        <time>2013-12-01T14:59:44Z</time>
      </trkpt>
      <trkpt lat="43.80744" lon="7.09624">
        <ele>873</ele>
        <time>2013-12-01T14:59:54Z</time>
      </trkpt>
      <trkpt lat="43.80726" lon="7.09628">
        <ele>873</ele>
        <time>2013-12-01T15:00:09Z</time>
      </trkpt>
      <trkpt lat="43.80711" lon="7.09626">
        <ele>872</ele>
        <time>2013-12-01T15:00:22Z</time>
      </trkpt>
      <trkpt lat="43.80695" lon="7.09623">
        <ele>872</ele>
        <time>2013-12-01T15:00:36Z</time>
      </trkpt>
      <trkpt lat="43.80681" lon="7.09618">
        <ele>870</ele>
        <time>2013-12-01T15:00:49Z</time>
      </trkpt>
      <trkpt lat="43.80673" lon="7.09616">
        <ele>870</ele>
        <time>2013-12-01T15:00:58Z</time>
      </trkpt>
    </trkseg>
  </trk>
</gpx>